[[{"header":{"parameterUnit":"m.s-1","parameterCategory":1,"la1":30.6,"la2":28.766,"lo1":-90.7593,"lo2":-88.6598,"dy":0.0162,"dx":0.0183,"nx":116,"ny":114,"refTime":"2023-06-25T00:00:00:Z","depth":0,"parameterNumber":2,"parameterNumberName":"U-component_of_WINDS"},"data":[0.0,0.0,0.0,0.0,0.0,0.0,0.0,0.0,0.0,0.0,0.0,0.0,0.0,0.0,0.0,0.0,0.0,0.0,0.0,0.0,0.0,0.0,0.0,0.0,0.0,0.0,0.0,0.0,0.0,0.0,0.0,0.0,0.0,0.0,0.0,0.0,0.0,0.0,0.0,0.0,0.0,0.0,0.0,0.0,0.0,0.0,0.0,0.0,0.0,0.0,0.0,0.0,0.0,0.0,0.0,0.0,0.0,0.0,0.0,0.0,0.0,0.0,0.0,0.0,0.0,0.0,0.0,0.0,0.0,0.0,0.0,0.0,0.0,0.0,0.0,0.0,0.0,0.0,0.0,0.0,0.0,0.0,0.0,0.0,0.0,0.0,0.0,0.0,0.0,0.0,0.0,0.0,0.0,0.0,0.0,0.0,0.0,0.0,0.0,0.0,0.0,0.0,0.0,0.0,0.0,0.0,0.0,0.0,0.0,0.0,0.0,0.0,0.0,0.0,0.0,0.0,0.0,0.0,0.0,0.0,0.0,0.0,0.0,0.0,0.0,0.0,0.0,0.0,0.0,0.0,0.0,0.0,0.0,0.0,0.0,0.0,0.0,0.0,0.0,0.0,0.0,0.0,0.0,0.0,0.0,0.0,0.0,0.0,0.0,0.0,0.0,0.0,0.0,0.0,0.0,0.0,0.0,0.0,0.0,0.0,0.0,0.0,0.0,0.0,0.0,0.0,0.0,0.0,0.0,0.0,0.0,0.0,0.0,0.0,0.0,0.0,0.0,0.0,0.0,0.0,0.0,0.0,0.0,0.0,0.0,0.0,0.0,0.0,0.0,0.0,0.0,0.0,0.0,0.0,0.0,0.0,0.0,0.0,0.0,0.0,0.0,0.0,0.0,0.0,0.0,0.0,0.0,0.0,0.0,0.0,0.0,0.0,0.0,0.0,0.0,0.0,0.0,0.0,0.0,0.0,0.0,0.0,0.0,0.0,0.0,0.0,0.0,0.0,0.0,0.0,0.0,0.0,0.0,0.0,0.0,0.0,0.0,0.0,0.0,0.0,0.0,0.0,0.0,0.0,0.0,0.0,0.0,0.0,0.0,0.0,0.0,0.0,0.0,0.0,0.0,0.0,0.0,0.0,0.0,0.0,0.0,0.0,0.0,0.0,0.0,0.0,0.0,0.0,0.0,0.0,0.0,0.0,0.0,0.0,0.0,0.0,0.0,0.0,0.0,0.0,0.0,0.0,0.0,0.0,0.0,0.0,0.0,0.0,0.0,0.0,0.0,0.0,0.0,0.0,0.0,0.0,0.0,0.0,0.0,0.0,0.0,0.0,0.0,0.0,0.0,0.0,0.0,0.0,0.0,0.0,0.0,0.0,0.0,0.0,0.0,0.0,0.0,0.0,0.0,0.0,0.0,0.0,0.0,0.0,0.0,0.0,0.0,0.0,0.0,0.0,0.0,0.0,0.0,0.0,0.0,0.0,0.0,0.0,0.0,0.0,0.0,0.0,0.0,0.0,0.0,0.0,0.0,0.0,0.0,0.0,0.0,0.0,0.0,0.0,0.0,0.0,0.0,0.0,0.0,0.0,0.0,0.0,0.0,0.0,0.0,0.0,0.0,0.0,0.0,0.0,0.0,0.0,0.0,0.0,0.0,0.0,0.0,0.0,0.0,0.0,0.0,0.0,0.0,0.0,0.0,0.0,0.0,0.0,0.0,0.0,0.0,0.0,0.0,0.0,0.0,0.0,0.0,0.0,0.0,0.0,0.0,0.0,0.0,0.0,0.0,0.0,0.0,0.0,0.0,0.0,0.0,0.0,0.0,0.0,0.0,0.0,0.0,0.0,0.0,0.0,0.0,0.0,0.0,0.0,0.0,0.0,0.0,0.0,0.0,0.0,0.0,0.0,0.0,0.0,0.0,0.0,0.0,0.0,0.0,0.0,0.0,0.0,0.0,0.0,0.0,0.0,0.0,0.0,0.0,0.0,0.0,0.0,0.0,0.0,0.0,0.0,0.0,0.0,0.0,0.0,0.0,0.0,0.0,0.0,0.0,0.0,0.0,0.0,0.0,0.0,0.0,0.0,0.0,0.0,0.0,0.0,0.0,0.0,0.0,0.0,0.0,0.0,0.0,0.0,0.0,0.0,0.0,0.0,0.0,0.0,0.0,0.0,0.0,0.0,0.0,0.0,0.0,0.0,0.0,0.0,0.0,0.0,0.0,0.0,0.0,0.0,0.0,0.0,0.0,0.0,0.0,0.0,0.0,0.0,0.0,0.0,0.0,0.0,0.0,0.0,0.0,0.0,0.0,0.0,0.0,0.0,0.0,0.0,0.0,0.0,0.0,0.0,0.0,0.0,0.0,0.0,0.0,0.0,0.0,0.0,0.0,0.0,0.0,0.0,0.0,0.0,0.0,0.0,0.0,0.0,0.0,0.0,0.0,0.0,0.0,0.0,0.0,0.0,0.0,0.0,0.0,0.0,0.0,0.0,0.0,0.0,0.0,0.0,0.0,0.0,0.0,0.0,0.0,0.0,0.0,0.0,0.0,0.0,0.0,0.0,0.0,0.0,0.0,0.0,0.0,0.0,0.0,0.0,0.0,0.0,0.0,0.0,0.0,0.0,0.0,0.0,0.0,0.0,0.0,0.0,0.0,0.0,0.0,0.0,0.0,0.0,0.0,0.0,0.0,0.0,0.0,0.0,0.0,0.0,0.0,0.0,0.0,0.0,0.0,0.0,0.0,0.0,0.0,0.0,0.0,0.0,0.0,0.0,0.0,0.0,0.0,0.0,0.0,0.0,0.0,0.0,0.0,0.0,0.0,0.0,0.0,0.0,0.0,0.0,0.0,0.0,0.0,0.0,0.0,0.0,0.0,0.0,0.0,0.0,0.0,0.0,0.0,0.0,0.0,0.0,0.0,0.0,0.0,0.0,0.0,0.0,0.0,0.0,0.0,0.0,0.0,0.0,0.0,0.0,0.0,0.0,0.0,0.0,0.0,0.0,0.0,0.0,0.0,0.0,0.0,0.0,0.0,0.0,0.0,0.0,0.0,0.0,0.0,0.0,0.0,0.0,0.0,0.0,0.0,0.0,0.0,0.0,0.0,0.0,0.0,0.0,0.0,0.0,0.0,0.0,0.0,0.0,0.0,0.0,0.0,0.0,0.0,0.0,0.0,0.0,0.0,0.0,0.0,0.0,0.0,0.0,0.0,0.0,0.0,0.0,0.0,0.0,0.0,0.0,0.0,0.0,0.0,0.0,0.0,0.0,0.0,0.0,0.0,0.0,0.0,0.0,0.0,0.0,0.0,0.0,0.0,0.0,0.0,0.0,0.0,0.0,0.0,0.0,0.0,0.0,0.0,0.0,0.0,0.0,0.0,0.0,0.0,0.0,0.0,0.0,0.0,0.0,0.0,0.0,0.0,0.0,0.0,0.0,0.0,0.0,0.0,0.0,0.0,0.0,0.0,0.0,0.0,0.0,0.0,0.0,0.0,0.0,0.0,0.0,0.0,0.0,0.0,0.0,0.0,0.0,0.0,0.0,0.0,0.0,0.0,0.0,0.0,0.0,0.0,0.0,0.0,0.0,0.0,0.0,0.0,0.0,0.0,0.0,0.0,0.0,0.0,0.0,0.0,0.0,0.0,0.0,0.0,0.0,0.0,0.0,0.0,0.0,0.0,0.0,0.0,0.0,0.0,0.0,0.0,0.0,0.0,0.0,0.0,0.0,0.0,0.0,0.0,0.0,0.0,0.0,0.0,0.0,0.0,0.0,0.0,0.0,0.0,0.0,0.0,0.0,0.0,0.0,0.0,0.0,0.0,0.0,0.0,0.0,0.0,0.0,0.0,0.0,0.0,0.0,0.0,0.0,0.0,0.0,0.0,0.0,0.0,0.0,0.0,0.0,0.0,0.0,0.0,0.0,0.0,0.0,0.0,0.0,0.0,0.0,0.0,0.0,0.0,0.0,0.0,0.0,0.0,0.0,0.0,0.0,0.0,0.0,0.0,0.0,0.0,0.0,0.0,0.0,0.0,0.0,0.0,0.0,0.0,0.0,0.0,0.0,0.0,0.0,0.0,0.0,0.0,0.0,0.0,0.0,0.0,0.0,0.0,0.0,0.0,0.0,0.0,0.0,0.0,0.0,0.0,0.0,0.0,0.0,0.0,0.0,0.0,0.0,0.0,0.0,0.0,0.0,0.0,0.0,0.0,0.0,0.0,0.0,0.0,0.0,0.0,0.0,0.0,0.0,0.0,0.0,0.0,0.0,0.0,0.0,0.0,0.0,0.0,0.0,0.0,0.0,0.0,0.0,0.0,0.0,0.0,0.0,0.0,0.0,0.0,0.0,0.0,0.0,0.0,0.0,0.0,0.0,0.0,0.0,0.0,0.0,0.0,0.0,0.0,0.0,0.0,0.0,0.0,0.0,0.0,0.0,0.0,0.0,0.0,0.0,0.0,0.0,0.0,0.0,0.0,0.0,0.0,0.0,0.0,0.0,0.0,0.0,0.0,0.0,0.0,0.0,0.0,0.0,0.0,0.0,0.0,0.0,0.0,0.0,0.0,0.0,0.0,0.0,0.0,0.0,0.0,0.0,0.0,0.0,0.0,0.0,0.0,0.0,0.0,0.0,0.0,0.0,0.0,0.0,0.0,0.0,0.0,0.0,0.0,0.0,0.0,0.0,0.0,0.0,0.0,0.0,0.0,0.0,0.0,0.0,0.0,0.0,0.0,0.0,0.0,0.0,0.0,0.0,0.0,0.0,0.0,0.0,0.0,0.0,0.0,0.0,0.0,0.0,0.0,0.0,0.0,0.0,0.0,0.0,0.0,0.0,0.0,0.0,0.0,0.0,0.0,0.0,0.0,0.0,0.0,0.0,0.0,0.0,0.0,0.0,0.0,0.0,0.0,0.0,0.0,0.0,0.0,0.0,0.0,0.0,0.0,0.0,0.0,0.0,0.0,0.0,0.0,0.0,0.0,0.0,0.0,0.0,0.0,0.0,0.0,0.0,0.0,0.0,0.0,0.0,0.0,0.0,0.0,0.0,0.0,0.0,0.0,0.0,0.0,0.0,0.0,0.0,0.0,0.0,0.0,0.0,0.0,0.0,0.0,0.0,0.0,0.0,0.0,0.0,0.0,0.0,0.0,0.0,0.0,0.0,0.0,0.0,0.0,0.0,0.0,0.0,0.0,0.0,0.0,0.0,0.0,0.0,0.0,0.0,0.0,0.0,0.0,0.0,0.0,0.0,0.0,0.0,0.0,0.0,0.0,0.0,0.0,0.0,0.0,0.0,0.0,0.0,0.0,0.0,0.0,0.0,0.0,0.0,0.0,0.0,0.0,0.0,0.0,0.0,0.0,0.0,0.0,0.0,0.0,0.0,0.0,0.0,0.0,0.0,0.0,0.0,0.0,0.0,0.0,0.0,0.0,0.0,0.0,0.0,0.0,0.0,0.0,0.0,0.0,0.0,0.0,0.0,0.0,0.0,0.0,0.0,0.0,0.0,0.0,0.0,0.0,0.0,0.0,0.0,0.0,0.0,0.0,0.0,0.0,0.0,0.0,0.0,0.0,0.0,0.0,0.0,0.0,0.0,0.0,0.0,0.0,0.0,0.0,0.0,0.0,0.0,0.0,0.0,0.0,0.0,0.0,0.0,0.0,0.0,0.0,0.0,0.0,0.0,0.0,0.0,0.0,0.0,0.0,0.0,0.0,0.0,0.0,0.0,0.0,0.0,0.0,0.0,0.0,0.0,0.0,0.0,0.0,0.0,0.0,0.0,0.0,0.0,0.0,0.0,0.0,0.0,0.0,0.0,0.0,0.0,0.0,0.0,0.0,0.0,0.0,0.0,0.0,0.0,0.0,0.0,0.0,0.0,0.0,0.0,0.0,0.0,0.0,0.0,0.0,0.0,0.0,0.0,0.0,0.0,0.0,0.0,0.0,0.0,0.0,0.0,0.0,0.0,0.0,0.0,0.0,0.0,0.0,0.0,0.0,0.0,0.0,0.0,0.0,0.0,0.0,0.0,0.0,0.0,0.0,0.0,0.0,0.0,0.0,0.0,0.0,0.0,0.0,0.0,0.0,0.0,0.0,0.0,-5.0032,0.0,0.0,0.0,0.0,0.0,0.0,0.0,0.0,0.0,0.0,0.0,0.0,0.0,0.0,0.0,0.0,0.0,0.0,0.0,0.0,0.0,0.0,0.0,0.0,0.0,0.0,0.0,0.0,0.0,0.0,0.0,0.0,0.0,0.0,0.0,0.0,0.0,0.0,0.0,-3.5031,-3.4981,-3.5205,-3.6155,-3.629,-3.591,0.0,0.0,0.0,0.0,0.0,0.0,0.0,0.0,0.0,0.0,0.0,0.0,0.0,0.0,0.0,0.0,0.0,0.0,0.0,0.0,0.0,0.0,0.0,0.0,0.0,0.0,0.0,0.0,0.0,0.0,0.0,0.0,0.0,0.0,0.0,0.0,0.0,0.0,0.0,0.0,0.0,0.0,0.0,0.0,0.0,0.0,0.0,0.0,0.0,0.0,0.0,0.0,0.0,0.0,0.0,0.0,0.0,0.0,0.0,0.0,0.0,0.0,0.0,0.0,0.0,0.0,0.0,0.0,0.0,0.0,0.0,-5.0486,0.0,0.0,0.0,0.0,0.0,0.0,0.0,0.0,0.0,0.0,0.0,0.0,0.0,0.0,0.0,0.0,0.0,0.0,0.0,0.0,0.0,0.0,0.0,0.0,0.0,0.0,0.0,0.0,0.0,0.0,0.0,0.0,0.0,0.0,0.0,0.0,0.0,-3.4984,-3.4604,-3.5245,-3.6827,-3.7,-3.619,-3.4785,-3.5477,0.0,0.0,0.0,0.0,0.0,0.0,0.0,0.0,0.0,0.0,0.0,0.0,0.0,0.0,0.0,0.0,0.0,0.0,0.0,0.0,0.0,0.0,0.0,0.0,0.0,0.0,0.0,0.0,0.0,0.0,0.0,0.0,0.0,0.0,0.0,0.0,0.0,0.0,0.0,0.0,0.0,0.0,0.0,0.0,0.0,0.0,0.0,0.0,0.0,0.0,0.0,0.0,0.0,0.0,0.0,0.0,0.0,0.0,0.0,0.0,0.0,0.0,0.0,-6.3723,-6.4736,-6.551,-6.4712,-6.3032,-6.0534,-5.6957,-5.3905,-5.129,-5.1437,0.0,0.0,0.0,0.0,0.0,0.0,0.0,0.0,0.0,0.0,0.0,0.0,0.0,0.0,0.0,0.0,0.0,0.0,0.0,0.0,0.0,0.0,0.0,0.0,0.0,0.0,0.0,0.0,0.0,0.0,0.0,0.0,0.0,-3.4332,-3.4339,-3.405,-3.4907,-3.6028,-3.7315,-3.7244,-3.7071,-3.6756,-3.5904,-3.5783,-3.5962,0.0,0.0,0.0,0.0,0.0,0.0,0.0,0.0,0.0,0.0,0.0,0.0,0.0,0.0,0.0,0.0,0.0,0.0,0.0,0.0,0.0,0.0,0.0,0.0,0.0,0.0,0.0,0.0,0.0,0.0,0.0,0.0,0.0,0.0,0.0,0.0,0.0,0.0,0.0,0.0,0.0,-4.5946,-4.7732,0.0,0.0,0.0,0.0,0.0,0.0,0.0,0.0,0.0,0.0,0.0,0.0,0.0,-6.114,-6.398,-6.6329,-6.6916,-6.5888,-6.8788,-6.9192,-6.734,-6.7222,-6.698,-6.6524,-6.5994,0.0,-5.3667,-5.3673,0.0,0.0,0.0,0.0,0.0,0.0,0.0,0.0,0.0,0.0,0.0,0.0,0.0,0.0,0.0,0.0,0.0,0.0,0.0,0.0,0.0,0.0,0.0,0.0,0.0,0.0,0.0,0.0,0.0,0.0,0.0,0.0,-3.296,-3.3451,-3.4369,-3.5718,-3.7416,-3.8542,-3.9186,-3.9089,-3.8723,-3.8102,-3.6605,-3.562,-3.5031,-3.3978,0.0,0.0,0.0,0.0,0.0,0.0,0.0,0.0,0.0,0.0,0.0,0.0,0.0,0.0,0.0,0.0,0.0,0.0,0.0,0.0,0.0,0.0,0.0,0.0,0.0,0.0,0.0,0.0,0.0,0.0,0.0,0.0,0.0,0.0,0.0,0.0,0.0,0.0,0.0,-4.6248,-4.8883,-4.8882,-5.0703,-5.1598,0.0,0.0,0.0,0.0,0.0,0.0,0.0,0.0,0.0,-6.2899,-6.4562,-6.5992,-6.732,-6.9743,-7.0807,-7.055,-7.2899,-7.367,-7.3083,-7.2606,-7.2133,-7.1593,-7.1123,-6.7283,-6.1293,-5.891,-5.5918,-5.2605,0.0,0.0,0.0,0.0,-4.8335,-4.9193,0.0,0.0,0.0,0.0,0.0,0.0,0.0,0.0,0.0,0.0,0.0,0.0,0.0,0.0,0.0,-4.1085,0.0,0.0,0.0,0.0,0.0,0.0,0.0,-3.2144,-3.1982,-3.2742,-3.4356,-3.6823,-3.8969,-4.0242,-4.0717,-4.0773,-4.0364,-3.9491,-3.7704,-3.6217,-3.4989,-3.3675,-3.2951,-3.2604,0.0,0.0,0.0,0.0,0.0,0.0,0.0,0.0,0.0,0.0,0.0,0.0,0.0,0.0,0.0,0.0,0.0,0.0,0.0,0.0,0.0,0.0,0.0,0.0,0.0,0.0,0.0,0.0,0.0,0.0,0.0,0.0,0.0,0.0,0.0,0.0,0.0,-4.8853,-5.1565,-5.0408,-5.3757,-5.5322,0.0,0.0,0.0,0.0,0.0,0.0,-6.1218,-6.3789,-6.5928,-6.762,-6.976,-7.1176,-7.1688,-7.3266,-7.4368,-7.4955,-7.5946,-7.6717,-7.7304,-7.668,-7.6042,-7.5357,-7.4675,-7.2257,-6.8339,-6.3569,-5.912,-5.5076,-5.2955,-5.1878,-5.1572,-5.1218,-5.163,-5.2289,0.0,0.0,0.0,0.0,0.0,0.0,0.0,0.0,0.0,0.0,0.0,0.0,0.0,0.0,-4.318,-4.5753,-4.5025,-4.4152,0.0,0.0,0.0,0.0,-3.3135,-3.2128,-3.1643,-3.2496,-3.3935,-3.5839,-3.7813,-3.9688,-4.1452,-4.1501,-4.1505,-4.1334,-3.9597,-3.8114,-3.6874,-3.3479,-3.2478,-3.3005,-3.2583,0.0,0.0,0.0,0.0,0.0,0.0,0.0,0.0,0.0,0.0,0.0,0.0,0.0,0.0,0.0,0.0,0.0,0.0,0.0,0.0,0.0,0.0,0.0,0.0,0.0,0.0,0.0,0.0,0.0,0.0,0.0,0.0,0.0,0.0,0.0,0.0,0.0,0.0,-5.3419,-5.8843,0.0,0.0,0.0,0.0,-5.9264,-6.2234,-6.4362,-6.4985,-6.8178,-7.1011,-7.3193,-7.4882,-7.6864,-7.9213,-7.8589,-7.8295,-7.8332,-7.7598,-7.7268,-7.7304,-7.7268,-7.7206,-7.7169,-7.7133,-7.5478,-7.2431,-6.6246,-6.1803,-5.8817,-5.6539,-5.5724,-5.5758,-5.4907,-5.5009,-5.5451,0.0,0.0,0.0,0.0,0.0,0.0,0.0,0.0,0.0,0.0,0.0,0.0,0.0,-4.3758,-4.604,-4.7177,-4.8296,-4.7413,-4.407,0.0,0.0,0.0,0.0,-3.228,-3.2909,-3.4206,-3.6035,-3.8306,-4.0233,-4.1295,-4.1539,-4.1603,-4.1119,-4.0338,-3.9297,-3.8642,-3.809,-3.5436,-3.369,-3.2916,-3.2711,-3.2472,0.0,0.0,0.0,0.0,0.0,0.0,0.0,0.0,0.0,0.0,0.0,0.0,0.0,0.0,0.0,0.0,0.0,0.0,0.0,0.0,0.0,0.0,0.0,0.0,0.0,0.0,0.0,0.0,0.0,0.0,0.0,0.0,0.0,0.0,0.0,0.0,0.0,-5.8896,-6.4141,0.0,-6.2919,-6.3131,-6.3896,-6.4918,-6.692,-6.8877,-7.0587,-7.3324,-7.5455,-7.679,-7.7892,-7.8883,-7.9764,-8.0021,-7.9617,-7.8589,-7.8809,-7.8332,-7.7304,-7.7304,-7.7304,-7.7243,-7.5891,-7.4262,-7.2183,-6.868,-6.5459,-6.2459,-6.0224,-5.8841,-5.7959,-5.7616,-5.7345,-5.7107,0.0,0.0,0.0,0.0,0.0,0.0,0.0,0.0,0.0,0.0,0.0,-3.9638,-4.2495,-4.6087,-4.8591,-4.9305,-4.9925,-4.8415,-4.4017,0.0,0.0,0.0,-3.2988,-3.2612,-3.3467,-3.5201,-3.7078,-3.8853,-4.0522,-4.1134,-4.0945,-4.0945,-4.0567,-3.9672,-3.932,-3.9145,-3.9044,-3.7362,-3.5517,-3.3731,-3.3434,-3.3649,-3.4156,0.0,0.0,0.0,0.0,0.0,0.0,0.0,0.0,0.0,0.0,0.0,0.0,0.0,0.0,0.0,0.0,0.0,0.0,0.0,0.0,0.0,0.0,0.0,0.0,0.0,0.0,0.0,0.0,0.0,0.0,0.0,0.0,0.0,0.0,0.0,-6.2221,-6.2457,-6.8036,-7.0717,-6.7856,-6.8231,-6.9245,-7.0624,-7.2132,-7.378,-7.5652,-7.7524,-7.8809,-7.9396,-8.0167,-8.0461,-8.0204,-8.0461,-8.0057,-7.8993,-7.8956,-7.8516,-7.7745,-7.7451,-7.7304,-7.7144,-7.5258,-7.3723,-7.2289,-7.0084,-6.7826,-6.5527,-6.3893,-6.248,-6.1394,-6.138,-6.0895,-6.0125,0.0,0.0,0.0,0.0,0.0,0.0,0.0,0.0,0.0,0.0,-3.7475,-4.0501,-4.3856,-4.782,-5.0692,-5.1857,-4.9719,-4.6854,-4.3452,-3.9103,0.0,0.0,0.0,0.0,-3.3194,-3.5511,-3.69,-3.7236,-3.8391,-3.922,-3.9722,-3.9747,-3.9747,-3.9747,-3.9747,-3.9747,-3.9697,-3.917,-3.7775,-3.577,-3.5036,-3.5592,-3.6924,0.0,0.0,0.0,0.0,0.0,0.0,0.0,0.0,0.0,0.0,0.0,0.0,0.0,0.0,0.0,0.0,0.0,0.0,0.0,0.0,0.0,0.0,0.0,0.0,0.0,0.0,0.0,0.0,0.0,0.0,0.0,0.0,0.0,-5.3927,-6.0356,-6.4674,-6.392,-7.041,-7.3392,-6.9596,-7.2753,-7.5359,-7.6166,-7.7745,-7.9029,-7.98,-8.0608,-8.1048,-8.1085,-8.1819,-8.1819,-8.1085,-8.0241,-7.98,-7.9764,-7.8148,-7.7781,-7.8516,-7.7708,-7.7243,-7.7144,-7.5429,-7.4115,-7.2926,-7.0461,-6.8795,-6.7777,-6.7237,-6.663,-6.5982,-6.6039,-6.5514,-6.4339,0.0,0.0,0.0,0.0,0.0,0.0,0.0,0.0,0.0,0.0,-3.7709,-4.0866,-4.2754,-4.6792,-4.9309,-4.8899,-4.6866,-4.4518,-4.1977,0.0,0.0,0.0,0.0,0.0,-3.6006,-3.7132,-3.7937,-3.8417,-3.9923,-4.0526,-4.03,-4.0701,-4.0877,-4.0877,-4.0877,-4.0877,-4.0852,-4.03,-4.053,-4.0913,-3.7997,-3.7111,-3.744,0.0,0.0,0.0,0.0,0.0,0.0,0.0,0.0,0.0,0.0,0.0,0.0,0.0,0.0,0.0,0.0,0.0,0.0,0.0,0.0,0.0,0.0,0.0,0.0,0.0,0.0,0.0,0.0,0.0,0.0,0.0,0.0,-5.6645,-5.7089,-6.2127,-6.6602,-6.8709,-7.2844,-7.5625,-7.5922,-7.6937,-7.7928,-7.8699,-7.9764,-8.0424,-8.0645,-8.1415,-8.215,-8.2737,-8.2406,-8.237,-8.2737,-8.1379,-8.0388,-7.9764,-7.8736,-7.8038,-7.7671,-7.7414,-7.6856,-7.6125,-7.4368,-7.2749,-7.115,-6.9125,-6.781,-6.7015,-6.633,-6.5642,-6.4926,-6.4453,-6.3042,-6.1102,0.0,0.0,0.0,0.0,0.0,0.0,0.0,0.0,0.0,0.0,-3.8127,-4.1198,-4.1864,-4.6073,-4.7969,-4.5741,-4.4228,-4.2053,-3.8768,0.0,0.0,0.0,0.0,-3.578,-3.7839,-3.8668,-3.9346,-3.9898,-4.0877,-4.1178,-4.0877,-4.1178,-4.1329,-4.1329,-4.1329,-4.1329,-4.1329,-4.1588,-4.2488,-4.3546,-4.1653,-4.1055,-4.1184,-3.9966,-3.9755,-4.004,-3.929,-3.917,-3.92,-3.7764,0.0,0.0,0.0,0.0,0.0,0.0,0.0,0.0,0.0,0.0,0.0,0.0,0.0,0.0,0.0,0.0,0.0,0.0,0.0,0.0,0.0,0.0,0.0,0.0,-5.8524,-6.0883,-6.2106,-6.531,-6.8653,-7.1584,-7.4259,-7.6632,-7.8893,-7.9103,-7.958,-8.0718,-8.1232,-8.1489,-8.1489,-8.1929,-8.2406,-8.2884,-8.2443,-8.2113,-8.1893,-8.0975,-8.0094,-7.9286,-7.8442,-7.8002,-7.7855,-7.7039,-7.633,-7.5646,-7.3216,-7.1525,-7.0476,-6.8334,-6.7015,0.0,0.0,0.0,0.0,0.0,-6.2186,-6.0062,0.0,0.0,0.0,0.0,0.0,0.0,0.0,0.0,0.0,0.0,0.0,-4.0885,-4.0716,-4.471,-4.6095,-4.2531,-4.1584,-3.919,0.0,0.0,0.0,-3.4148,-3.6157,-3.7839,-3.9019,-4.0074,-4.0852,-4.1329,-4.1455,-4.1505,-4.143,-4.1555,-4.1605,-4.1605,-4.1681,-4.1681,-4.1713,-4.3049,-4.3963,-4.4553,-4.5295,-4.5844,-4.5933,-4.3509,-4.3269,-4.4047,-4.2821,-4.1384,-3.9948,-3.911,0.0,0.0,0.0,0.0,0.0,0.0,0.0,0.0,0.0,0.0,0.0,0.0,0.0,0.0,0.0,0.0,0.0,0.0,0.0,0.0,0.0,0.0,0.0,0.0,-6.231,-6.5019,-6.7895,-6.9125,-7.0506,-7.2882,-7.4619,-7.6678,-7.9389,-7.97,-8.0498,-8.2223,-8.2333,-8.237,-8.248,0.0,0.0,0.0,0.0,-8.1489,-8.0057,-7.9874,-7.9396,-7.8589,-7.7745,-7.7646,-7.8217,-7.659,-7.5613,-7.5154,-7.1967,-7.0476,-7.0142,-6.7672,-6.6203,-6.5508,-6.6333,-6.665,-6.6305,-6.42,-6.2089,-6.022,0.0,0.0,0.0,0.0,0.0,0.0,0.0,0.0,0.0,-3.2028,-3.6136,-3.8331,-3.6243,-3.9726,-4.1567,-3.9776,-3.7489,-3.5364,0.0,0.0,-3.4374,-3.583,-3.7136,-3.8592,-4.0174,-4.0852,-4.1229,-4.1329,-4.2233,-4.2434,-4.2007,-4.2911,-4.3338,-4.3338,-4.379,-4.374,-4.34,-4.4297,-4.5096,-4.5796,-4.6671,-4.6371,-4.5394,-4.4317,-4.3778,-4.3419,-4.2641,-4.315,-4.3898,-4.2162,-4.2132,-4.2491,-4.083,-3.9354,0.0,0.0,0.0,0.0,0.0,0.0,0.0,0.0,0.0,0.0,0.0,0.0,0.0,0.0,0.0,0.0,0.0,0.0,0.0,-6.3299,-6.5739,-6.7895,-7.0331,-7.0812,-7.1456,-7.2684,-7.3934,-7.5619,-7.8234,-7.9304,-8.0718,-8.2994,-8.3177,-8.3471,-8.4095,-8.3544,-8.3471,-8.4132,-8.2884,-8.2039,-8.1746,-8.0424,-7.9396,-7.8589,0.0,0.0,-7.6348,-7.5963,-7.4547,-7.2434,-7.1166,-6.9748,-6.8302,-6.6592,-6.5121,-6.3937,-6.4143,-6.3849,-6.3101,-6.1401,-6.0517,-5.9973,0.0,0.0,0.0,0.0,0.0,0.0,0.0,0.0,0.0,0.0,-3.4775,-3.6218,-3.4679,-3.7063,-3.8105,-3.6328,-3.4035,0.0,0.0,-3.342,-3.465,-3.6282,-3.7688,-3.9094,-4.0475,-4.1053,-4.148,-4.1756,-4.2559,-4.2836,-4.2585,-4.3413,-4.379,-4.3815,-4.4367,-4.4317,-4.3878,-4.5711,-4.6315,-4.6283,-4.8085,-4.8176,-4.7219,-4.6561,-4.6112,-4.5723,-4.5065,-4.4466,-4.3759,-4.279,-4.2151,-4.1821,-4.0774,-4.0054,-3.9485,0.0,0.0,0.0,0.0,0.0,0.0,0.0,0.0,0.0,0.0,0.0,0.0,0.0,0.0,-5.4765,0.0,0.0,-6.2838,-6.6486,-6.8183,-6.9586,-7.1109,-7.1312,-7.1688,-7.2631,-7.3252,-7.4759,-7.7918,-7.8658,-8.0223,-8.3148,-8.3398,-8.3581,-8.3985,-8.3618,-8.3398,-8.3398,-8.2223,-8.1415,-8.0975,-7.9304,-7.7983,-7.7182,-7.6244,-7.551,-7.5048,-7.4535,-7.335,-7.1654,-7.0354,-6.9084,-6.776,-6.5899,-6.4512,-6.3463,-6.3091,-6.2245,-6.1095,-5.9979,-5.9336,-5.8896,0.0,0.0,0.0,0.0,0.0,0.0,0.0,0.0,0.0,0.0,-3.369,-3.4438,-3.3675,-3.5165,-3.5257,0.0,0.0,0.0,0.0,-3.3445,-3.4851,-3.6609,-3.8191,-3.9546,-4.0651,-4.1103,-4.1706,-4.2484,-4.2911,-4.3187,-4.3313,-4.3865,-4.4141,-4.4141,-4.4694,-4.4593,-4.4169,-4.6921,-4.7377,-4.6578,-4.9303,-5.0032,-4.9374,-4.8716,-4.8386,-4.8177,-4.7108,-4.4905,-4.2449,-4.2224,-4.1108,-3.9917,-3.9952,-4.0227,-4.0484,-3.9902,-3.9869,0.0,0.0,0.0,0.0,0.0,0.0,0.0,0.0,0.0,-5.2285,-5.4544,-5.7051,-5.9587,-6.2021,-6.4075,-6.6302,-6.8876,-6.9925,-7.0635,-7.1244,-7.1312,-7.16,-7.2414,-7.2631,-7.4087,-7.7303,-7.7919,-7.9575,-8.3061,-8.3216,-8.3362,-8.3751,-8.3495,-8.302,-8.2361,-8.141,-8.0458,-7.9471,-7.7764,-7.6409,-7.551,-7.4684,-7.4158,-7.4005,-7.3171,-7.223,-7.1118,-6.9408,-6.8132,-6.7117,-6.5324,-6.4072,-6.3226,-6.2482,-6.1434,-6.025,-5.9505,-5.8761,-5.8084,0.0,0.0,0.0,0.0,0.0,0.0,0.0,0.0,0.0,0.0,0.0,0.0,0.0,0.0,0.0,0.0,0.0,0.0,-3.2918,-3.4022,-3.5579,-3.7739,-3.8969,-4.0124,-4.1229,-4.1304,-4.2082,-4.3614,-4.3689,-4.3966,-4.4443,-4.502,-4.5296,-4.5321,-4.5874,-4.5522,-4.4634,-4.7539,-4.8011,-4.7216,-4.9978,-5.072,-5.0062,-4.9404,-4.8805,-4.8029,-4.5756,-4.3689,-4.2038,-4.1365,-4.1029,-4.0989,-4.1406,-4.1439,-4.122,-4.0962,-3.9783,-3.8639,-3.9106,-4.0912,-4.2825,-4.3613,-4.6301,-4.9561,0.0,0.0,-5.7261,-5.9558,-6.1552,-6.334,-6.4966,-6.6558,-6.8098,-6.9789,-7.0703,-7.121,-7.1312,-7.1312,-7.1312,-7.1457,-7.2279,-7.3469,-7.5297,-7.6886,-7.9293,-8.2792,-8.2707,-8.3227,-8.5034,-8.3732,-8.2901,-8.2828,-8.1418,-7.99,-7.8415,-7.7226,-7.5879,-7.446,-7.431,-7.385,-7.2962,-7.288,-7.1572,-6.9286,-6.7777,-6.6271,-6.4952,-6.4715,-6.3768,-6.2448,-6.1704,-6.1332,-6.1061,-6.0283,-5.9505,-5.8795,0.0,0.0,0.0,0.0,0.0,0.0,0.0,0.0,0.0,0.0,0.0,0.0,0.0,0.0,0.0,0.0,0.0,0.0,-3.2968,-3.3796,-3.5378,-3.7889,-3.8793,-3.9747,-4.0827,-4.1178,-4.1831,-4.2836,-4.3489,-4.3915,-4.4166,-4.507,-4.5497,-4.5497,-4.5723,-4.5994,-4.6498,-4.7731,-4.8534,-4.908,-5.056,-5.084,-5.0122,-4.9105,-4.7788,-4.6326,-4.4696,-4.2731,0.0,0.0,-3.9612,-3.9498,-4.0239,-4.0783,-4.1146,-4.0634,-4.0991,-4.184,-4.3256,-4.4699,-4.6146,-4.7742,-5.1162,-5.4666,-5.6713,-5.9128,-6.1503,-6.3271,-6.5318,-6.7083,-6.8132,-6.918,-7.0094,0.0,-7.1109,-7.1312,-7.1312,-7.0939,-7.05,-7.006,-7.0769,-7.2125,-7.4252,-7.5506,-7.7615,-8.1113,-8.1602,-8.2265,-8.3539,-8.254,-8.1755,-8.1291,-7.9757,-7.8401,-7.7298,-7.5759,-7.4461,-7.3412,-7.2797,-7.2364,-7.1917,-7.1917,-7.0871,-6.9011,-6.7489,-6.5967,-6.4613,-6.4613,-6.3734,-6.2347,-6.2042,-6.14,-6.0554,-6.0216,-5.9641,-5.8964,0.0,0.0,0.0,0.0,0.0,0.0,0.0,0.0,0.0,0.0,0.0,0.0,0.0,0.0,0.0,0.0,0.0,0.0,0.0,-3.3269,-3.4776,-3.7211,-3.8165,-3.9145,-4.0275,-4.0978,-4.1681,-4.2384,-4.3489,-4.4116,-4.4292,-4.5271,-4.5723,-4.5723,-4.5723,-4.632,-4.7483,-4.7893,-4.8817,-5.0022,-5.0603,-5.0451,-4.9523,-4.8027,-4.6232,-4.4355,-4.3278,-4.1053,0.0,0.0,-3.7296,-3.71,-3.8102,-3.9387,-4.0447,-4.0224,-4.1719,-4.3839,-4.5909,-4.7496,-4.9154,-5.1792,-5.5683,-5.9201,-6.0554,-6.2854,-6.5155,-6.6609,-6.8233,-6.9553,-7.0094,-7.0466,-7.077,-7.0973,-7.1007,-7.1075,-7.1278,-7.05,-6.9688,-6.9147,-6.918,-7.0138,-7.2398,-7.3861,-7.6002,-7.9163,-7.9998,-8.0805,-8.159,-8.1098,-8.0465,-7.969,-7.8142,-7.6946,-7.6217,-7.4371,-7.3086,-7.2364,-7.1688,-7.1312,-7.1312,-7.0906,-6.9992,-6.8673,-6.7151,-6.5797,-6.458,-6.4377,-6.3565,-6.2381,-6.2381,-6.1603,-6.0419,-6.0419,-5.9708,-5.8693,0.0,0.0,0.0,0.0,0.0,0.0,0.0,0.0,0.0,0.0,0.0,0.0,0.0,0.0,0.0,0.0,0.0,0.0,0.0,-3.2491,-3.3847,-3.5554,-3.7161,-3.8567,-3.9697,-4.0777,-4.1856,-4.2961,-4.4066,-4.4895,-4.5447,-4.6024,-4.6276,-4.6276,-4.6276,-4.6448,-4.679,-4.8165,-4.8958,-4.9328,-4.9922,-4.9494,-4.8117,-4.6142,-4.4167,-4.2276,-4.0995,0.0,0.0,0.0,-3.4058,-3.4032,-3.5398,-3.7237,0.0,-4.0208,-4.1352,-4.2807,-4.5128,-4.7834,-5.0913,-5.4668,-5.8423,-6.1941,-6.4816,-6.6677,-6.8199,-6.9722,-7.0094,-7.0161,-7.0195,-6.962,-6.9417,-7.0094,-7.0229,-7.0466,-7.121,-7.006,-6.9113,-6.9113,-6.7793,-6.7523,0.0,-7.1875,-7.4662,-7.7232,-7.7887,-7.8586,-7.9692,-7.9658,-7.9311,-7.8549,-7.7077,-7.5897,-7.5134,-7.3386,-7.2113,-7.1312,-7.1312,-7.1312,-7.1278,-6.9823,-6.8707,-6.7861,-6.6373,-6.529,-6.4546,-6.3835,-6.3091,-6.2381,-6.2381,-6.1941,-6.1264,-6.1264,-5.9844,-5.7915,0.0,0.0,0.0,0.0,0.0,0.0,0.0,0.0,0.0,0.0,0.0,0.0,0.0,0.0,0.0,0.0,0.0,0.0,0.0,-3.1738,-3.2692,-3.4374,-3.568,-3.7061,-3.8542,-3.9672,-4.0777,-4.1882,-4.2986,-4.3639,-4.384,-4.4769,-4.5196,-4.5171,-4.5808,-4.679,-4.8191,-4.8369,-4.9519,-5.1047,-4.9073,-4.8027,-4.7309,-4.4436,-4.1833,-3.9546,0.0,0.0,0.0,-3.4089,-3.3755,-3.403,-3.4851,-3.6313,-3.8322,-4.1313,-4.3628,-4.5974,-4.9221,-5.2604,-5.619,-5.9945,-6.3294,-6.6203,-6.8199,-6.9451,-7.0161,-7.0195,-6.9383,-6.8504,-6.803,-6.6948,-6.6677,-6.8402,-6.8673,-6.9282,-7.1075,-7.0466,-6.9248,-6.776,-6.803,0.0,0.0,0.0,0.0,-7.5344,-7.6639,-7.7629,-7.8552,-7.8586,-7.8006,-7.6709,-7.5686,-7.456,-7.3331,-7.2678,-7.2022,-7.1312,-7.0804,-7.0567,-7.0534,-6.9011,-6.8166,-6.7827,-6.6339,-6.5256,-6.4546,-6.3802,-6.3057,-6.2381,-6.2381,-6.1603,-6.052,-6.052,-5.9404,-5.7949,0.0,0.0,0.0,0.0,0.0,0.0,0.0,0.0,0.0,0.0,0.0,0.0,0.0,0.0,0.0,0.0,0.0,0.0,0.0,0.0,-3.1687,-3.2943,-3.4248,-3.5554,-3.681,-3.8115,-3.9145,-3.9848,-4.0978,-4.1605,-4.1831,-4.2735,-4.3462,-4.4061,-4.4639,-4.6139,-4.8154,-4.7641,-4.8588,-5.0212,-4.7369,-4.5963,-4.5185,-4.1863,-3.9379,0.0,0.0,0.0,0.0,-3.3698,-3.348,-3.3847,-3.4691,-3.6603,-3.9249,-4.317,-4.5866,-4.8578,-5.3078,-5.6664,-6.008,-6.4072,-6.6914,-6.9045,-7.0297,-7.077,-7.0534,-6.9248,-6.7471,-6.5766,-6.4566,-6.283,-6.2358,-6.4667,-6.5121,-6.617,-6.9282,-6.8842,-6.8064,-6.7692,-6.7793,-6.7827,0.0,0.0,0.0,-7.3612,-7.5236,-7.6284,-7.6758,-7.7029,-7.6589,-7.5337,-7.4356,-7.3375,-7.2428,-7.2157,-7.1785,-7.1312,-7.0534,-7.006,-6.9755,-6.847,-6.7624,-6.7049,-6.5831,-6.4884,-6.414,-6.3429,-6.2821,-6.2347,-6.211,-6.1231,-6.008,-5.981,-5.893,-5.7915,0.0,0.0,0.0,0.0,0.0,0.0,0.0,0.0,0.0,0.0,0.0,0.0,0.0,0.0,0.0,0.0,0.0,0.0,0.0,0.0,0.0,-3.1286,-3.2893,-3.4022,-3.4575,-3.6182,-3.7036,-3.7061,-3.8165,-3.8969,-3.9496,-4.0049,-4.118,-4.276,-4.2863,-4.433,-4.6661,-4.6125,-4.6398,-4.692,-4.4855,-4.3269,-4.1863,-3.8512,0.0,0.0,0.0,0.0,0.0,-3.3111,-3.3308,-3.3805,-3.5117,-3.8124,-4.1862,-4.5707,-4.8051,-5.0744,-5.6596,-5.9911,-6.2719,-6.7015,-6.9147,-7.0432,-7.1109,-7.0635,-6.9417,-6.7032,-6.4487,-6.2038,0.0,0.0,-5.6936,-5.9371,-6.003,-6.1806,-6.6237,-6.5764,-6.5967,0.0,0.0,0.0,0.0,0.0,0.0,-7.236,0.0,-7.4661,-7.4728,-7.5337,-7.5337,-7.4593,-7.3138,-7.2394,-7.2326,-7.165,-7.1312,-7.1312,-7.05,-6.9755,-6.9079,-6.8233,-6.7049,-6.5662,-6.4918,-6.4174,-6.3463,-6.2685,-6.2381,-6.2245,-6.1569,-6.0791,-5.9945,-5.9268,-5.8524,-5.7712,0.0,0.0,0.0,0.0,0.0,0.0,0.0,0.0,0.0,0.0,0.0,0.0,0.0,0.0,0.0,0.0,0.0,0.0,0.0,0.0,0.0,0.0,0.0,0.0,0.0,0.0,0.0,-3.5353,-3.6056,-3.6458,-3.6609,-3.7379,-3.8069,-3.8843,-4.0106,-4.1266,-4.2363,-4.2927,-4.353,-4.4077,0.0,-4.0008,-3.9798,0.0,0.0,0.0,0.0,0.0,0.0,-3.3315,-3.5496,-3.8372,-3.986,-4.2512,-4.5799,-4.9029,-5.2706,-5.6562,-6.0892,-6.4546,-6.7658,-6.9891,-7.0737,-7.0939,-7.0567,-6.9451,-6.7487,-6.3985,-6.0812,-5.7963,-5.5545,0.0,0.0,-5.7863,-6.0504,0.0,-6.6895,-6.8688,0.0,-6.9147,-6.9553,-6.9891,-6.9925,-7.1413,0.0,0.0,-7.439,-7.51,-7.6251,-7.5912,-7.51,-7.3815,-7.2868,-7.2157,-7.1616,-7.1413,-7.1312,-7.1312,-6.9992,-6.9282,-6.9045,-6.7692,-6.6576,-6.5662,-6.4918,-6.4174,-6.3463,-6.2685,-6.2076,-6.1569,-6.1366,-6.0486,-5.9268,-5.9099,-5.8186,-5.7036,0.0,0.0,0.0,0.0,0.0,0.0,0.0,0.0,0.0,0.0,0.0,0.0,0.0,0.0,0.0,0.0,0.0,0.0,0.0,0.0,0.0,0.0,0.0,0.0,0.0,0.0,0.0,0.0,0.0,0.0,-3.4098,-3.4578,-3.548,-3.663,-3.7533,-3.8639,-3.9917,-3.99,0.0,0.0,0.0,0.0,0.0,0.0,0.0,0.0,0.0,0.0,0.0,0.0,0.0,-4.2385,-4.4875,-4.7443,-5.0375,-5.4059,-5.7374,-6.0689,-6.441,-6.7455,-6.9857,-7.1007,-7.1312,-7.0939,-6.9431,-6.7502,-6.4791,-6.0156,-5.6393,-5.3123,-5.0514,-4.9505,-5.0098,0.0,0.0,0.0,-6.4987,-6.7719,-6.9519,0.0,-7.0804,0.0,-7.1176,-7.2868,-7.4424,0.0,-7.5303,-7.5473,-7.6318,-7.5642,-7.4695,-7.351,-7.2766,-7.2056,-7.1312,-7.1312,-7.1142,-7.0804,-6.9654,-6.891,-6.8504,-6.7015,-6.5899,-6.5155,0.0,-6.3531,-6.2516,-6.2076,-6.1467,-6.0757,-6.0419,-5.9776,-5.8964,-5.866,-5.778,-5.6765,0.0,0.0,0.0,0.0,0.0,0.0,0.0,0.0,0.0,0.0,0.0,0.0,0.0,0.0,0.0,0.0,0.0,0.0,0.0,0.0,0.0,0.0,0.0,0.0,0.0,0.0,0.0,0.0,0.0,0.0,0.0,0.0,0.0,0.0,0.0,0.0,0.0,0.0,0.0,0.0,0.0,0.0,0.0,0.0,0.0,0.0,0.0,0.0,0.0,0.0,-4.3965,-4.6129,-4.9573,-5.2401,-5.5209,-5.9438,-6.1704,-6.3599,-6.7218,-6.9316,-7.0601,-7.1176,-7.1244,-7.0445,-6.7873,-6.5042,-6.1432,-5.5831,-5.1629,-4.812,-4.5479,-4.4687,-4.5532,-4.8541,0.0,-5.7219,-6.2022,-6.5139,-6.8046,-7.0973,-7.1481,-7.1853,-7.2496,-7.3984,-7.5377,-7.6564,-7.6154,-7.5912,-7.598,-7.5202,-7.4322,-7.3375,-7.2631,-7.1954,-7.1312,-7.1312,-7.0939,-7.0195,-6.9451,-6.8673,-6.7861,-6.6373,-6.529,-6.4546,-6.3734,0.0,-6.1298,-6.1197,-6.0689,-5.9911,-5.9268,-5.8964,-5.8795,-5.8118,-5.7374,-5.6596,0.0,0.0,0.0,0.0,0.0,0.0,0.0,0.0,0.0,0.0,-3.008,0.0,0.0,0.0,0.0,0.0,0.0,0.0,0.0,0.0,0.0,0.0,0.0,0.0,0.0,0.0,0.0,0.0,0.0,0.0,0.0,0.0,0.0,0.0,0.0,0.0,0.0,0.0,0.0,0.0,0.0,0.0,0.0,0.0,0.0,0.0,0.0,-3.7001,-3.9761,-4.3723,-4.6974,-4.9859,-5.2842,-5.619,-5.9607,-6.2854,-6.4444,-6.5797,-6.8944,-7.0872,-7.1887,-7.1447,-7.0838,-6.9532,-6.6287,-6.213,0.0,-5.1544,-4.7421,-4.425,-4.216,-4.2116,-4.3631,-4.7328,-5.1948,-5.6726,-6.1429,-6.5413,-6.8629,0.0,-7.2394,-7.3172,-7.3274,-7.5236,0.0,0.0,-7.6104,-7.6961,-7.757,-7.6284,-7.4627,-7.2665,-7.1887,-7.1447,-7.1312,-7.1312,-7.0939,-7.0195,-6.9451,-6.8673,-6.7861,-6.6373,-6.529,-6.4512,-6.3159,0.0,-6.1264,-6.0588,-5.9877,-5.9201,-5.9066,-5.8626,-5.8084,-5.7949,-5.7036,-5.5987,0.0,0.0,0.0,0.0,0.0,0.0,0.0,0.0,0.0,0.0,-3.121,-3.0834,0.0,0.0,0.0,0.0,0.0,0.0,0.0,0.0,0.0,0.0,0.0,0.0,0.0,0.0,-2.9804,-2.9804,0.0,0.0,0.0,-3.0318,0.0,0.0,0.0,0.0,0.0,0.0,0.0,0.0,0.0,0.0,0.0,0.0,0.0,0.0,0.0,0.0,-4.0385,-4.4152,-4.7458,-5.066,-5.4828,-5.8788,-6.2381,-6.4821,-6.6187,-6.7489,-7.0534,-7.1582,-7.1853,-7.1853,-7.0432,-6.7926,-6.4053,0.0,0.0,-4.7988,-4.4008,-4.1069,-3.9703,-4.0161,0.0,-4.5125,-5.0073,-5.5037,-5.9531,-6.4293,-6.7978,-6.9936,-7.2161,-7.3029,-7.1961,-7.4237,-7.4966,-7.312,0.0,-7.5558,-7.6274,-7.5157,-7.3883,-7.2462,-7.1684,-7.1312,-7.1312,-7.0939,-7.0364,-6.962,-6.847,-6.7489,-6.6711,-6.5222,-6.4377,-6.3971,-6.2854,0.0,-6.0655,-6.025,-5.9438,-5.8423,-5.8423,-5.7983,-5.734,-5.734,-5.6393,-5.5175,0.0,0.0,0.0,0.0,0.0,0.0,0.0,-3.116,-3.1763,-3.2315,-3.2591,-3.234,-3.126,-3.0834,-3.0432,0.0,0.0,0.0,0.0,0.0,0.0,0.0,0.0,0.0,0.0,0.0,0.0,-2.9804,-2.9804,0.0,0.0,0.0,0.0,0.0,-3.2138,0.0,0.0,0.0,0.0,0.0,0.0,0.0,0.0,0.0,0.0,0.0,0.0,0.0,-4.0657,0.0,-4.6602,-4.9687,-5.4079,-5.8724,-6.2906,-6.4924,-6.6436,-6.8128,-7.095,-7.1555,-7.1362,-7.1858,-6.9524,-6.5955,-6.148,-5.5922,-5.0293,-4.5033,-4.1186,-3.8507,-3.7788,-3.8409,-3.9919,0.0,-4.7105,-5.1905,-5.6557,-6.1736,-6.5805,0.0,-7.0822,0.0,-7.0239,-7.2466,0.0,-7.1201,0.0,0.0,-7.4352,-7.3569,-7.2827,-7.2428,-7.1684,-7.1312,-7.1312,-7.0567,-6.9823,-6.9079,-6.7692,-6.6576,-6.5662,-6.4343,-6.3666,-6.3463,-6.255,0.0,0.0,-5.9945,-5.9099,-5.7881,-5.7712,-5.7306,-5.6799,-5.663,-5.5716,-5.46,0.0,0.0,0.0,0.0,0.0,0.0,0.0,-3.1486,-3.234,-3.2918,-3.3872,-3.4073,-3.2968,-3.1512,-3.0608,0.0,0.0,0.0,0.0,0.0,0.0,0.0,0.0,0.0,0.0,0.0,0.0,-2.9804,-2.9804,0.0,0.0,0.0,0.0,0.0,0.0,-3.2815,-3.3644,0.0,0.0,0.0,0.0,0.0,0.0,0.0,0.0,0.0,0.0,0.0,0.0,0.0,0.0,-4.6943,-4.8298,-5.3606,-5.9743,-6.1874,0.0,0.0,-6.897,-7.0466,-7.1161,-7.0631,-6.7491,-6.3322,-5.8844,0.0,-4.6799,-4.2816,-3.9253,-3.6863,-3.67,-3.6723,-3.7541,-3.9737,-4.2727,-4.6806,-5.2354,-5.6947,-6.1154,-6.5058,0.0,0.0,-6.939,-7.0803,0.0,0.0,0.0,0.0,-7.3562,-7.2348,-7.1778,-7.2428,-7.1684,-7.1312,-7.1312,-7.0567,-6.9823,-6.9079,-6.8233,-6.7049,-6.5662,-6.4884,-6.414,-6.3429,-6.2009,0.0,0.0,-5.9404,-5.8626,-5.7814,-5.7171,-5.6867,-5.6731,-5.6055,-5.5277,-5.46,0.0,0.0,0.0,0.0,0.0,0.0,0.0,-3.1512,-3.2416,-3.2993,-3.3746,-3.4048,-3.3621,-3.2089,-3.0959,0.0,0.0,0.0,0.0,0.0,0.0,0.0,0.0,0.0,0.0,0.0,0.0,-3.0011,-3.0011,0.0,0.0,0.0,0.0,0.0,0.0,-3.3725,-3.4354,0.0,0.0,0.0,0.0,0.0,0.0,0.0,0.0,0.0,0.0,0.0,-4.0067,0.0,0.0,0.0,-4.439,-4.7359,0.0,0.0,-6.0098,-6.3146,-6.6126,-6.8172,-6.9329,-6.914,-6.5642,-6.1055,-5.6842,0.0,-4.4497,-4.0839,-3.7916,-3.6045,-3.5944,-3.5908,-3.6454,-3.8189,-4.0504,0.0,-4.7794,-5.2005,-5.6325,-6.1019,-6.437,0.0,0.0,0.0,-6.9246,0.0,0.0,0.0,-6.8965,-6.9375,-6.9477,-6.9256,-6.8961,-6.925,-7.0043,-6.8097,-6.7372,-6.7845,-6.5,-6.3715,-6.3881,-6.2716,-6.2379,-6.2787,-6.1738,0.0,0.0,-5.9302,-5.8558,-5.7814,-5.7103,-5.6528,-5.6055,-5.531,-5.4566,-5.3923,0.0,0.0,0.0,0.0,0.0,0.0,-3.0407,-3.1386,-3.2164,-3.2742,-3.3445,-3.3847,-3.3671,-3.2441,-3.1411,-3.0884,0.0,0.0,0.0,0.0,0.0,0.0,0.0,0.0,0.0,0.0,0.0,-3.0216,-3.0292,-3.0596,0.0,0.0,-3.22,-3.2818,0.0,0.0,0.0,0.0,0.0,0.0,0.0,0.0,0.0,0.0,0.0,0.0,0.0,0.0,0.0,0.0,0.0,0.0,0.0,-4.2073,-4.4197,0.0,-5.5837,-5.9767,-6.3002,-6.5504,-6.7367,-6.7663,-6.3742,-5.875,0.0,0.0,-4.2839,-3.9564,-3.7171,-3.5589,-3.5489,-3.5519,-3.5914,-3.7158,0.0,-4.1264,-4.4499,-4.8438,-5.2683,0.0,0.0,-6.2973,0.0,-6.7243,0.0,0.0,0.0,0.0,-6.5412,-6.6246,-6.687,-6.7196,-6.7164,-6.7673,-6.8601,-6.6287,-6.5577,-6.6413,-6.2901,-6.1579,-6.2166,-6.0729,-6.0754,-6.1803,-6.0478,0.0,0.0,-5.8968,-5.8261,-5.7814,-5.6867,-5.6156,-5.5581,-5.4634,-5.3957,-5.3518,0.0,0.0,0.0,0.0,0.0,0.0,0.0,-3.106,-3.1587,-3.2139,-3.3194,-3.3696,-3.3144,-3.2566,-3.1989,-3.1436,0.0,0.0,0.0,0.0,0.0,0.0,0.0,0.0,0.0,0.0,0.0,0.0,0.0,0.0,-3.1809,-3.2173,-3.2889,-3.3796,0.0,0.0,0.0,0.0,0.0,0.0,0.0,0.0,0.0,0.0,0.0,0.0,0.0,0.0,0.0,0.0,0.0,0.0,0.0,-3.8465,-3.988,-4.5881,-5.1599,-5.664,-5.9523,-6.2643,-6.5297,-6.6058,-6.1615,-5.6329,0.0,0.0,-4.167,-3.9244,-3.7,-3.5519,-3.5519,-3.5519,-3.5729,-3.6387,-3.7584,0.0,-4.294,-4.68,-5.0603,0.0,0.0,-5.868,-6.269,-6.5443,0.0,0.0,0.0,0.0,-6.4036,-6.3408,-6.4432,-6.7061,-6.7164,-6.7164,-6.7164,-6.5788,-6.5116,-6.5084,-6.294,-6.1564,-6.0828,-5.9511,-5.9522,0.0,0.0,0.0,0.0,-5.8163,-5.7586,-5.7746,-5.6292,-5.5716,-5.5547,-5.4059,-5.3518,-5.3518,0.0,0.0,0.0,0.0,0.0,0.0,0.0,-3.0507,-3.0909,-3.1085,-3.1738,-3.2114,-3.1938,-3.1436,-3.106,-3.0884,0.0,0.0,0.0,0.0,0.0,0.0,0.0,0.0,0.0,0.0,0.0,0.0,0.0,0.0,0.0,0.0,-3.352,-3.4264,-3.4601,0.0,0.0,0.0,0.0,0.0,0.0,0.0,0.0,0.0,0.0,0.0,0.0,0.0,0.0,0.0,0.0,0.0,0.0,0.0,0.0,-4.0173,-4.4983,-5.0105,-5.2732,-5.5789,-5.8395,-5.8607,-5.5882,-5.2336,-4.9584,0.0,-4.0397,-3.8252,-3.6603,-3.5519,-3.5519,-3.5519,-3.5998,-3.7554,-3.8512,0.0,0.0,0.0,0.0,-5.2336,-5.8141,-6.2839,0.0,0.0,0.0,0.0,0.0,0.0,-6.3408,-6.3169,-6.3478,-6.4432,-6.4401,-6.4597,-6.5114,-6.3241,-6.2346,-6.2386,-5.9888,-5.8529,-5.8217,-5.7339,-5.7254,0.0,0.0,0.0,0.0,-5.5781,-5.5319,-5.5946,-5.4449,-5.3884,-5.3856,-5.3617,-5.3518,-5.3518,0.0,0.0,0.0,0.0,0.0,0.0,0.0,-3.008,-3.0306,-3.0306,-3.0758,-3.111,-3.111,-3.0809,-3.0608,-3.0608,0.0,0.0,0.0,0.0,0.0,0.0,0.0,0.0,0.0,0.0,0.0,0.0,0.0,0.0,0.0,0.0,0.0,0.0,-3.5318,0.0,0.0,0.0,0.0,0.0,0.0,0.0,-3.6037,0.0,0.0,0.0,0.0,0.0,0.0,0.0,0.0,0.0,0.0,0.0,0.0,0.0,-4.0004,-4.3908,-4.7369,-5.078,-5.3384,-5.3623,-5.1708,0.0,0.0,0.0,-3.9469,-3.7464,-3.6237,-3.5519,-3.5519,-3.5699,-3.6357,-3.7793,-3.8601,0.0,0.0,0.0,0.0,-5.3084,0.0,0.0,0.0,0.0,0.0,0.0,0.0,0.0,-6.3109,-6.3079,-6.3079,-6.3079,-6.2839,-6.2905,-6.3391,-6.1338,-6.0343,-6.0359,-5.7872,-5.6576,-5.6317,-5.5398,-5.5194,0.0,0.0,0.0,0.0,-5.3515,-5.3198,-5.4162,-5.2911,-5.2679,-5.295,-5.2894,-5.3179,-5.3518,0.0,0.0,0.0,0.0,0.0,0.0,0.0,0.0,0.0,0.0,-3.0231,-3.0557,-3.0557,-3.0557,-3.0557,0.0,0.0,0.0,0.0,0.0,0.0,0.0,0.0,0.0,0.0,0.0,0.0,-3.2874,-3.389,-3.5024,-3.623,0.0,0.0,0.0,0.0,0.0,0.0,0.0,0.0,0.0,0.0,0.0,0.0,0.0,0.0,0.0,0.0,0.0,0.0,0.0,0.0,0.0,0.0,0.0,0.0,0.0,0.0,0.0,0.0,-4.71,-4.9793,-5.0481,-4.8745,-4.6381,-4.4466,0.0,0.0,-3.6866,-3.5968,-3.5519,-3.5579,-3.6058,-3.6716,-3.7494,0.0,0.0,0.0,-4.6082,0.0,0.0,-6.0416,0.0,0.0,0.0,0.0,0.0,0.0,0.0,-6.3109,-6.3079,-6.3049,-6.3019,-6.2331,-6.1942,-6.1942,-6.0057,-5.9039,-5.886,-5.7004,-5.5718,-5.4999,-5.3653,-5.3274,0.0,0.0,0.0,0.0,-5.1465,-5.1434,-5.2349,-5.1645,-5.19,-5.2663,-5.2079,-5.2557,-5.3416,0.0,0.0,0.0,0.0,0.0,0.0,0.0,0.0,0.0,0.0,0.0,-2.998,-2.998,-2.998,0.0,0.0,0.0,0.0,0.0,0.0,0.0,0.0,0.0,0.0,0.0,0.0,0.0,-3.3496,-3.482,-3.6043,-3.7259,-3.7504,0.0,0.0,0.0,0.0,0.0,0.0,0.0,0.0,0.0,0.0,0.0,0.0,0.0,0.0,-3.6723,-3.6662,0.0,0.0,0.0,0.0,0.0,0.0,0.0,0.0,-3.6207,-3.6956,-3.8212,0.0,-4.3748,-4.4885,-4.3958,-4.2521,0.0,-3.9529,-3.7614,-3.6686,-3.5968,-3.5669,-3.6178,-3.6387,0.0,0.0,0.0,0.0,-4.5214,0.0,0.0,-5.8082,-6.2061,-6.4306,0.0,0.0,0.0,0.0,0.0,-6.3737,-6.3109,-6.3079,-6.2839,-6.2331,-6.1164,-6.0565,-6.0565,-5.9578,-5.8351,-5.6855,-5.5897,-5.482,-5.3593,-5.2276,-5.1476,0.0,0.0,0.0,-5.1434,-4.9652,-4.9518,-5.0485,-4.9715,-4.9595,-4.9963,-5.1369,-5.2065,-5.2383,0.0,0.0,0.0,0.0,0.0,0.0,0.0,0.0,0.0,0.0,0.0,0.0,0.0,0.0,0.0,0.0,0.0,0.0,0.0,0.0,0.0,0.0,0.0,0.0,0.0,0.0,0.0,0.0,0.0,-3.7434,0.0,0.0,0.0,0.0,0.0,0.0,0.0,0.0,0.0,0.0,-3.5519,0.0,0.0,0.0,0.0,0.0,-3.6289,-3.6226,0.0,-3.5879,-3.5782,-3.5589,0.0,0.0,0.0,0.0,-3.5759,-3.6178,-3.6746,-3.8422,-4.0187,-4.0876,-4.0516,-3.9828,-3.917,-3.7973,-3.6806,-3.6178,-3.5998,-3.6058,-3.6417,-3.7225,0.0,0.0,-4.1504,0.0,0.0,0.0,-5.7004,-5.9279,-6.2002,0.0,0.0,0.0,0.0,0.0,0.0,-6.3438,-6.3109,-6.278,-6.2331,-6.1672,-6.0326,-5.9638,-5.9638,-5.8381,-5.7064,-5.5718,-5.5059,-5.3892,-5.2247,-5.1528,-5.0541,0.0,0.0,0.0,-4.9194,-4.82,-4.8222,-4.8645,-4.8279,-4.8377,-4.8973,-5.0627,-5.1525,-5.2065,0.0,0.0,0.0,0.0,0.0,0.0,0.0,0.0,0.0,0.0,0.0,0.0,0.0,0.0,0.0,0.0,0.0,0.0,0.0,0.0,0.0,0.0,0.0,0.0,0.0,0.0,0.0,0.0,0.0,0.0,0.0,0.0,-3.9926,0.0,0.0,0.0,0.0,0.0,0.0,0.0,-3.5519,0.0,0.0,0.0,0.0,0.0,0.0,0.0,0.0,-3.5688,-3.5589,-3.5519,-3.5519,0.0,0.0,0.0,0.0,0.0,-3.6956,-3.7734,-3.8302,-3.8482,-3.8482,-3.8242,-3.7674,-3.7075,-3.6477,-3.5908,-3.6237,-3.6686,-3.6896,-3.8362,0.0,0.0,0.0,0.0,-4.9942,-5.4251,-5.7752,-5.9967,0.0,0.0,0.0,0.0,0.0,0.0,0.0,-6.3019,-6.2929,-6.2301,-6.1583,-6.0835,-5.9398,-5.862,-5.8501,-5.6855,-5.5628,-5.488,-5.4102,-5.2875,-5.1199,-5.09,-4.9853,-4.8267,0.0,0.0,-4.7309,-4.7309,-4.7309,-4.7309,-4.7309,-4.7849,-4.8677,-4.9773,-5.0779,-5.1849,0.0,0.0,0.0,0.0,0.0,0.0,0.0,0.0,0.0,0.0,0.0,0.0,0.0,0.0,0.0,0.0,0.0,0.0,0.0,0.0,0.0,0.0,0.0,0.0,0.0,0.0,0.0,0.0,0.0,0.0,-4.1219,-4.0674,-3.9161,-3.6985,0.0,0.0,-3.5001,-3.5359,-3.5519,-3.5519,-3.5519,0.0,0.0,0.0,0.0,0.0,0.0,0.0,0.0,-3.5554,-3.5489,-3.5519,-3.5519,0.0,0.0,0.0,0.0,0.0,-3.6417,-3.7075,-3.7823,-3.896,-3.8811,-3.8362,-3.8272,-3.7734,-3.7225,-3.7135,-3.7195,-3.7614,0.0,-3.9679,-4.0636,0.0,0.0,-5.084,0.0,0.0,-6.0505,-6.0894,0.0,0.0,0.0,0.0,0.0,0.0,0.0,-6.2839,-6.2271,-6.1613,-6.0685,-5.9458,-5.7603,-5.6346,-5.5807,-5.5478,-5.473,-5.3473,-5.2247,-5.1528,-5.1169,-4.9494,-4.8566,-4.8267,0.0,-4.7399,-4.7309,-4.7309,-4.7309,-4.7309,-4.7309,-4.7366,-4.7679,-4.8677,-4.9694,-5.093,0.0,0.0,0.0,0.0,0.0,0.0,0.0,0.0,0.0,0.0,0.0,0.0,0.0,0.0,0.0,0.0,0.0,0.0,0.0,0.0,0.0,0.0,0.0,0.0,0.0,0.0,0.0,0.0,0.0,-3.9669,-4.1396,-4.0718,-3.9109,-3.6912,0.0,-3.5769,-3.4935,-3.5359,-3.5519,-3.5519,0.0,0.0,0.0,0.0,0.0,0.0,0.0,0.0,0.0,0.0,-3.5519,-3.5519,-3.5519,0.0,0.0,0.0,0.0,0.0,-3.6716,-3.7195,-3.7734,-3.908,-3.8901,-3.8482,-3.8871,-3.8422,-3.8033,-3.8422,-3.8781,0.0,0.0,0.0,-4.4047,-4.716,0.0,-5.4281,-5.6735,-5.877,-6.0146,0.0,0.0,0.0,0.0,0.0,0.0,0.0,0.0,0.0,-6.1613,-6.0595,-5.9398,-5.8052,-5.6466,-5.482,-5.3054,-5.3054,-5.2725,-5.2127,-5.1498,-5.0661,-4.9613,-4.8686,-4.8087,-4.7728,0.0,-4.7309,-4.7309,-4.7309,-4.7309,-4.7309,-4.7309,-4.7309,-4.7452,-4.846,-4.9599,-5.079,0.0,0.0,0.0,0.0,0.0,0.0,0.0,0.0,0.0,0.0,0.0,0.0,0.0,0.0,0.0,0.0,0.0,0.0,0.0,0.0,0.0,0.0,0.0,0.0,0.0,0.0,-3.5189,-3.699,-3.8198,-3.9619,-4.1159,-4.0399,-3.8977,0.0,0.0,0.0,-3.5001,-3.5359,-3.5519,-3.5519,0.0,0.0,0.0,0.0,0.0,0.0,0.0,0.0,0.0,0.0,0.0,0.0,0.0,0.0,0.0,-3.5519,-3.5519,-3.5759,-3.6798,-3.7216,-3.7635,-3.8758,-3.8949,-3.905,-3.9738,-3.9709,-3.9738,-4.0427,-4.1085,0.0,0.0,-4.4676,0.0,-5.2187,-5.4999,-5.6855,-5.7483,-5.8979,0.0,0.0,0.0,0.0,0.0,0.0,0.0,0.0,0.0,0.0,-6.0685,-5.9219,-5.7872,-5.6675,-5.5089,-5.3294,-5.1229,-5.09,-5.075,-5.075,-5.0601,-4.9733,-4.8267,-4.8117,-4.7698,-4.707,-4.707,-4.698,-4.683,-4.683,-4.692,-4.707,-4.689,-4.683,-4.7001,-4.8152,-4.9124,-5.004,0.0,0.0,0.0,0.0,0.0,0.0,0.0,0.0,0.0,0.0,0.0,0.0,0.0,0.0,0.0,0.0,0.0,0.0,0.0,0.0,0.0,0.0,0.0,0.0,0.0,-3.367,-3.5063,-3.6248,-3.846,-3.9766,-4.0138,-3.9701,-3.8415,-3.6532,0.0,-3.6006,-3.5228,-3.5424,-3.5519,-3.5519,-3.5519,0.0,0.0,0.0,0.0,0.0,0.0,0.0,0.0,0.0,0.0,0.0,0.0,0.0,-3.5519,-3.5519,-3.5519,-3.5603,-3.6127,-3.6684,-3.7267,-3.7836,-3.9162,-4.0427,-4.1085,-4.2132,-4.318,-4.3838,-4.4496,-4.5155,0.0,-4.8117,-5.099,-5.4431,-5.6675,0.0,0.0,0.0,0.0,0.0,0.0,0.0,0.0,0.0,0.0,0.0,0.0,0.0,-5.9279,-5.7423,-5.6047,-5.5359,-5.2845,-5.1409,-5.1229,-5.0002,-4.9404,-4.9404,-4.8805,-4.8416,-4.8267,-4.7668,-4.701,-4.6381,-4.6381,-4.6022,-4.5424,-4.5424,-4.5813,-4.6322,-4.5693,-4.5424,-4.568,-4.7261,-4.7605,-4.7572,0.0,0.0,0.0,0.0,0.0,0.0,0.0,0.0,0.0,0.0,0.0,0.0,0.0,0.0,0.0,0.0,0.0,0.0,0.0,0.0,0.0,0.0,0.0,-3.0931,-3.15,-3.3169,-3.4982,-3.7037,-3.9289,-4.0178,-3.9908,-3.9759,0.0,0.0,0.0,-3.6143,-3.5228,-3.5424,-3.5519,-3.5519,-3.5519,-3.5519,0.0,0.0,0.0,0.0,0.0,0.0,0.0,0.0,-3.5519,-3.5519,0.0,-3.5519,-3.5489,-3.5359,-3.5294,-3.5377,-3.5731,-3.631,-3.6887,-3.7244,-3.8964,-4.1008,-4.2624,-4.4393,-4.5824,-4.6651,-4.7938,-4.9075,-4.9314,0.0,-5.2995,-5.5897,0.0,0.0,0.0,0.0,0.0,0.0,0.0,0.0,0.0,0.0,0.0,0.0,0.0,0.0,-5.7334,-5.6196,-5.488,-5.3384,-5.1947,-5.0631,-4.9404,-4.8113,-4.7278,-4.6897,-4.7822,-4.7848,-4.707,-4.68,-4.6322,-4.5693,-4.5693,-4.5544,-4.5304,-4.5304,-4.5454,-4.5663,-4.5394,-4.5035,-4.4847,-4.5889,-4.6487,-4.692,0.0,0.0,0.0,0.0,0.0,0.0,0.0,0.0,0.0,0.0,0.0,0.0,0.0,0.0,0.0,0.0,0.0,0.0,0.0,0.0,0.0,0.0,0.0,-3.0854,-3.1578,-3.2974,-3.4733,-3.682,-3.9023,-4.0062,-3.9843,0.0,0.0,0.0,0.0,0.0,-3.5591,-3.5514,-3.5519,-3.5519,-3.5519,-3.5519,0.0,0.0,0.0,0.0,0.0,0.0,0.0,0.0,-3.5519,0.0,0.0,0.0,-3.5359,-3.5162,-3.5001,-3.4986,-3.4961,-3.5507,-3.6173,-3.6408,0.0,0.0,-4.3777,-4.5723,-4.7395,-4.8913,-5.0441,-5.1528,-5.1528,0.0,0.0,0.0,0.0,0.0,0.0,0.0,0.0,0.0,0.0,0.0,0.0,0.0,0.0,0.0,0.0,0.0,0.0,-5.4521,-5.3294,-5.1947,-5.0436,-4.9034,-4.7703,-4.6229,-4.5153,-4.4527,-4.5924,-4.6049,-4.5201,-4.5201,-4.4905,-4.4448,-4.4448,-4.4496,-4.4676,-4.4676,-4.4676,-4.4706,-4.4915,-4.4586,-4.4077,-4.4736,-4.5314,-4.5756,0.0,0.0,0.0,0.0,0.0,0.0,0.0,0.0,0.0,0.0,0.0,0.0,0.0,0.0,0.0,0.0,0.0,0.0,0.0,0.0,0.0,0.0,0.0,-3.1261,-3.2395,-3.3246,-3.4197,-3.5332,-3.7619,-3.9049,-3.9693,-3.9295,0.0,0.0,0.0,0.0,-3.6447,-3.5789,-3.5519,-3.5519,-3.5519,-3.5519,-3.5519,0.0,0.0,0.0,0.0,0.0,0.0,0.0,-3.5519,-3.5519,0.0,0.0,0.0,-3.4935,-3.4668,-3.4264,-3.3659,-3.4284,-3.5088,-3.5377,0.0,0.0,-4.4331,-4.6023,-4.77,-5.0586,-5.1729,-5.2247,-5.2217,-5.2247,0.0,-5.5748,0.0,0.0,0.0,0.0,0.0,0.0,0.0,0.0,0.0,0.0,0.0,0.0,0.0,0.0,0.0,-5.2276,-5.1199,-5.1199,-4.8097,-4.6431,-4.6339,-4.4471,-4.32,-4.2685,-4.2685,-4.2685,-4.2685,-4.2685,-4.2654,-4.2593,-4.2593,-4.286,-4.325,-4.3329,-4.3329,-4.3389,-4.4047,-4.3898,-4.3419,-4.4077,-4.3898,-4.3578,0.0,0.0,0.0,0.0,0.0,0.0,0.0,0.0,0.0,0.0,0.0,0.0,0.0,0.0,0.0,0.0,0.0,0.0,0.0,0.0,0.0,0.0,0.0,0.0,0.0,0.0,-3.5236,-3.638,-3.7816,-3.8601,0.0,0.0,0.0,-3.8038,0.0,0.0,-3.6477,-3.6267,-3.5938,-3.5519,-3.5519,-3.5519,-3.5519,0.0,0.0,0.0,0.0,0.0,0.0,0.0,0.0,0.0,0.0,0.0,0.0,-3.4467,-3.4099,-3.3589,-3.2889,-3.3183,0.0,-3.466,0.0,0.0,0.0,-4.6181,0.0,0.0,-5.5215,-5.485,-5.4401,-5.47,0.0,-5.6047,-5.7423,0.0,0.0,0.0,0.0,0.0,0.0,0.0,0.0,0.0,0.0,0.0,0.0,0.0,0.0,-5.084,-4.9694,-4.7887,-4.6935,-4.5738,-4.4349,-4.2508,-4.1555,-4.1394,-4.0035,-4.0065,-4.1384,-4.1384,-4.1146,-4.0656,-4.0293,-4.0572,-4.1412,-4.1822,-4.2222,-4.2671,-4.288,-4.309,-4.3359,-4.3539,-4.3808,-4.3988,0.0,0.0,0.0,0.0,0.0,0.0,0.0,0.0,0.0,0.0,0.0,0.0,0.0,0.0,0.0,0.0,0.0,0.0,0.0,0.0,0.0,0.0,0.0,0.0,0.0,-3.4404,-3.5496,0.0,0.0,0.0,0.0,0.0,0.0,-3.8495,0.0,-3.7615,-3.6497,-3.6297,-3.5822,-3.5162,-3.5228,-3.5294,-3.5228,0.0,0.0,0.0,0.0,0.0,0.0,0.0,0.0,0.0,-3.4964,0.0,0.0,-3.3756,-3.3241,-3.2632,-3.2253,-3.2814,0.0,-3.4888,-3.7326,-4.0213,-4.328,0.0,0.0,0.0,-5.4288,-5.3936,-5.3714,-5.3714,0.0,0.0,0.0,0.0,0.0,0.0,0.0,0.0,0.0,0.0,0.0,0.0,0.0,0.0,0.0,0.0,0.0,-4.9097,-4.8014,-4.646,-4.5148,-4.3847,-4.2385,-4.0807,-3.9855,-3.9388,-3.7977,-3.7869,-3.8719,-3.8959,-3.8908,-3.8537,-3.8668,-3.9255,-4.0343,-4.0627,-4.1258,-4.1983,-4.2252,-4.2611,-4.297,-4.324,-4.3599,-4.3868,0.0,0.0,0.0,0.0,0.0,0.0,0.0,0.0,0.0,0.0,0.0,0.0,0.0,0.0,0.0,0.0,0.0,0.0,0.0,0.0,0.0,0.0,0.0,0.0,0.0,0.0,0.0,0.0,0.0,0.0,0.0,0.0,-3.8519,-3.8928,0.0,-3.7529,0.0,-3.6094,-3.538,-3.4698,-3.4802,-3.4868,-3.4802,-3.4698,0.0,0.0,0.0,0.0,0.0,0.0,0.0,0.0,-3.4332,-3.3756,-3.3101,-3.296,-3.2173,-3.1501,-3.1679,-3.2743,-3.4281,-3.5814,-3.8958,0.0,-4.6178,-4.9007,-5.0933,-5.1001,0.0,-5.1015,-5.1343,-5.0691,-5.0972,0.0,0.0,0.0,0.0,0.0,0.0,0.0,0.0,0.0,0.0,0.0,0.0,0.0,0.0,0.0,0.0,-4.7095,-4.5981,-4.5888,-4.297,-4.1195,-4.057,-3.9293,-3.8165,-3.7111,-3.6558,-3.5981,-3.5403,-3.5956,-3.6248,-3.6313,-3.7479,-3.8527,-3.9384,-3.9542,-4.0227,-4.1249,-4.1953,-4.2252,-4.2432,-4.303,-4.3269,-4.3329,0.0,0.0,0.0,0.0,0.0,0.0,0.0,0.0,0.0,0.0,0.0,0.0,0.0,0.0,0.0,0.0,0.0,0.0,0.0,0.0,0.0,0.0,0.0,0.0,0.0,0.0,0.0,0.0,0.0,0.0,0.0,0.0,0.0,-3.7915,0.0,-3.7287,0.0,-3.5856,-3.5136,-3.4235,-3.4303,-3.4303,-3.4303,-3.4235,-3.4167,0.0,0.0,0.0,0.0,0.0,0.0,0.0,-3.3618,-3.3199,-3.2676,-3.2245,-3.1616,-3.1179,-3.1293,-3.2056,0.0,0.0,-4.0206,-4.4219,-4.5512,-4.7002,-4.8498,-5.0384,-5.2008,-5.2733,-5.179,0.0,0.0,0.0,0.0,0.0,0.0,0.0,0.0,0.0,0.0,0.0,0.0,0.0,0.0,0.0,0.0,0.0,-4.4772,-4.3967,-4.3072,-4.2058,-4.0893,-3.9685,-3.8659,-3.796,-3.7211,0.0,-3.5981,-3.5203,-3.4274,-3.4826,-3.4881,-3.4488,-3.5621,-3.5945,-3.5927,-3.76,-3.8688,-3.9488,-4.0426,-4.1444,-4.2372,-4.2521,-4.288,-4.3329,0.0,0.0,0.0,0.0,0.0,0.0,0.0,0.0,0.0,0.0,0.0,0.0,0.0,0.0,0.0,0.0,0.0,0.0,0.0,0.0,0.0,0.0,0.0,0.0,0.0,0.0,0.0,0.0,0.0,0.0,0.0,0.0,0.0,-3.6905,0.0,-3.6297,0.0,-3.4787,-3.4112,-3.3171,-3.3311,-3.3451,-3.3381,-3.3241,-3.3101,-3.296,-3.2791,0.0,0.0,0.0,0.0,0.0,0.0,0.0,-3.1636,-3.1341,-3.0872,-3.0522,-3.0826,0.0,0.0,-3.7789,0.0,-4.4041,-4.4895,-4.5321,-4.5893,-4.7092,-4.8656,-4.9584,0.0,0.0,0.0,0.0,0.0,0.0,0.0,0.0,0.0,0.0,0.0,0.0,0.0,0.0,0.0,0.0,0.0,-4.3488,-4.3183,-4.2016,-4.1059,-4.0394,-3.9172,-3.821,-3.7211,-3.6684,-3.6132,-3.5579,-3.4751,-3.3771,-3.2717,-3.3545,-3.3771,-3.3582,-3.4075,-3.4464,-3.4815,-3.6397,-3.7528,-3.8438,-3.9876,-4.0816,-4.1504,-4.2132,-4.2581,-4.291,0.0,0.0,0.0,0.0,0.0,0.0,0.0,0.0,0.0,0.0,0.0,0.0,0.0,0.0,0.0,0.0,0.0,0.0,0.0,0.0,0.0,0.0,0.0,0.0,0.0,0.0,0.0,0.0,0.0,0.0,0.0,0.0,0.0,-3.585,0.0,0.0,0.0,-3.3527,-3.2826,-3.1982,-3.2345,-3.2417,-3.2417,-3.2055,-3.1909,-3.1836,-3.1516,-3.1442,-3.1442,-3.1442,0.0,0.0,0.0,0.0,-3.0545,-3.0545,-3.019,-2.9905,-3.0457,0.0,-3.5278,-3.9798,-4.1806,0.0,-4.3966,-4.384,-4.3489,-4.3388,-4.4267,0.0,0.0,0.0,0.0,0.0,0.0,0.0,0.0,0.0,0.0,0.0,0.0,0.0,0.0,0.0,0.0,0.0,0.0,-4.1867,-4.1867,-4.028,-3.9249,-3.9249,-3.7636,-3.6533,-3.6081,-3.5629,-3.5077,-3.4424,-3.3319,-3.229,-3.1411,-3.2365,-3.2792,-3.2792,-3.2792,-3.3334,-3.4196,-3.5544,-3.662,-3.7577,-3.9476,-4.0307,-4.0516,-4.1624,-4.2162,-4.2432,0.0,0.0,0.0,0.0,0.0,0.0,0.0,0.0,0.0,0.0,0.0,0.0,0.0,0.0,0.0,0.0,0.0,0.0,-2.9714,0.0,0.0,-3.4534,-3.4964,0.0,0.0,0.0,0.0,0.0,0.0,0.0,0.0,0.0,0.0,-3.492,0.0,0.0,0.0,-3.2909,-3.2249,-3.1294,-3.1368,-3.1368,-3.1368,-3.1368,-3.1246,-3.1123,-3.1123,-3.1048,-3.1048,-3.1048,-3.1048,0.0,0.0,0.0,-3.0343,-3.0216,-3.0011,-2.9905,0.0,0.0,-3.5956,0.0,-4.04,-4.1731,0.0,0.0,-4.2233,0.0,0.0,0.0,0.0,0.0,0.0,0.0,0.0,0.0,0.0,0.0,0.0,0.0,0.0,0.0,0.0,0.0,0.0,0.0,-3.8634,-3.8681,-3.8681,-3.7495,-3.6843,-3.6843,-3.5672,-3.5002,-3.4951,-3.4876,-3.4324,-3.3294,-3.2164,-3.1537,-3.1411,-3.1537,-3.1612,-3.1612,-3.1612,-3.1694,-3.2047,-3.4468,-3.562,-3.5983,-3.8502,-3.9888,-4.0427,-4.0606,-4.1384,-4.2372,0.0,0.0,0.0,0.0,0.0,0.0,0.0,0.0,0.0,0.0,0.0,0.0,0.0,0.0,0.0,-2.7717,-2.828,-2.9258,-3.0825,-3.2269,-3.3532,-3.4467,-3.4868,-3.4868,0.0,0.0,0.0,0.0,0.0,0.0,0.0,-3.3849,-3.4245,0.0,0.0,0.0,0.0,0.0,-3.1345,-3.057,-3.0722,-3.0722,-3.0722,-3.0646,-3.052,-3.0444,-3.0394,-3.0318,-3.0318,-3.0318,-3.0318,-3.0318,-3.0241,0.0,0.0,0.0,-2.9856,-2.998,-3.0809,-3.234,-3.4299,0.0,-3.8241,-3.932,-4.0501,0.0,0.0,0.0,0.0,0.0,0.0,0.0,0.0,0.0,0.0,0.0,0.0,0.0,0.0,0.0,0.0,0.0,0.0,0.0,0.0,0.0,-3.7437,-3.7086,-3.7086,-3.6031,-3.5303,-3.5002,-3.4223,-3.3646,-3.3319,-3.3018,-3.2466,-3.1687,-3.1185,-3.0783,-3.0507,-3.0507,-3.0809,-3.1386,-3.1386,-3.1386,-3.1549,-3.3877,-3.5024,-3.5614,-3.7944,-3.926,-3.9888,-4.0277,-4.0756,-4.1324,0.0,0.0,0.0,0.0,0.0,0.0,0.0,0.0,0.0,0.0,0.0,0.0,0.0,0.0,0.0,0.0,-2.844,-2.9626,-3.1528,-3.2647,-3.3503,-3.4167,-3.4534,-3.4467,-3.3922,0.0,0.0,0.0,0.0,0.0,-3.3276,-3.314,-3.3725,0.0,-3.4341,-3.336,0.0,0.0,-3.0775,-3.0011,-3.0216,-3.0216,-3.0216,-3.0088,-3.0011,-3.0011,-2.9856,-2.9804,-2.9804,-2.9804,-2.9804,-2.9804,-2.9804,-2.9804,0.0,0.0,0.0,-2.9955,0.0,0.0,-3.2541,-3.4751,-3.5931,-3.6935,0.0,0.0,0.0,0.0,0.0,0.0,0.0,0.0,0.0,0.0,0.0,0.0,0.0,0.0,0.0,0.0,0.0,0.0,0.0,0.0,0.0,0.0,-3.6408,-3.5881,-3.573,-3.4826,-3.4048,-3.3495,-3.2943,-3.2441,-3.2014,-3.1461,-3.1009,-3.0608,-3.0482,-3.0181,-2.9804,-2.9804,-3.0231,-3.0984,-3.0984,-3.112,-3.1519,-3.3436,-3.4594,-3.5517,-3.7575,-3.8721,-3.923,-3.9918,-4.0247,-4.0457,0.0,0.0,0.0,0.0,0.0,0.0,0.0,0.0,0.0,0.0,0.0,0.0,-2.6533,-2.6942,-2.7364,-2.7601,-2.8201,-2.9386,-3.1081,-3.2528,-3.3381,-3.3618,-3.3962,0.0,-3.3339,0.0,0.0,0.0,0.0,0.0,-3.3335,-3.2575,-3.3119,-3.4675,-3.465,-3.3721,-3.2139,0.0,0.0,-2.9779,-2.9856,-2.9856,-2.9856,-2.9779,-2.9779,-2.9804,-2.9804,-2.9804,-2.9804,-2.9804,-2.9804,-2.9804,-2.9804,-2.9804,-2.9804,0.0,0.0,0.0,0.0,-3.0633,0.0,-3.2265,0.0,0.0,0.0,0.0,0.0,0.0,0.0,0.0,0.0,0.0,0.0,0.0,0.0,0.0,0.0,0.0,0.0,0.0,0.0,0.0,0.0,0.0,0.0,0.0,-3.4851,-3.4575,-3.4048,-3.347,-3.2893,-3.2315,-3.1763,-3.1461,-3.1436,-3.0909,-3.0633,-3.0608,-3.008,-2.9829,-2.9804,-2.9804,-2.9829,-2.988,-2.988,-3.0369,-3.1299,-3.2946,-3.4169,-3.5264,-3.7534,-3.8422,-3.8512,-3.92,-3.9858,-4.0397,0.0,0.0,0.0,0.0,0.0,0.0,0.0,0.0,0.0,0.0,0.0,0.0,0.0,-2.7469,-2.8019,-2.8591,-2.9641,-3.0572,-3.1223,-3.2136,-3.2775,-3.2846,-3.3058,-3.296,-3.239,0.0,0.0,0.0,0.0,-3.0927,-3.2155,-3.2139,-3.2742,-3.3696,-3.4048,-3.3269,-3.1662,-3.1461,0.0,0.0,0.0,-2.9804,-2.9804,-2.9804,-2.9804,-2.9804,-2.9804,-2.9804,-2.9804,-2.9804,-2.9804,-2.9804,-2.9804,-2.9804,-2.9804,-2.9804,-2.9804,-2.9804,0.0,0.0,0.0,-3.1461,-3.2139,-3.2817,0.0,0.0,0.0,0.0,0.0,0.0,0.0,0.0,0.0,0.0,0.0,0.0,0.0,0.0,0.0,0.0,0.0,0.0,0.0,0.0,0.0,0.0,0.0,-3.342,-3.2842,-3.229,-3.1738,-3.121,-3.1009,-3.0733,-3.0357,-3.0181,-3.008,-3.008,-2.988,-2.9804,-2.9804,-2.9804,-2.9804,-2.9804,-2.9804,-3.0011,-3.0444,-3.2191,-3.3434,-3.4312,-3.6792,-3.8033,-3.8482,-3.917,-3.9559,-3.9768,0.0,0.0,0.0,0.0,0.0,0.0,0.0,0.0,0.0,0.0,0.0,0.0,0.0,0.0,-2.8472,-2.9303,-3.0289,-3.0898,-3.0973,-3.1542,-3.1909,-3.1909,-3.2128,-3.1955,-3.1442,0.0,0.0,0.0,0.0,0.0,0.0,-3.1512,-3.1964,-3.2516,-3.2893,-3.2441,0.0,0.0,0.0,-2.9804,0.0,0.0,-2.9804,-3.0005,-3.0181,0.0,0.0,-3.0181,-3.0281,-2.9905,-2.9804,-2.9804,-2.9804,-2.9804,-2.9804,-2.9804,-2.9804,-2.9804,-2.9804,0.0,0.0,0.0,0.0,0.0,0.0,0.0,0.0,0.0,0.0,0.0,0.0,0.0,0.0,0.0,0.0,0.0,0.0,0.0,0.0,0.0,0.0,0.0,0.0,0.0,0.0,0.0,0.0,0.0,-3.1712,-3.1336,-3.0884,-3.0357,-3.0331,-3.0156,-2.9804,-2.9804,-2.9804,-2.9804,-2.9804,-2.9804,-2.9804,-2.9804,-2.9804,-2.9804,-2.9804,-3.0139,-3.0846,-3.2119,-3.3269,-3.4425,-3.633,-3.7494,-3.8153,-3.8811,-3.923,-3.9409,0.0,0.0,0.0,0.0,0.0,0.0,0.0,0.0,0.0,-2.6559,0.0,0.0,0.0,0.0,0.0,-2.9704,-3.0011,-3.0139,-3.0368,-3.0748,-3.0973,-3.0973,-3.1097,-3.1022,-3.0698,0.0,0.0,0.0,0.0,0.0,0.0,0.0,-3.0884,-3.1336,-3.1361,-3.1361,-3.1311,0.0,-3.0306,-2.9804,0.0,-2.9804,-2.988,0.0,0.0,0.0,-3.0809,-3.0959,0.0,-3.0181,0.0,-2.9804,-2.9804,-2.9804,-2.9804,-2.9804,-2.9804,-2.9804,0.0,0.0,0.0,0.0,0.0,0.0,0.0,0.0,0.0,0.0,0.0,0.0,0.0,0.0,0.0,0.0,0.0,0.0,0.0,0.0,0.0,0.0,0.0,0.0,0.0,0.0,0.0,0.0,-3.1662,-3.1135,-3.0608,-3.0583,-3.0357,-2.9804,-2.9779,-2.9779,-2.9804,-2.9754,-2.9754,-2.9804,-2.9779,-2.9779,-2.9804,-2.9804,-2.9804,-2.9804,-2.9804,-3.0846,-3.2593,-3.2593,-3.3768,-3.5514,-3.6237,-3.6866,-3.7494,-3.8153,-3.8811,-3.9409,0.0,0.0,0.0,0.0,0.0,0.0,-2.6584,-2.6533,-2.6659,0.0,0.0,0.0,-2.8373,-2.8976,-2.9453,-2.9754,-3.0011,-3.0164,-3.0139,-3.0444,-3.0596,-3.0596,-3.0596,-3.052,-3.0241,0.0,0.0,0.0,0.0,0.0,0.0,0.0,0.0,0.0,-3.0658,-3.0608,-3.0256,-3.0507,0.0,-2.9804,-2.9804,-3.003,0.0,0.0,0.0,0.0,0.0,-3.126,-3.1286,0.0,-3.0382,-3.0306,-2.9905,-2.9804,-2.9804,-2.9804,-2.9804,-2.9804,-2.9804,0.0,0.0,0.0,0.0,0.0,0.0,0.0,0.0,0.0,0.0,0.0,0.0,0.0,0.0,0.0,0.0,0.0,0.0,0.0,0.0,0.0,0.0,0.0,0.0,0.0,0.0,0.0,-3.0909,-3.0583,-3.0055,-3.003,-2.9955,-2.9804,-2.9377,-2.9377,-2.9804,-2.8976,-2.8976,-2.9779,-2.9377,-2.9377,-2.9804,-2.9804,-2.9804,-2.9804,-2.9804,-3.0846,-3.2593,-3.2593,-3.3325,-3.4534,-3.5941,-3.6866,-3.7494,-3.8153,-3.8811,-3.9409,0.0,0.0,0.0,0.0,0.0,0.0,-2.7193,-2.7143,-2.7268,0.0,0.0,0.0,-2.8825,-2.9453,-2.9804,-2.9804,-2.9934,-2.9934,-2.9934,-3.0088,-3.0164,-3.0164,-3.0164,-3.0088,-3.0011,0.0,0.0,0.0,0.0,0.0,0.0,0.0,0.0,0.0,0.0,0.0,0.0,0.0,0.0,0.0,-2.9804,0.0,0.0,-3.0859,-3.1411,0.0,0.0,0.0,-3.229,-3.1286,-3.0809,0.0,0.0,-2.9804,-2.9804,-2.9804,-2.9804,-2.9804,-2.9804,-2.9804,-2.9804,0.0,0.0,0.0,-2.9051,-2.9176,0.0,0.0,0.0,0.0,0.0,0.0,0.0,0.0,0.0,0.0,0.0,0.0,0.0,0.0,0.0,0.0,0.0,-3.1386,-3.0934,-3.0633,-3.0407,-3.003,-2.9453,-2.9428,-2.9327,-2.9101,-2.8775,-2.875,-2.9076,-2.8423,-2.8423,-2.9076,-2.8976,-2.9101,-2.9428,-2.9428,-2.9578,-2.9779,-2.9528,-3.0611,-3.2593,-3.2593,-3.3394,-3.4735,-3.571,-3.6626,-3.7464,-3.7853,-3.8601,-3.9409,0.0,0.0,0.0,-2.8097,-2.8197,-2.8172,-2.8122,-2.8097,-2.8122,0.0,-2.8247,-2.8473,-2.8976,-2.9478,-2.9804,-2.9804,-2.9804,-2.9804,-2.9804,-2.9804,-2.9804,-2.9804,-2.9804,-2.9804,-2.9804,-2.9804,0.0,0.0,0.0,0.0,0.0,0.0,0.0,0.0,0.0,0.0,0.0,0.0,0.0,-2.9704,-2.9754,-3.0156,0.0,0.0,-3.2089,-3.3018,-3.2491,-3.2968,-3.3545,-3.1938,-3.1035,0.0,0.0,0.0,0.0,-2.9804,-2.9804,-2.9804,-2.9804,-2.9804,-2.9804,-2.9804,-2.9804,0.0,-2.8976,-2.8875,-2.8725,0.0,0.0,0.0,0.0,0.0,0.0,0.0,0.0,0.0,0.0,0.0,0.0,0.0,0.0,0.0,-3.111,-3.0658,-3.0331,-3.0331,-2.988,-2.9377,-2.8875,-2.8825,-2.8624,-2.8122,-2.8047,-2.8047,-2.8097,-2.7971,-2.7971,-2.8122,-2.8549,-2.8775,-2.8825,-2.89,-2.9202,-2.9679,-2.9227,-3.0351,-3.2593,-3.2593,-3.3768,-3.5519,-3.5519,-3.6237,-3.7315,-3.7375,-3.8212,-3.932,0.0,0.0,0.0,-2.8674,-2.8775,-2.8624,-2.8172,-2.8097,-2.8273,-2.8699,-2.9176,-2.9503,-2.9603,-2.9729,-2.9804,-2.9804,-2.9804,-2.9804,-2.9804,-2.9804,-2.9804,-2.9804,-2.9804,-2.9804,-2.9804,-2.9804,-2.9804,0.0,0.0,0.0,0.0,0.0,0.0,0.0,0.0,0.0,0.0,0.0,0.0,-2.9126,-2.9603,0.0,-3.126,-3.1361,-3.2089,-3.3068,-3.2943,-3.3043,-3.3043,-3.1813,-3.1035,-3.0507,0.0,0.0,0.0,-2.9804,0.0,0.0,-2.9804,-2.9804,0.0,0.0,0.0,0.0,-2.8499,-2.8599,-2.8524,0.0,0.0,0.0,0.0,0.0,0.0,0.0,0.0,0.0,0.0,0.0,0.0,0.0,0.0,0.0,-2.9402,-2.8925,-2.8599,-2.8599,-2.8499,-2.8373,-2.8273,-2.8273,-2.8222,-2.8097,-2.767,-2.7645,-2.8097,-2.7218,-2.7218,-2.8097,-2.777,-2.7846,-2.8273,-2.8725,-2.8976,-2.9126,-2.9478,-3.0742,-3.2593,-3.2593,-3.3768,-3.5519,-3.5519,-3.5968,-3.6716,-3.7225,-3.7913,-3.8661,0.0,-2.7695,-2.7871,-2.8423,-2.875,-2.8825,-2.8549,-2.875,-2.9051,0.0,-2.9854,-3.0306,-3.0557,-3.0583,-3.0482,-3.0231,-3.0206,-3.008,-2.9804,-2.9804,-2.9804,-2.9804,-2.9804,-2.9804,-2.9804,-2.9804,-2.9804,-2.9804,0.0,0.0,0.0,0.0,0.0,0.0,0.0,0.0,0.0,0.0,-2.9628,-2.9377,-2.9679,0.0,-3.0633,-3.0909,-3.1512,-3.224,-3.224,-3.224,-3.2139,-3.1587,-3.1035,0.0,-2.9955,-2.9804,-2.9804,0.0,-2.9804,-2.9804,0.0,0.0,0.0,-2.9804,0.0,0.0,0.0,-2.8725,-2.8524,0.0,0.0,0.0,0.0,0.0,0.0,0.0,0.0,0.0,0.0,0.0,0.0,0.0,0.0,0.0,-2.8524,-2.8273,-2.8097,-2.8097,-2.8097,-2.7971,-2.772,-2.7695,-2.757,-2.7293,-2.7017,-2.6992,-2.7293,-2.6741,-2.6741,-2.7293,-2.7293,-2.7419,-2.7695,-2.7971,-2.8398,-2.8925,-2.9423,-3.0811,-3.2664,-3.3087,-3.4177,-3.5519,-3.5519,-3.5908,-3.6567,-3.7195,-3.7823,-3.8482,-2.7143,-2.7293,-2.7444,0.0,0.0,-2.8925,-2.8925,-2.9428,0.0,0.0,0.0,0.0,-3.1512,-3.1461,-3.1386,-3.1411,-3.0733,-3.0331,-3.0432,-2.993,-2.9628,-2.9628,-2.9729,-2.9754,-2.9628,-2.9729,-2.9804,-2.9804,0.0,0.0,0.0,0.0,0.0,0.0,0.0,0.0,0.0,0.0,0.0,-2.9628,0.0,-2.9854,-3.0005,-3.0457,-3.0934,-3.1386,-3.1386,-3.1386,-3.1361,-3.1286,-3.0959,-3.0507,-2.9955,-2.9804,0.0,0.0,0.0,0.0,0.0,0.0,0.0,0.0,0.0,-2.9628,0.0,0.0,0.0,0.0,0.0,0.0,0.0,0.0,0.0,0.0,0.0,0.0,0.0,0.0,0.0,0.0,0.0,0.0,0.0,-2.7846,-2.7795,-2.7795,-2.7795,-2.7595,-2.7143,-2.7118,-2.6917,-2.6533,-2.6533,-2.6533,-2.6533,-2.6533,-2.6533,-2.6533,-2.6917,-2.7118,-2.7118,-2.7243,-2.7965,-2.9022,-2.951,-3.0902,-3.2947,-3.3671,-3.461,-3.5519,-3.5519,-3.5818,-3.6357,-3.7015,-3.7554,-3.8123,-2.6992,-2.7293,-2.7444,0.0,0.0,0.0,-2.8925,-2.9428,0.0,0.0,0.0,0.0,0.0,-3.1687,-3.2164,-3.4098,-3.111,-3.0131,-3.2541,-3.0407,-2.9026,-2.9026,-2.9528,-2.9553,-2.9026,-2.9528,-2.9804,-2.9804,0.0,0.0,0.0,0.0,0.0,0.0,-2.9804,0.0,0.0,0.0,-2.9503,0.0,-2.9578,-3.008,0.0,-3.0583,-3.0934,-3.1386,-3.1386,-3.1386,-3.1311,0.0,-3.0658,-3.0507,0.0,-2.9804,-2.9804,-2.9804,0.0,0.0,0.0,0.0,0.0,0.0,-2.9804,0.0,0.0,0.0,-2.875,-2.8147,0.0,0.0,0.0,0.0,0.0,0.0,0.0,0.0,0.0,0.0,0.0,0.0,0.0,0.0,0.0,-2.6942,-2.664,-2.664,-2.664,-2.6684,-2.6565,-2.6609,-2.6584,-2.6533,-2.6533,-2.6533,-2.6533,-2.6533,-2.6533,-2.6533,-2.6584,-2.6609,-2.6634,-2.7067,-2.8094,-2.9442,-3.0058,-3.1662,-3.3876,-3.3945,-3.461,-3.5519,-3.5519,-3.5549,-3.5699,-3.6357,-3.6626,-3.6776,-2.5661,-2.6088,-2.6364,0.0,0.0,0.0,0.0,0.0,0.0,0.0,0.0,0.0,0.0,0.0,-3.3822,-3.5102,-3.3119,-3.2039,0.0,-3.0909,-2.9779,-2.9453,-2.9654,-2.9679,-2.9428,-2.9679,-2.9804,-2.9804,-2.9804,0.0,0.0,0.0,0.0,0.0,-2.9804,0.0,-2.9327,0.0,-2.9453,0.0,0.0,0.0,0.0,-3.0131,-3.0281,-3.0457,-3.0457,-3.0457,-3.0432,0.0,-3.0131,0.0,0.0,0.0,0.0,-2.9804,0.0,0.0,0.0,0.0,0.0,0.0,0.0,0.0,-2.9478,0.0,-2.9277,0.0,0.0,0.0,0.0,0.0,0.0,0.0,-2.6533,0.0,0.0,0.0,0.0,0.0,0.0,0.0,0.0,0.0,0.0,0.0,-2.5511,-2.5511,-2.5511,-2.5787,-2.5963,-2.5963,-2.6289,-2.6533,-2.6533,-2.6533,-2.6533,-2.6533,-2.6533,-2.6533,-2.6533,-2.7216,-2.8265,-2.9548,-3.087,-3.2422,-3.4041,-3.461,-3.5133,-3.5519,-3.5519,-3.5519,-3.5579,-3.6237,-3.6477,-3.6567,-2.4506,-2.5134,0.0,0.0,0.0,0.0,0.0,0.0,0.0,0.0,0.0,0.0,-3.4751,-3.4826,0.0,-3.6584,-3.5102,-3.3922,0.0,0.0,-3.0507,-2.9829,-2.9804,-2.9704,-2.9553,-2.9704,-2.9804,-2.9804,-2.9804,0.0,0.0,0.0,0.0,0.0,0.0,-2.9478,-2.895,0.0,-2.9227,-2.875,-2.9176,-2.9428,-2.9578,-2.9729,-2.9804,-2.9804,-2.9804,-2.9804,-2.9804,-2.9804,-2.9804,0.0,-2.9804,0.0,0.0,0.0,0.0,0.0,-2.9804,0.0,0.0,0.0,0.0,0.0,0.0,0.0,0.0,0.0,0.0,0.0,0.0,0.0,0.0,0.0,0.0,-2.6533,0.0,0.0,0.0,0.0,0.0,0.0,0.0,0.0,0.0,-2.4858,-2.4833,-2.4833,-2.4833,-2.531,-2.5586,-2.5586,-2.6163,-2.6533,-2.6533,-2.6533,-2.6533,-2.6533,-2.6533,-2.6533,-2.6533,-2.7095,-2.8088,-2.9353,-3.0809,-3.2217,-3.3482,-3.4321,-3.4706,-3.4706,-3.5001,-3.5067,-3.5192,-3.5962,-3.6207,-3.6297,-2.4029,-2.4883,0.0,0.0,0.0,0.0,0.0,0.0,0.0,0.0,0.0,0.0,0.0,0.0,0.0,0.0,0.0,-3.5152,-3.6207,0.0,-3.0884,-2.9829,-2.9804,-2.9528,-2.8976,-2.9503,-2.9804,-2.9804,-2.9804,0.0,0.0,0.0,0.0,0.0,-2.9804,-2.9478,-2.8925,-2.895,-2.8649,-2.8122,-2.8147,-2.8473,-2.9026,0.0,-2.9804,-2.9804,-2.9804,0.0,0.0,-2.9804,-2.9804,0.0,0.0,0.0,0.0,0.0,0.0,0.0,0.0,0.0,0.0,-2.9804,0.0,0.0,0.0,0.0,-2.9779,0.0,0.0,0.0,0.0,0.0,0.0,-2.654,0.0,0.0,0.0,0.0,0.0,0.0,0.0,0.0,0.0,0.0,0.0,-2.4833,-2.4833,-2.4833,-2.4833,-2.531,-2.5586,-2.5586,-2.6163,-2.6533,-2.6533,-2.6533,-2.6533,-2.6533,-2.6533,-2.6533,-2.6533,-2.6533,-2.7361,-2.8796,-2.9353,-3.047,-3.1903,-3.2443,-3.2664,-3.2806,-3.3671,-3.4041,-3.4177,-3.5162,-3.5549,-3.5549,0.0,0.0,0.0,0.0,0.0,0.0,0.0,-2.988,0.0,0.0,0.0,0.0,0.0,-3.8115,-3.8768,0.0,0.0,-3.7864,-3.7487,-3.5378,0.0,-3.2039,-3.1612,-3.0959,-3.0055,-3.0231,-3.0156,-2.9804,-2.9804,0.0,0.0,0.0,0.0,0.0,0.0,-2.9277,0.0,0.0,0.0,0.0,0.0,-2.8222,-2.8398,0.0,0.0,-2.9227,-2.9227,-2.9227,0.0,-2.9654,-2.9804,-2.9804,-2.9804,-2.9804,-2.9804,-2.9804,-2.9804,0.0,0.0,0.0,-2.9804,-2.9804,0.0,0.0,0.0,0.0,0.0,0.0,0.0,0.0,0.0,0.0,0.0,-2.6609,-2.6533,0.0,0.0,0.0,0.0,0.0,0.0,0.0,0.0,0.0,0.0,-2.3728,-2.3641,-2.3641,-2.3641,-2.4582,-2.5084,-2.5084,-2.5988,-2.6533,-2.6533,-2.6533,-2.6533,-2.6533,-2.6533,-2.6533,-2.6533,-2.7027,-2.7785,-2.8769,-2.9875,-3.0952,-3.1806,-3.2345,-3.2593,-3.2593,-3.2947,-3.3087,-3.3255,-3.4935,-3.5067,-3.4409,-2.541,0.0,0.0,0.0,0.0,0.0,0.0,0.0,0.0,0.0,-3.5052,0.0,-3.9371,0.0,-4.0149,0.0,-4.0701,-3.9622,-3.8115,-3.6835,0.0,-3.3445,-3.2817,-3.2014,-3.0909,-3.0708,-3.0357,-2.9804,-2.9804,-2.9804,0.0,0.0,0.0,0.0,0.0,-2.9176,-2.8122,0.0,-2.7996,0.0,0.0,-2.7645,0.0,0.0,-2.8147,-2.8674,0.0,-2.8925,-2.9026,-2.9603,-2.9804,-2.9804,-2.9804,-2.9804,-2.9804,-2.9804,-2.9804,-2.9804,-2.9804,-2.9804,0.0,-2.9804,-2.9804,0.0,-2.9804,0.0,0.0,0.0,0.0,0.0,0.0,0.0,0.0,-2.6609,-2.6533,-2.6458,0.0,-2.5837,0.0,0.0,0.0,0.0,0.0,0.0,-2.3552,-2.309,-2.3065,-2.3065,0.0,0.0,-2.4607,-2.4808,-2.5686,-2.6239,-2.6533,-2.6533,-2.6533,-2.6533,-2.6533,-2.6533,-2.6533,-2.7027,-2.7478,-2.8004,-2.9247,-3.0084,-3.0556,-3.1288,-3.1609,-3.1636,-3.1974,-3.2092,-3.2307,-3.3905,-3.4041,-3.3463,0.0,0.0,0.0,0.0,-2.7092,0.0,0.0,0.0,-3.352,0.0,-3.5855,-3.7387,-3.9572,-3.9823,-4.0224,-4.1254,-4.1329,-4.0425,-3.8266,-3.7613,0.0,0.0,-3.3495,-3.2641,-3.1461,-3.0909,-3.0357,-2.9804,0.0,0.0,0.0,0.0,0.0,0.0,-2.9804,0.0,-2.8147,-2.8122,-2.7469,-2.6533,-2.6533,-2.6836,-2.7243,-2.7243,-2.7595,-2.8147,-2.8725,-2.8925,-2.9026,-2.9603,-2.9804,-2.9804,-2.9804,-2.9804,-2.9804,-2.9804,-2.9804,-2.9804,-2.9804,-2.9804,-2.9804,-2.9804,0.0,0.0,0.0,0.0,-2.9603,0.0,0.0,0.0,0.0,0.0,0.0,-2.6609,-2.6533,-2.6264,0.0,0.0,0.0,0.0,0.0,0.0,0.0,-2.3452,-2.3065,-2.3065,-2.3065,-2.3065,0.0,0.0,-2.4255,-2.4808,-2.5335,-2.5862,-2.6508,-2.6533,-2.6533,-2.6533,-2.6533,-2.6533,-2.6533,-2.6533,-2.6533,-2.6584,-2.762,-2.8097,-2.8197,-2.9327,-2.9804,-2.9856,-3.0771,-3.1093,-3.1241,-3.2164,-3.2522,-3.2522,-2.6992,-2.7846,-2.8549,0.0,-2.8725,-2.895,0.0,0.0,0.0,0.0,-3.8241,-3.9973,-4.1379,-4.153,-4.148,-4.1354,-4.1329,0.0,0.0,0.0,0.0,-3.6408,-3.5429,-3.3997,-3.2039,-3.1461,-3.0733,-2.9804,0.0,0.0,-2.9804,0.0,0.0,0.0,0.0,0.0,-2.8699,-2.8273,-2.7469,-2.6533,-2.6533,-2.6609,0.0,0.0,-2.7017,-2.762,-2.8574,-2.8925,-2.9026,-2.9603,-2.9804,-2.9804,-2.9804,-2.9804,-2.9804,-2.9804,-2.9804,-2.9804,-2.9804,-2.9804,-2.9804,-2.9804,-2.9478,-2.9277,0.0,0.0,0.0,0.0,0.0,0.0,0.0,0.0,0.0,0.0,-2.6533,0.0,0.0,0.0,0.0,-2.4079,0.0,-2.3351,-2.3351,-2.3165,-2.3065,-2.3065,-2.3065,0.0,0.0,0.0,0.0,-2.4808,-2.5335,-2.5862,-2.6508,-2.6533,-2.6533,-2.6533,-2.6533,-2.6533,-2.6533,-2.6533,-2.6533,-2.6584,-2.762,-2.8097,-2.8197,-2.9327,-2.9804,-2.9779,-3.0088,-3.0139,-3.0292,-3.1193,-3.1536,-3.1462,-2.7946,0.0,0.0,-3.0658,0.0,0.0,-3.1863,0.0,0.0,-3.6935,-3.8718,0.0,-4.0651,-4.1379,-4.1681,-4.1354,-4.1128,0.0,-4.0199,0.0,0.0,-3.7236,-3.6132,-3.4625,-3.2641,-3.1587,-3.0633,-2.9804,-2.9553,0.0,-2.9804,0.0,0.0,0.0,0.0,-2.9478,0.0,-2.8072,-2.7243,-2.6533,-2.6533,0.0,0.0,-2.6992,-2.7369,-2.7795,-2.89,-2.9151,-2.9026,-2.9603,-2.9804,-2.9804,-2.9804,-2.9804,-2.9804,-2.9804,-2.9804,-2.9804,-2.9804,-2.9804,-2.9804,-2.9804,-2.9352,-2.9026,-2.9352,-2.8976,-2.8599,0.0,0.0,0.0,0.0,0.0,0.0,0.0,0.0,0.0,0.0,0.0,0.0,0.0,-2.3703,0.0,-2.309,-2.3065,-2.3065,-2.3065,-2.3065,0.0,0.0,0.0,0.0,-2.4782,-2.5109,-2.5636,-2.6508,-2.6533,-2.6533,-2.6533,-2.6533,-2.6533,-2.6533,-2.6533,-2.6533,-2.6584,-2.762,-2.8097,-2.8197,-2.9327,-2.9804,-2.9804,-2.9804,-2.9804,-2.9856,-3.0419,-3.0545,-3.0495,0.0,0.0,0.0,0.0,0.0,0.0,0.0,-3.5328,0.0,-3.7236,0.0,-3.932,-3.912,-4.0375,-4.1204,-4.1128,0.0,-4.0174,-3.9622,-3.9145,-3.8341,-3.7136,-3.6081,-3.4726,-3.2993,-3.1411,-3.0357,-2.9804,-2.9227,-2.9227,-2.9804,0.0,0.0,0.0,0.0,0.0,0.0,-2.7795,-2.7017,-2.6533,-2.6533,-2.6559,-2.6666,-2.7544,-2.8021,-2.8323,-2.9151,-2.9277,-2.9126,-2.9628,-2.9804,-2.9804,-2.9804,-2.9804,-2.9804,-2.9804,-2.9804,-2.9804,-2.9804,-2.9804,-2.9804,-2.9804,-2.9302,-2.8825,-2.89,-2.8448,-2.7871,-2.7469,-2.7344,-2.7143,0.0,0.0,0.0,0.0,0.0,0.0,0.0,0.0,0.0,0.0,0.0,0.0,-2.314,-2.3065,-2.3065,-2.3065,0.0,0.0,0.0,0.0,0.0,-2.4682,-2.4782,-2.531,-2.6339,0.0,-2.6533,-2.6533,-2.6533,-2.6533,-2.6533,-2.6533,-2.6533,-2.6584,-2.762,-2.8097,-2.8197,-2.9327,-2.9804,-2.9804,-2.9804,-2.9804,-2.9804,-2.9804,-2.9804,-2.9804,0.0,0.0,0.0,0.0,0.0,-3.6307,-3.7287,-3.8617,-3.927,-3.8668,-4.0727,-4.1731,-4.0375,-4.0475,-4.0475,-4.0023,-3.9898,0.0,0.0,0.0,0.0,-3.6584,-3.5881,-3.455,-3.2416,-3.121,-3.0357,-2.9804,-2.9227,-2.9227,-2.9804,0.0,0.0,0.0,0.0,0.0,-2.8247,-2.8047,0.0,-2.6533,-2.6533,-2.681,-2.7118,-2.6841,-2.7595,-2.8699,-2.7971,-2.8549,-2.9654,-2.9754,-2.9804,-2.9804,-2.9804,-2.9804,-2.9804,-2.9804,-2.9804,-2.9804,-2.9804,-2.9804,-2.9804,-2.9804,-2.9026,-2.8373,-2.8825,-2.8147,-2.7519,-2.7896,-2.7595,-2.7243,-2.7168,0.0,0.0,0.0,0.0,0.0,0.0,0.0,0.0,0.0,0.0,-2.3778,0.0,-2.3065,-2.3065,0.0,0.0,0.0,0.0,0.0,0.0,0.0,-2.4582,0.0,0.0,0.0,-2.6533,-2.6533,-2.6533,-2.6533,-2.6533,-2.6533,-2.6533,-2.6584,-2.762,-2.8097,-2.8197,-2.9327,-2.9804,-2.9804,-2.9804,-2.9804,-2.9804,-2.9804,-2.9804,-2.9804,0.0,0.0,0.0,0.0,0.0,0.0,0.0,-4.0049,0.0,-3.8642,-3.932,-3.9672,-3.8868,-3.9572,-3.9973,-3.9722,-3.9421,-3.9145,-3.8894,-3.8316,-3.7513,-3.6408,-3.5303,-3.3922,-3.224,-3.0583,-2.9754,-2.9804,-2.8925,-2.895,-2.9804,0.0,0.0,0.0,0.0,-2.8875,0.0,0.0,0.0,-2.6533,-2.6533,-2.6615,-2.6892,-2.7193,-2.7821,-2.8473,-2.8222,-2.885,-2.9754,-2.9453,-2.9553,-2.9754,-2.9428,-2.9553,-2.9729,-2.9428,-2.9553,-2.9729,-2.9428,-2.9578,-2.9729,-2.9428,-2.8925,-2.8599,-2.8875,-2.8072,-2.7344,-2.762,-2.7243,-2.6866,-2.6866,-2.664,0.0,0.0,0.0,0.0,0.0,0.0,-2.5737,0.0,0.0,0.0,0.0,0.0,0.0,0.0,0.0,0.0,0.0,0.0,0.0,0.0,0.0,0.0,0.0,0.0,0.0,-2.6533,-2.6533,-2.6533,-2.6533,-2.6533,-2.6615,-2.6942,-2.7745,-2.8273,-2.8599,-2.9453,-2.9804,-2.9804,-2.9804,-2.9804,-2.9804,-2.9804,-2.9804,-2.9804,0.0,-3.4248,0.0,0.0,-3.7462,0.0,-3.9396,-4.045,-4.0526,-3.8768,-3.8165,-3.7839,-3.7739,-3.8793,-3.9521,-3.9521,-3.9019,-3.8592,-3.8341,-3.7513,-3.6659,-3.5881,-3.4474,-3.3194,-3.2064,-3.0005,-2.9151,-2.9603,-2.8599,-2.8624,-2.9603,-2.9729,0.0,0.0,0.0,0.0,0.0,0.0,-2.6967,-2.6533,-2.6533,-2.6609,-2.6741,-2.7595,-2.7996,-2.8172,-2.8599,-2.9126,-2.9553,-2.9076,-2.9227,-2.9528,-2.9076,-2.9252,-2.9528,-2.9051,-2.9252,-2.9478,-2.89,-2.9176,-2.9503,-2.9051,-2.8925,-2.8925,-2.8925,-2.8172,-2.7444,-2.7444,-2.7017,-2.6659,-2.6559,-2.6533,0.0,0.0,0.0,0.0,0.0,0.0,0.0,0.0,0.0,0.0,-2.319,0.0,0.0,0.0,0.0,0.0,0.0,0.0,0.0,0.0,0.0,-2.5084,-2.5586,0.0,-2.6533,-2.6533,-2.6533,-2.6533,-2.6533,-2.6659,-2.6866,-2.7318,-2.7996,-2.8599,-2.9151,-2.9603,-2.9804,-2.9804,-2.9804,-2.9804,-2.9804,-2.9804,-2.9804,-2.9804,0.0,0.0,0.0,0.0,0.0,0.0,-3.8919,-3.9898,-4.0526,-4.03,-4.0224,-4.0023,-3.9521,-3.9145,-3.8944,-3.8944,-3.8417,-3.7663,-3.6659,-3.6483,-3.5755,-3.4198,-3.3495,-3.2616,-3.1486,-2.9804,-2.895,0.0,0.0,-2.8423,-2.9026,-2.9553,0.0,0.0,0.0,0.0,0.0,-2.7293,-2.6967,-2.6533,-2.6533,-2.6766,-2.7218,-2.7318,-2.767,-2.8122,-2.8172,-2.8524,-2.9001,-2.895,-2.8976,-2.9001,-2.895,-2.8976,-2.9001,-2.895,-2.8976,-2.89,-2.8323,-2.8574,-2.9001,-2.895,-2.8925,-2.8925,-2.8925,-2.8473,-2.8021,-2.8021,-2.7595,-2.7042,-2.6609,-2.6533,-2.6533,0.0,0.0,0.0,0.0,0.0,-2.6063,-2.4958,0.0,0.0,0.0,-2.3602,0.0,0.0,-2.3065,0.0,0.0,0.0,0.0,-2.3979,0.0,-2.5084,-2.5586,-2.6163,-2.6533,-2.6533,-2.6533,-2.6533,-2.6559,-2.6967,-2.7243,-2.7344,-2.8398,-2.9176,-2.9704,-2.9779,-2.9804,-2.9804,-2.9804,-2.9804,-2.9804,-2.9804,-2.9804,-2.9804,0.0,0.0,0.0,0.0,0.0,0.0,0.0,-3.9747,-4.0023,-4.0023,-3.9747,-3.9446,-3.922,-3.8693,-3.8341,-3.8341,-3.7839,-3.7337,-3.6885,-3.6232,-3.5429,-3.4424,-3.3219,-3.219,-3.1411,-2.9779,-2.8925,0.0,0.0,-2.8549,-2.8448,-2.9026,0.0,0.0,0.0,-2.7695,-2.7268,-2.6942,-2.6666,-2.6533,-2.6533,-2.6659,-2.6816,-2.7168,-2.762,-2.8097,-2.8097,-2.8674,-2.9352,-2.8674,-2.8649,-2.8875,-2.8549,-2.8423,-2.8373,-2.8047,-2.8172,-2.8373,-2.8172,-2.8273,-2.8524,-2.885,-2.8925,-2.9026,-2.9377,-2.9001,-2.8499,-2.8172,-2.7394,-2.6716,-2.6559,-2.6533,-2.6533,0.0,0.0,0.0,0.0,0.0,0.0,-2.5385,0.0,-2.4732,0.0,0.0,0.0,0.0,0.0,0.0,0.0,0.0,0.0,-2.3979,0.0,-2.5385,-2.5586,-2.6163,-2.6533,-2.6533,-2.6791,-2.6942,-2.6967,-2.7519,-2.7971,-2.8323,-2.9101,-2.9578,-2.9804,-2.9804,-2.9804,-2.9804,-2.9804,-2.9804,-2.9804,-2.9804,-2.9804,-2.9804,-3.8165,0.0,-3.8442,0.0,-3.912,-3.9245,-3.9647,-3.9697,-3.9647,-3.9471,-3.8969,-3.8668,-3.8843,-3.8216,-3.7764,-3.7764,-3.7262,-3.681,-3.6483,-3.573,-3.4901,-3.4022,-3.2692,0.0,-3.1185,-2.9704,-2.885,-2.8674,-2.8674,-2.8398,-2.7871,0.0,0.0,0.0,-2.762,-2.7444,-2.7268,-2.7042,-2.6942,-2.6942,-2.6766,-2.676,-2.6741,-2.7143,-2.7419,-2.767,-2.7996,-2.8624,-2.9202,-2.8574,-2.8599,-2.8825,-2.8273,-2.8097,-2.7996,-2.7444,-2.757,-2.7821,-2.767,-2.7745,-2.7996,-2.8549,-2.88,-2.9076,-2.9654,-2.9352,-2.8725,-2.8021,-2.7243,-2.671,-2.6559,-2.6533,-2.6533,-2.6533,0.0,0.0,0.0,-2.6533,0.0,0.0,-2.5435,-2.5034,-2.4305,-2.4004,0.0,0.0,0.0,0.0,0.0,0.0,0.0,0.0,0.0,0.0,0.0,-2.6332,-2.6609,-2.6716,-2.7092,-2.7369,-2.7544,-2.8097,-2.8649,-2.9202,-2.9603,-2.9804,-2.9804,-2.9804,-2.9804,-2.9804,-2.9804,-2.9804,-2.9804,-2.9804,-2.9804,-2.9804,-3.8542,-3.8868,-3.9044,-3.9597,-3.9697,-3.9697,-3.9697,-3.9697,-3.9496,-3.8944,-3.8391,-3.8241,-3.8818,-3.7864,-3.7186,-3.7186,-3.6684,-3.5906,-3.4826,-3.4751,-3.3997,0.0,0.0,-3.116,-3.0633,-2.9503,-2.8674,-2.8122,0.0,0.0,-2.7293,0.0,-2.7821,-2.7318,-2.7871,-2.7795,-2.7318,-2.7871,-2.8097,-2.8047,-2.7494,-2.7268,-2.7268,-2.7293,-2.6942,-2.6684,-2.772,-2.8122,-2.8197,-2.875,-2.8925,-2.8825,-2.8273,-2.8097,-2.7996,-2.7444,-2.7293,-2.7168,-2.6684,-2.6892,-2.7419,-2.7971,-2.8524,-2.9076,-2.9654,-2.9352,-2.8624,-2.7519,-2.7293,-2.7118,-2.6634,-2.6533,-2.6533,-2.6533,0.0,0.0,0.0,0.0,0.0,-2.5661,-2.6088,-2.6013,-2.4908,-2.5259,0.0,0.0,0.0,0.0,0.0,0.0,0.0,-2.5536,-2.5586,0.0,-2.6508,-2.6533,-2.681,-2.7268,-2.7293,-2.757,-2.8122,-2.8674,-2.9227,-2.9779,-2.9804,-2.9804,-2.9804,-2.9804,-2.9804,-2.9804,-2.9804,-2.9804,-2.9804,-2.9804,-2.9804,-2.9804,-3.9245,-3.9421,-3.9496,-3.9672,-3.9371,-3.912,-3.912,-3.8793,-3.8492,-3.8316,-3.7789,-3.7513,-3.7688,-3.6734,-3.6056,0.0,-3.5554,-3.5102,0.0,-3.4374,-3.3746,-3.2842,-3.1888,-3.116,-3.0633,-2.9905,-2.9227,-2.8674,0.0,0.0,0.0,-2.7243,-2.6892,-2.6741,-2.7293,-2.7444,-2.7318,-2.7871,-2.8097,-2.8097,-2.7921,-2.7846,-2.7846,-2.7846,-2.7971,-2.8197,-2.8549,-2.8925,-2.9277,-2.9453,-2.9528,-2.9352,-2.8398,-2.8097,-2.7996,-2.7444,-2.7544,-2.7896,-2.8097,-2.7996,-2.8072,-2.9026,-2.9101,-2.9076,-2.9654,-2.9051,-2.8172,-2.7444,-2.6992,-2.6666,-2.6559,-2.6533,-2.6533,-2.6533,-2.6533,0.0,0.0,0.0,-2.6458,-2.6214,-2.6013,-2.5737,-2.5385,-2.5184,0.0,0.0,0.0,0.0,0.0,0.0,0.0,0.0,-2.6339,0.0,-2.7017,-2.7394,-2.767,-2.7846,-2.8222,-2.8699,-2.9252,-2.9428,-2.9628,-2.9804,-2.9804,-2.9804,-2.9804,-2.9804,-2.9804,-2.9804,-2.9804,-2.9804,-2.9804,-2.9804,-2.9804,-2.9804,-3.8944,-3.9069,-3.9069,-3.9069,-3.8768,-3.8542,-3.8542,-3.8241,-3.7939,-3.7739,-3.7387,-3.7111,-3.6885,-3.5906,0.0,-3.5437,-3.5052,-3.4625,-3.4424,-3.4098,-3.347,-3.2491,-3.1763,-3.106,-3.0331,-2.9955,0.0,-2.8925,-2.8875,-2.8373,-2.7469,-2.6791,-2.6533,-2.6559,-2.7243,-2.7469,-2.7344,-2.8323,-2.8499,-2.8097,-2.8097,-2.7971,-2.777,-2.757,-2.7821,-2.8323,-2.8323,-2.88,-2.9478,-2.9478,-2.9603,-2.9603,-2.8473,-2.8398,-2.8549,-2.757,-2.7369,-2.7645,-2.8423,-2.8222,-2.8072,-2.9176,-2.9202,-2.9026,-2.9377,-2.8775,-2.7946,-2.7394,-2.6841,-2.6533,-2.6533,-2.6533,-2.6533,-2.6533,-2.6533,-2.6533,-2.6533,0.0,-2.6533,0.0,0.0,0.0,0.0,-2.5636,-2.5435,0.0,0.0,0.0,0.0,0.0,0.0,-2.6214,-2.6917,0.0,-2.7595,-2.7921,-2.8222,-2.8423,-2.8976,-2.9453,-2.9804,-2.9804,-2.9804,-2.9804,-2.9804,-2.9804,-2.9804,-2.9804,-2.9804,-2.9804,-2.9804,-2.9804,-2.9804,-2.9804,-2.9804,-2.9804,-3.7889,-3.8015,0.0,0.0,-3.7965,0.0,-3.7939,-3.7914,-3.7713,-3.7186,-3.7086,-3.6885,-3.6358,-3.5328,-3.4876,-3.5378,0.0,0.0,0.0,-3.3796,-3.3068,-3.1461,-3.1361,-3.0859,-2.9804,-2.9804,-2.9528,-2.8976,-2.7921,-2.7118,-2.6634,-2.6609,-2.6559,-2.6584,-2.757,-2.777,-2.7394,-2.9001,-2.9076,-2.8097,-2.8097,-2.7795,-2.7293,-2.6766,-2.6892,-2.7344,-2.7344,-2.7996,-2.8875,-2.8875,-2.9227,-2.9478,-2.8398,-2.88,-2.9352,-2.7745,-2.6967,-2.6841,-2.7871,-2.7795,-2.7645,-2.8725,-2.895,-2.8925,-2.8875,-2.8448,-2.7896,-2.7344,-2.6816,-2.6533,-2.6533,-2.6533,-2.6533,-2.6533,-2.6483,-2.6483,-2.6508,0.0,-2.6483,0.0,0.0,0.0,0.0,-2.6533,-2.6559,0.0,0.0,0.0,0.0,0.0,-2.6239,-2.7243,-2.7344,-2.7645,-2.8147,-2.8197,-2.8473,-2.9001,-2.9528,-2.9804,-2.9804,-2.9804,-2.9804,-2.9804,-2.9804,-2.9804,-2.9804,-2.9804,-2.9804,-2.9804,-2.9804,-2.9804,-2.9804,-2.9804,-2.9804,-2.9804,0.0,0.0,-3.8015,-3.8015,-3.7663,-3.7387,-3.7387,-3.701,-3.6709,-3.6584,-3.6207,-3.5881,-3.5755,-3.4751,-3.4148,-3.4274,-3.3796,-3.342,-3.3294,-3.2867,-3.224,-3.1436,-3.1009,-3.0482,-2.9804,-2.9804,-2.9729,-2.9578,-2.8875,-2.8247,-2.772,-2.7293,-2.6866,-2.6559,-2.7168,-2.7394,-2.7344,-2.8147,-2.8348,-2.8097,-2.8097,-2.8021,-2.7896,-2.777,-2.7795,-2.7921,-2.7921,-2.8072,-2.8298,-2.8298,-2.8398,-2.8373,-2.7695,-2.7946,-2.8348,-2.7519,-2.7795,-2.8398,-2.8674,-2.8649,-2.8699,-2.9428,-2.9252,-2.8825,-2.8398,-2.7871,-2.7318,-2.6766,-2.6609,-2.6533,-2.6533,-2.6533,-2.6533,-2.6533,-2.6088,-2.5963,-2.6458,-2.6088,0.0,0.0,-2.6533,-2.6533,-2.6533,-2.6533,-2.671,0.0,0.0,0.0,0.0,-2.7595,-2.7444,-2.7293,-2.8097,-2.8599,-2.8725,-2.9176,-2.9453,-2.9603,-2.9729,-2.9804,-2.9804,-2.9804,-2.9804,-2.9804,-2.9804,-2.9804,-2.9804,-2.9804,-2.9804,-2.9804,-2.9804,-2.9804,-2.9804,-2.9804,-2.9804,-2.9804,-3.686,-3.7086,-3.7186,-3.6935,-3.6835,-3.681,-3.681,-3.6332,-3.5981,-3.5981,-3.5504,-3.5177,-3.5177,-3.4399,-3.3796,-3.3545,-3.3244,-3.2968,-3.2692,-3.239,-3.1863,-3.106,-3.0758,-3.0357,-2.9804,-2.9804,-2.9654,-2.9402,-2.9076,-2.8524,-2.772,-2.7419,-2.6992,-2.6559,-2.7042,-2.7143,-2.6967,-2.777,-2.7821,-2.7369,-2.762,-2.757,-2.7344,-2.7344,-2.7519,-2.772,-2.772,-2.7896,-2.8097,-2.8097,-2.8097,-2.8021,-2.7444,-2.7846,-2.8273,-2.7218,-2.7519,-2.8348,-2.9126,-2.895,-2.875,-2.9578,-2.9176,-2.8549,-2.8499,-2.7871,-2.7193,-2.6892,-2.671,-2.6533,-2.6533,-2.6533,-2.6433,-2.6113,-2.5812,-2.5711,-2.6013,-2.5787,0.0,-2.6741,-2.6841,-2.6942,-2.7193,-2.7218,-2.7344,-2.7645,-2.7896,0.0,-2.8097,-2.8599,-2.8624,-2.8047,-2.8624,-2.9051,-2.9327,-2.9628,-2.9804,-2.9804,-2.9804,-2.9804,-2.9804,-2.9804,-2.9804,-2.9804,-2.9804,-2.9804,-2.9804,-2.9804,-2.9804,-2.9804,-2.9804,-2.9804,-2.9804,-2.9804,-2.9804,-2.9804,-3.5655,-3.5906,-3.6056,-3.5529,-3.5805,-3.6107,-3.6107,-3.573,-3.5429,-3.5429,-3.4951,-3.46,-3.46,-3.4098,-3.3545,-3.2993,-3.2943,-3.2692,-3.2114,-3.2014,-3.1562,-3.0658,-3.0532,-3.0281,-2.9804,-2.9804,-2.9553,-2.9051,-2.8976,-2.8398,-2.7394,-2.7318,-2.6992,-2.6559,-2.6942,-2.6892,-2.6584,-2.7444,-2.7318,-2.6559,-2.6967,-2.6892,-2.6533,-2.6533,-2.6741,-2.7168,-2.7168,-2.7444,-2.7871,-2.7871,-2.7871,-2.777,-2.7293,-2.7871,-2.8398,-2.6992,-2.6917,-2.762,-2.9126,-2.89,-2.8448,-2.9428,-2.8825,-2.8097,-2.8574,-2.7896,-2.7168,-2.7168,-2.6791,-2.6533,-2.6533,-2.6533,-2.6289,-2.5812,-2.5661,-2.5636,-2.5711,0.0,-2.6013,-2.7143,-2.7293,-2.7494,-2.8047,-2.8097,-2.8147,-2.8222,-2.8674,-2.8775,-2.8373,-2.9277,-2.9578,-2.9076,-2.9051,-2.9302,-2.9779,-2.9804,-2.9804,-2.9804,-2.9804,-2.9804,-2.9804,-2.9804,-2.9804,-2.9804,-2.9804,-2.9804,-2.9804,-2.9804,-2.9804,-2.9804,-2.9804,-2.9804,-2.9804,-2.9804,-2.9804,-2.9804,-3.5655,-3.5629,-3.5504,-3.4951,-3.4926,-3.4977,-3.4977,-3.4901,-3.4851,-3.4851,-3.4374,-3.4022,-3.4022,-3.3545,-3.2968,-3.239,-3.234,-3.2114,-3.1562,-3.111,-3.0783,-3.0633,-3.0181,-2.988,-2.9804,-2.9804,-2.9754,-2.9654,-2.9176,-2.8599,-2.7971,-2.7494,-2.6992,-2.6533,-2.6609,-2.6609,-2.6533,-2.671,-2.6615,-2.6533,-2.6609,-2.6609,-2.6533,-2.6533,-2.6584,-2.659,-2.659,-2.671,-2.6716,-2.6716,-2.6716,-2.6691,-2.6615,-2.7017,-2.7494,-2.7243,-2.7218,-2.7444,-2.8172,-2.8574,-2.885,-2.9026,-2.8222,-2.7444,-2.7519,-2.7042,-2.659,-2.659,-2.6584,-2.6533,-2.6533,-2.6533,-2.6508,-2.6408,-2.5912,-2.5762,-2.6264,0.0,-2.6013,-2.7143,-2.7293,-2.7494,-2.8047,-2.8097,-2.8298,-2.8775,-2.8875,-2.9101,-2.9503,-2.9704,-2.9754,-2.9654,-2.9654,-2.9704,-2.9804,-2.9804,-2.9804,-2.9804,-2.9804,-2.9804,-2.9804,-2.9804,-2.9804,-2.9804,-2.9804,-2.9804,-2.9804,-2.9804,-2.9804,-2.9804,-2.9804,-2.9804,-2.9804,-2.9804,-2.9804,-2.9804,-3.4826,-3.5127,-3.5278,-3.4424,-3.4525,-3.4726,-3.4726,-3.4474,-3.4274,-3.4274,-3.352,-3.2993,-3.2993,-3.2491,-3.1938,-3.1411,-3.1361,-3.111,-3.0557,-3.0583,-3.0482,-3.0181,-2.993,-2.9804,-2.9804,-2.9804,-2.9804,-2.9804,-2.9227,-2.8649,-2.8097,-2.7544,-2.6992,-2.6533,-2.6533,-2.6533,-2.6533,-2.6533,-2.6533,-2.6533,-2.6533,-2.6533,-2.6533,-2.6533,-2.6533,-2.6533,-2.6533,-2.6533,-2.6533,-2.6533,-2.6533,-2.6533,-2.6533,-2.6841,-2.7218,-2.6917,-2.7268,-2.772,-2.767,-2.7846,-2.8122,-2.8423,-2.7645,-2.6917,-2.7218,-2.6866,-2.6533,-2.6533,-2.6533,-2.6533,-2.6533,-2.6533,-2.6533,-2.6533,-2.5737,0.0,0.0,-2.5963,-2.6113,-2.757,-2.7996,-2.8398,-2.895,-2.9026,-2.9126,-2.9377,-2.9402,-2.9503,-2.9779,-2.9804,-2.9804,-2.9804,-2.9804,-2.9804,-2.9804,-2.9804,-2.9804,-2.9804,-2.9804,-2.9804,-2.9804,-2.9804,-2.9804,-2.9804,-2.9804,-2.9804,-2.9804,-2.9804,-2.9804,-2.9804,-2.9804,-2.9804,-2.9754,-2.9453,-2.9327,-2.9327,-3.4098,-3.4575,-3.4851,-3.3872,-3.4048,-3.4349,-3.4349,-3.3872,-3.352,-3.352,-3.2641,-3.2014,-3.2014,-3.1637,-3.1185,-3.0658,-3.0608,-3.0382,-2.9829,-3.0181,-3.0231,-2.9804,-2.9804,-2.9804,-2.9804,-2.9804,-2.9804,-2.9804,-2.9076,-2.8524,-2.8097,-2.7394,-2.6866,-2.6533,-2.6533,-2.6533,-2.6533,-2.6533,-2.6533,-2.6533,-2.6533,-2.6533,-2.6533,-2.6533,-2.6533,-2.6533,-2.6533,-2.6533,-2.6533,-2.6533,-2.6533,-2.6533,-2.6533,-2.6741,-2.7017,-2.6659,-2.7067,-2.7695,-2.7519,-2.7369,-2.7394,-2.7821,-2.7193,-2.6634,-2.6992,-2.6866,-2.671,-2.671,-2.6766,-2.6841,-2.6841,-2.6841,-2.6791,-2.6735,0.0,0.0,0.0,-2.6364,-2.6716,-2.8122,-2.8674,-2.9151,-2.9729,-2.9804,-2.9804,-2.9804,-2.9804,-2.9804,-2.9804,-2.9804,-2.9804,-2.9804,-2.9804,-2.9804,-2.9804,-2.9804,-2.9804,-2.9804,-2.9804,-2.9804,-2.9804,-2.9804,-2.9804,-2.9804,-2.9804,-2.9804,-2.9804,-2.9804,-2.9804,-2.9804,-2.9804,-2.9804,-2.9729,-2.9151,-2.8925,-2.89,-3.4022,-3.3972,-3.3847,-3.3244,-3.3169,-3.3194,-3.3194,-3.2717,-3.234,-3.234,-3.1813,-3.1461,-3.1461,-3.1411,-3.1185,-3.0658,-3.0608,-3.0382,-2.9829,-2.9829,-2.9829,-2.9804,-2.9804,-2.9804,-2.9804,-2.9804,-2.9804,-2.9804,-2.8699,-2.8147,-2.8072,-2.7017,-2.6559,-2.6533,-2.6533,-2.6533,-2.6533,-2.6533,-2.6533,-2.6533,-2.6533,-2.6533,-2.6533,-2.6533,-2.6533,-2.6533,-2.6533,-2.6533,-2.6533,-2.6533,-2.6533,-2.6533,-2.6533,-2.6559,-2.6584,-2.6533,-2.6584,-2.6791,-2.777,-2.767,-2.7293,-2.7344,-2.6892,-2.6533,-2.6584,-2.6892,-2.7218,-2.7218,-2.762,-2.7971,-2.7971,-2.7971,-2.7821,-2.7293,0.0,0.0,-2.7293,-2.762,-2.8147,-2.88,-2.89,-2.9151,-2.9729,-2.9804,-2.9804,-2.9804,-2.9804,-2.9804,-2.9804,-2.9804,-2.9804,-2.9804,-2.9804,-2.9804,-2.9804,-2.9804,-2.9804,-2.9804,-2.9804,-2.9804,-2.9804,-2.9804,-2.9804,-2.9804,-2.9804,-2.9804,-2.9804,-2.9804,-2.9804,-2.9804,-2.9804,-2.9804,-2.9729,-2.9151,-2.8925,-2.885,-3.3495,-3.3671,-3.3721,-3.3169,-3.3068,-3.3068,-3.3068,-3.2591,-3.2215,-3.2215,-3.1461,-3.0909,-3.0909,-3.0608,-3.0331,-3.0131,-3.0105,-3.0005,-2.9804,-2.9804,-2.9804,-2.9804,-2.9804,-2.9804,-2.9804,-2.9428,-2.9252,-2.9252,-2.8147,-2.7595,-2.757,-2.6816,-2.6533,-2.6533,-2.6533,-2.6533,-2.6533,-2.6533,-2.6533,-2.6533,-2.6533,-2.6533,-2.6533,-2.6533,-2.6533,-2.6533,-2.6533,-2.6533,-2.6533,-2.6533,-2.6533,-2.6533,-2.6533,-2.6533,-2.6609,-2.6866,-2.6967,-2.7143,-2.7896,-2.7695,-2.7369,-2.772,-2.7645,-2.7469,-2.7469,-2.7645,-2.7795,-2.7795,-2.7971,-2.8097,-2.8097,-2.8097,-2.8147,-2.8273,0.0,-2.777,-2.8247,-2.8197,-2.8323,-2.8875,-2.9252,-2.9553,-2.9779,-2.9804,-2.9804,-2.9804,-2.9804,-2.9804,-2.9804,-2.9804,-2.9804,-2.9804,-2.9804,-2.9804,-2.9804,-2.9804,-2.9804,-2.9804,-2.9804,-2.9804,-2.9804,-2.9804,-2.9804,-2.9804,-2.9804,-2.9804,-2.9804,-2.9804,-2.9804,-2.9804,-2.9804,-2.9578,-2.9176,-2.8624,-2.8423,-2.8348,-3.3144,-3.3395,-3.352,-3.3144,-3.3068,-3.3018,-3.2842,-3.2315,-3.1888,-3.1738,-3.0909,-3.0357,-3.0357,-3.003,-2.9804,-2.9804,-2.9804,-2.9804,-2.9804,-2.9804,-2.9804,-2.9804,-2.9804,-2.9804,-2.9804,-2.9227,-2.8925,-2.8925,-2.7821,-2.7293,-2.7268,-2.6716,-2.6533,-2.6533,-2.6533,-2.6533,-2.6533,-2.6533,-2.6533,-2.6533,-2.6533,-2.6533,-2.6533,-2.6533,-2.6533,-2.6533,-2.6533,-2.6533,-2.6533,-2.6533,-2.6533,-2.6559,-2.6666,-2.6841,-2.7017,-2.7218,-2.7394,-2.767,-2.8222,-2.8097,-2.7846,-2.8047,-2.8097,-2.8097,-2.8097,-2.8247,-2.8373,-2.8373,-2.8499,-2.8624,-2.8624,-2.8624,-2.8699,-2.89,-2.8448,-2.8273,-2.885,-2.8775,-2.8775,-2.9151,-2.9553,-2.9804,-2.9804,-2.9804,-2.9804,-2.9804,-2.9804,-2.9804,-2.9804,-2.9804,-2.9804,-2.9804,-2.9804,-2.9804,-2.9804,-2.9804,-2.9804,-2.9804,-2.9804,-2.9804,-2.9804,-2.9804,-2.9804,-2.9804,-2.9804,-2.9804,-2.9804,-2.9804,-2.9804,-2.9804,-2.9804,-2.9553,-2.9126,-2.8574,-2.8373,-2.8273,-3.3068,-3.3068,-3.3068,-3.3068,-3.3068,-3.2867,-3.229,-3.1738,-3.121,-3.0683,-3.0131,-2.9804,-2.9804,-2.9804,-2.9804,-2.9804,-2.9804,-2.9804,-2.9804,-2.9804,-2.9804,-2.9804,-2.9804,-2.9804,-2.9804,-2.9227,-2.8925,-2.8925,-2.7821,-2.7268,-2.7268,-2.6716,-2.6533,-2.6533,-2.6533,-2.6533,-2.6533,-2.6533,-2.6533,-2.6533,-2.6533,-2.6533,-2.6533,-2.6533,-2.6533,-2.6533,-2.6533,-2.6533,-2.6533,-2.6533,-2.6533,-2.6634,-2.7118,-2.767,-2.7996,-2.7444,-2.7695,-2.8222,-2.8775,-2.8925,-2.88,-2.8247,-2.8122,-2.8122,-2.8122,-2.8549,-2.8925,-2.8925,-2.9402,-2.9804,-2.9804,-2.9804,-2.9603,-2.9026,-2.9428,-2.9603,-2.9026,-2.9428,-2.9804,-2.9804,-2.9804,-2.9804,-2.9804,-2.9804,-2.9804,-2.9804,-2.9804,-2.9804,-2.9804,-2.9804,-2.9804,-2.9804,-2.9804,-2.9804,-2.9804,-2.9804,-2.9804,-2.9804,-2.9804,-2.9804,-2.9804,-2.9804,-2.9804,-2.9804,-2.9804,-2.9804,-2.9804,-2.9804,-2.9804,-2.9804,-2.9804,-2.9804,-2.9704,-2.9151,-2.8925,-2.885,-3.239,-3.2466,-3.2466,-3.2466,-3.2466,-3.2416,-3.224,-3.1436,-3.0934,-3.1135,-3.0357,-2.9804,-2.9804,-2.9804,-2.9804,-2.9804,-2.9804,-2.9804,-2.9804,-2.9804,-2.9804,-2.9804,-2.9804,-2.9804,-2.9804,-2.885,-2.8348,-2.8348,-2.7243,-2.6716,-2.676,-2.6609,-2.6533,-2.6533,-2.6533,-2.6533,-2.6533,-2.6533,-2.6533,-2.6533,-2.6533,-2.6533,-2.6533,-2.6533,-2.6533,-2.6533,-2.6533,-2.6533,-2.6584,-2.6892,-2.7042,-2.7143,-2.7695,-2.7971,-2.8147,-2.8373,-2.8549,-2.88,-2.9377,-2.9528,-2.9503,-2.9327,-2.9277,-2.9277,-2.9277,-2.9428,-2.9528,-2.9528,-2.9679,-2.9804,-2.9804,-2.9804,-2.9729,-2.9553,-2.9679,-2.9729,-2.9553,-2.9679,-2.9804,-2.9804,-2.9804,-2.9804,-2.9804,-2.9804,-2.9804,-2.9804,-2.9804,-2.9804,-2.9804,-2.9804,-2.9804,-2.9804,-2.9804,-2.9804,-2.9804,-2.9804,-2.9804,-2.9804,-2.9804,-2.9804,-2.9804,-2.9804,-2.9804,-2.9804,-2.9804,-2.9804,-2.9804,-2.9804,-2.9804,-2.9804,-2.9804,-2.9553,-2.9176,-2.9001,-2.8925,-2.885,-3.2363,-3.2739,-3.2901,-3.2495,-3.2414,-3.2199,-3.1694,-3.1035,-3.0658,-3.0758,-3.0206,-2.9804,-2.9804,-2.9804,-2.9804,-2.9804,-2.9804,-2.9804,-2.9804,-2.9804,-2.9804,-2.9804,-2.9804,-2.9804,-2.9804,-2.8674,-2.8097,-2.8097,-2.6992,-2.6533,-2.6533,-2.6533,-2.6533,-2.6533,-2.6533,-2.6533,-2.6533,-2.6533,-2.6533,-2.6533,-2.6533,-2.6533,-2.6533,-2.6533,-2.6533,-2.6533,-2.6533,-2.6659,-2.6841,-2.7168,-2.757,-2.7946,-2.8072,-2.8423,-2.88,-2.89,-2.9101,-2.9352,-2.9704,-2.9804,-2.9804,-2.9804,-2.9804,-2.9804,-2.9804,-2.9804,-2.9804,-2.9804,-2.9804,-2.9804,-2.9804,-2.9804,-2.9804,-2.9804,-2.9804,-2.9804,-2.9804,-2.9804,-2.9804,-2.9804,-2.9804,-2.9804,-2.9804,-2.9804,-2.9804,-2.9804,-2.9804,-2.9804,-2.9804,-2.9804,-2.9804,-2.9804,-2.9804,-2.9804,-2.9804,-2.9804,-2.9804,-2.9804,-2.9804,-2.9804,-2.9804,-2.9804,-2.9804,-2.9804,-2.9804,-2.9804,-2.9804,-2.9804,-2.9804,-2.9804,-2.9804,-2.9578,-2.9277,-2.9277,-2.9277,-2.9202,-3.296,-3.3684,-3.3963,-3.2907,-3.2751,-3.228,-3.0842,-3.0583,-3.0382,-2.993,-2.9829,-2.9804,-2.9804,-2.9804,-2.9804,-2.9804,-2.9804,-2.9804,-2.9804,-2.9804,-2.9804,-2.9804,-2.9804,-2.9804,-2.9804,-2.8674,-2.8097,-2.8097,-2.6992,-2.6533,-2.6533,-2.6533,-2.6533,-2.6533,-2.6533,-2.6533,-2.6533,-2.6533,-2.6533,-2.6533,-2.6533,-2.6533,-2.6533,-2.6533,-2.6533,-2.6533,-2.6584,-2.6866,-2.7293,-2.7394,-2.8122,-2.8925,-2.8423,-2.8976,-2.9679,-2.9151,-2.9377,-2.9804,-2.9804,-2.9804,-2.9804,-2.9804,-2.9804,-2.9804,-2.9804,-2.9804,-2.9804,-2.9804,-2.9804,-2.9804,-2.9804,-2.9804,-2.9804,-2.9804,-2.9804,-2.9804,-2.9804,-2.9804,-2.9804,-2.9804,-2.9804,-2.9804,-2.9804,-2.9804,-2.9804,-2.9804,-2.9804,-2.9804,-2.9804,-2.9804,-2.9804,-2.9804,-2.9804,-2.9804,-2.9804,-2.9804,-2.9804,-2.9804,-2.9804,-2.9804,-2.9804,-2.9804,-2.9804,-2.9804,-2.9804,-2.9804,-2.9804,-2.9804,-2.9804,-2.9804,-2.9804,-2.9804,-2.9804,-2.9804,-2.9804,-2.9704,-3.4005,-3.4266,-3.3875,-3.2455,-3.2146,-3.1837,-3.0767,-3.0256,-3.008,-3.0407,-3.0055,-2.9804,-2.9804,-2.9804,-2.9804,-2.9804,-2.9804,-2.9804,-2.9804,-2.9804,-2.9804,-2.9804,-2.9804,-2.9804,-2.9804,-2.8674,-2.8097,-2.8097,-2.6992,-2.6533,-2.6533,-2.6533,-2.6533,-2.6533,-2.6533,-2.6533,-2.6533,-2.6533,-2.6533,-2.6533,-2.6533,-2.6533,-2.6533,-2.6533,-2.6533,-2.6584,-2.6942,-2.7193,-2.7419,-2.8273,-2.9026,-2.9578,-2.9453,-2.9603,-2.9754,-2.9654,-2.9704,-2.9804,-2.9804,-2.9804,-2.9804,-2.9804,-2.9804,-2.9804,-2.9804,-2.9804,-2.9804,-2.9804,-2.9804,-2.9804,-2.9804,-2.9804,-2.9804,-2.9804,-2.9804,-2.9804,-2.9804,-2.9804,-2.9804,-2.9804,-2.9804,-2.9804,-2.9804,-2.9804,-2.9804,-2.9804,-2.9804,-2.9804,-2.9804,-2.9804,-2.9804,-2.9804,-2.9804,-2.9804,-2.9804,-2.9804,-2.9804,-2.9804,-2.9804,-2.9804,-2.9804,-2.9804,-2.9804,-2.9804,-2.9804,-2.9804,-2.9804,-2.9804,-2.9804,-2.9804,-2.9804,-2.9804,-2.9804,-2.9804,-2.9804,-2.9654,-3.4651,-3.5096,-3.5011,-3.3633,-3.3183,-3.2654,-3.1717,-3.0979,-3.0598,-3.0804,-3.024,-2.9804,-2.9804,-2.9804,-2.9804,-2.9804,-2.9804,-2.9804,-2.9804,-2.9804,-2.9804,-2.9804,-2.9804,-2.9804,-2.9804,-2.895,-2.8373,-2.8097,-2.7268,-2.6716,-2.6533,-2.6533,-2.6659,-2.6841,-2.6841,-2.6992,-2.7243,-2.7243,-2.7243,-2.7243,-2.7243,-2.7092,-2.6841,-2.6841,-2.6841,-2.6892,-2.7168,-2.762,-2.8197,-2.9051,-2.9553,-2.9804,-2.9804,-2.9804,-2.9804,-2.9804,-2.9804,-2.9804,-2.9804,-2.9804,-2.9804,-2.9804,-2.9804,-2.9804,-2.9804,-2.9804,-2.9804,-2.9804,-2.9804,-2.9804,-2.9804,-2.9804,-2.9804,-2.9804,-2.9804,-2.9804,-2.9804,-2.9804,-2.9804,-2.9804,-2.9804,-2.9804,-2.9804,-2.9804,-2.9804,-2.9804,-2.9804,-2.9804,-2.9804,-2.9804,-2.9804,-2.9804,-2.9804,-2.9804,-2.9804,-2.9804,-2.9804,-2.9804,-2.9804,-2.9804,-2.9804,-2.9804,-2.9804,-2.9804,-2.9804,-2.9804,-2.9804,-2.9804,-2.9804,-2.9804,-2.9804,-2.9804,-2.9754,-2.9478,-2.9051,-2.8499,-3.527,-3.5946,-3.6149,-3.5056,-3.4387,-3.3671,-3.2735,-3.1947,-3.1462,-3.1462,-3.062,-3.0062,-3.0062,-2.9856,-2.9804,-2.9804,-2.9804,-2.9804,-2.9804,-2.9804,-2.9804,-2.9804,-2.9804,-2.9804,-2.9804,-2.9327,-2.88,-2.8247,-2.7595,-2.7092,-2.6741,-2.671,-2.6892,-2.7419,-2.7419,-2.767,-2.8097,-2.8097,-2.8097,-2.8097,-2.8097,-2.7821,-2.7419,-2.7419,-2.7419,-2.7444,-2.7519,-2.8222,-2.9151,-2.9628,-2.9804,-2.9804,-2.9804,-2.9804,-2.9804,-2.9804,-2.9804,-2.9804,-2.9804,-2.9804,-2.9804,-2.9804,-2.9804,-2.9804,-2.9804,-2.9804,-2.9804,-2.9804,-2.9804,-2.9804,-2.9804,-2.9804,-2.9804,-2.9804,-2.9804,-2.9804,-2.9804,-2.9804,-2.9804,-2.9804,-2.9804,-2.9804,-2.9804,-2.9804,-2.9804,-2.9804,-2.9804,-2.9804,-2.9804,-2.9804,-2.9804,-2.9804,-2.9804,-2.9804,-2.9804,-2.9804,-2.9804,-2.9804,-2.9804,-2.9804,-2.9804,-2.9804,-2.9804,-2.9804,-2.9804,-2.9804,-2.9804,-2.9804,-2.9804,-2.9804,-2.9804,-2.9804,-2.9729,-2.9151,-2.8298,-2.7394,-3.6343,-3.641,-3.6,-3.4408,-3.407,-3.3671,-3.2735,-3.2451,-3.2379,-3.2379,-3.1609,-3.1044,-3.1044,-3.0292,-2.9804,-2.9804,-2.9804,-2.9804,-2.9804,-2.9804,-2.9804,-2.9804,-2.9804,-2.9804,-2.9804,-2.9704,-2.9402,-2.8825,-2.7795,-2.7494,-2.7871,-2.7394,-2.7469,-2.7996,-2.7996,-2.8047,-2.8097,-2.8097,-2.8097,-2.8097,-2.8097,-2.8072,-2.7996,-2.7996,-2.7996,-2.8047,-2.8524,-2.9126,-2.9679,-2.9754,-2.9804,-2.9804,-2.9804,-2.9804,-2.9804,-2.9804,-2.9804,-2.9804,-2.9804,-2.9804,-2.9804,-2.9804,-2.9804,-2.9804,-2.9804,-2.9804,-2.9804,-2.9804,-2.9804,-2.9804,-2.9804,-2.9804,-2.9804,-2.9804,-2.9804,-2.9804,-2.9804,-2.9804,-2.9804,-2.9804,-2.9804,-2.9804,-2.9804,-2.9804,-2.9804,-2.9804,-2.9804,-2.9804,-2.9804,-2.9804,-2.9804,-2.9804,-2.9804,-2.9804,-2.9804,-2.9804,-2.9804,-2.9804,-2.9804,-2.9804,-2.9804,-2.9804,-2.9804,-2.9804,-2.9804,-2.9804,-2.9804,-2.9804,-2.9804,-2.9804,-2.9804,-2.9804,-2.9729,-2.9151,-2.8524,-2.7921,-3.6477,-3.6477,-3.6253,-3.5495,-3.5074,-3.4706,-3.4274,-3.3739,-3.3394,-3.3394,-3.2522,-3.1947,-3.1947,-3.1119,-3.0545,-3.0545,-3.0062,-2.9804,-2.9804,-2.9804,-2.9804,-2.9804,-2.9804,-2.9804,-2.9804,-2.9804,-2.9679,-2.9402,-2.8599,-2.8172,-2.8097,-2.7871,-2.8047,-2.8574,-2.8574,-2.875,-2.9051,-2.9051,-2.9051,-2.9051,-2.9051,-2.885,-2.8574,-2.8574,-2.8574,-2.8649,-2.9202,-2.9578,-2.9804,-2.9804,-2.9804,-2.9804,-2.9804,-2.9804,-2.9804,-2.9804,-2.9804,-2.9804,-2.9804,-2.9804,-2.9804,-2.9804,-2.9804,-2.9804,-2.9804,-2.9804,-2.9804,-2.9804,-2.9804,-2.9804,-2.9804,-2.9804,-2.9804,-2.9804,-2.9804,-2.9804,-2.9804,-2.9804,-2.9804,-2.9804,-2.9804,-2.9804,-2.9804,-2.9804,-2.9804,-2.9804,-2.9804,-2.9804,-2.9804,-2.9804,-2.9804,-2.9804,-2.9804,-2.9804,-2.9804,-2.9804,-2.9804,-2.9804,-2.9804,-2.9804,-2.9804,-2.9804,-2.9804,-2.9804,-2.9804,-2.9804,-2.9804,-2.9804,-2.9804,-2.9804,-2.9804,-2.9402,-2.8825,-2.8574,-2.7921,-2.7143]},{"header":{"parameterUnit":"m.s-1","parameterCategory":1,"la1":30.6,"la2":28.766,"lo1":-90.7593,"lo2":-88.6598,"dy":0.0162,"dx":0.0183,"nx":116,"ny":114,"refTime":"2023-06-25T00:00:00:Z","depth":0,"parameterNumber":3,"parameterNumberName":"V-component_of_WINDS"},"data":[0.0,0.0,0.0,0.0,0.0,0.0,0.0,0.0,0.0,0.0,0.0,0.0,0.0,0.0,0.0,0.0,0.0,0.0,0.0,0.0,0.0,0.0,0.0,0.0,0.0,0.0,0.0,0.0,0.0,0.0,0.0,0.0,0.0,0.0,0.0,0.0,0.0,0.0,0.0,0.0,0.0,0.0,0.0,0.0,0.0,0.0,0.0,0.0,0.0,0.0,0.0,0.0,0.0,0.0,0.0,0.0,0.0,0.0,0.0,0.0,0.0,0.0,0.0,0.0,0.0,0.0,0.0,0.0,0.0,0.0,0.0,0.0,0.0,0.0,0.0,0.0,0.0,0.0,0.0,0.0,0.0,0.0,0.0,0.0,0.0,0.0,0.0,0.0,0.0,0.0,0.0,0.0,0.0,0.0,0.0,0.0,0.0,0.0,0.0,0.0,0.0,0.0,0.0,0.0,0.0,0.0,0.0,0.0,0.0,0.0,0.0,0.0,0.0,0.0,0.0,0.0,0.0,0.0,0.0,0.0,0.0,0.0,0.0,0.0,0.0,0.0,0.0,0.0,0.0,0.0,0.0,0.0,0.0,0.0,0.0,0.0,0.0,0.0,0.0,0.0,0.0,0.0,0.0,0.0,0.0,0.0,0.0,0.0,0.0,0.0,0.0,0.0,0.0,0.0,0.0,0.0,0.0,0.0,0.0,0.0,0.0,0.0,0.0,0.0,0.0,0.0,0.0,0.0,0.0,0.0,0.0,0.0,0.0,0.0,0.0,0.0,0.0,0.0,0.0,0.0,0.0,0.0,0.0,0.0,0.0,0.0,0.0,0.0,0.0,0.0,0.0,0.0,0.0,0.0,0.0,0.0,0.0,0.0,0.0,0.0,0.0,0.0,0.0,0.0,0.0,0.0,0.0,0.0,0.0,0.0,0.0,0.0,0.0,0.0,0.0,0.0,0.0,0.0,0.0,0.0,0.0,0.0,0.0,0.0,0.0,0.0,0.0,0.0,0.0,0.0,0.0,0.0,0.0,0.0,0.0,0.0,0.0,0.0,0.0,0.0,0.0,0.0,0.0,0.0,0.0,0.0,0.0,0.0,0.0,0.0,0.0,0.0,0.0,0.0,0.0,0.0,0.0,0.0,0.0,0.0,0.0,0.0,0.0,0.0,0.0,0.0,0.0,0.0,0.0,0.0,0.0,0.0,0.0,0.0,0.0,0.0,0.0,0.0,0.0,0.0,0.0,0.0,0.0,0.0,0.0,0.0,0.0,0.0,0.0,0.0,0.0,0.0,0.0,0.0,0.0,0.0,0.0,0.0,0.0,0.0,0.0,0.0,0.0,0.0,0.0,0.0,0.0,0.0,0.0,0.0,0.0,0.0,0.0,0.0,0.0,0.0,0.0,0.0,0.0,0.0,0.0,0.0,0.0,0.0,0.0,0.0,0.0,0.0,0.0,0.0,0.0,0.0,0.0,0.0,0.0,0.0,0.0,0.0,0.0,0.0,0.0,0.0,0.0,0.0,0.0,0.0,0.0,0.0,0.0,0.0,0.0,0.0,0.0,0.0,0.0,0.0,0.0,0.0,0.0,0.0,0.0,0.0,0.0,0.0,0.0,0.0,0.0,0.0,0.0,0.0,0.0,0.0,0.0,0.0,0.0,0.0,0.0,0.0,0.0,0.0,0.0,0.0,0.0,0.0,0.0,0.0,0.0,0.0,0.0,0.0,0.0,0.0,0.0,0.0,0.0,0.0,0.0,0.0,0.0,0.0,0.0,0.0,0.0,0.0,0.0,0.0,0.0,0.0,0.0,0.0,0.0,0.0,0.0,0.0,0.0,0.0,0.0,0.0,0.0,0.0,0.0,0.0,0.0,0.0,0.0,0.0,0.0,0.0,0.0,0.0,0.0,0.0,0.0,0.0,0.0,0.0,0.0,0.0,0.0,0.0,0.0,0.0,0.0,0.0,0.0,0.0,0.0,0.0,0.0,0.0,0.0,0.0,0.0,0.0,0.0,0.0,0.0,0.0,0.0,0.0,0.0,0.0,0.0,0.0,0.0,0.0,0.0,0.0,0.0,0.0,0.0,0.0,0.0,0.0,0.0,0.0,0.0,0.0,0.0,0.0,0.0,0.0,0.0,0.0,0.0,0.0,0.0,0.0,0.0,0.0,0.0,0.0,0.0,0.0,0.0,0.0,0.0,0.0,0.0,0.0,0.0,0.0,0.0,0.0,0.0,0.0,0.0,0.0,0.0,0.0,0.0,0.0,0.0,0.0,0.0,0.0,0.0,0.0,0.0,0.0,0.0,0.0,0.0,0.0,0.0,0.0,0.0,0.0,0.0,0.0,0.0,0.0,0.0,0.0,0.0,0.0,0.0,0.0,0.0,0.0,0.0,0.0,0.0,0.0,0.0,0.0,0.0,0.0,0.0,0.0,0.0,0.0,0.0,0.0,0.0,0.0,0.0,0.0,0.0,0.0,0.0,0.0,0.0,0.0,0.0,0.0,0.0,0.0,0.0,0.0,0.0,0.0,0.0,0.0,0.0,0.0,0.0,0.0,0.0,0.0,0.0,0.0,0.0,0.0,0.0,0.0,0.0,0.0,0.0,0.0,0.0,0.0,0.0,0.0,0.0,0.0,0.0,0.0,0.0,0.0,0.0,0.0,0.0,0.0,0.0,0.0,0.0,0.0,0.0,0.0,0.0,0.0,0.0,0.0,0.0,0.0,0.0,0.0,0.0,0.0,0.0,0.0,0.0,0.0,0.0,0.0,0.0,0.0,0.0,0.0,0.0,0.0,0.0,0.0,0.0,0.0,0.0,0.0,0.0,0.0,0.0,0.0,0.0,0.0,0.0,0.0,0.0,0.0,0.0,0.0,0.0,0.0,0.0,0.0,0.0,0.0,0.0,0.0,0.0,0.0,0.0,0.0,0.0,0.0,0.0,0.0,0.0,0.0,0.0,0.0,0.0,0.0,0.0,0.0,0.0,0.0,0.0,0.0,0.0,0.0,0.0,0.0,0.0,0.0,0.0,0.0,0.0,0.0,0.0,0.0,0.0,0.0,0.0,0.0,0.0,0.0,0.0,0.0,0.0,0.0,0.0,0.0,0.0,0.0,0.0,0.0,0.0,0.0,0.0,0.0,0.0,0.0,0.0,0.0,0.0,0.0,0.0,0.0,0.0,0.0,0.0,0.0,0.0,0.0,0.0,0.0,0.0,0.0,0.0,0.0,0.0,0.0,0.0,0.0,0.0,0.0,0.0,0.0,0.0,0.0,0.0,0.0,0.0,0.0,0.0,0.0,0.0,0.0,0.0,0.0,0.0,0.0,0.0,0.0,0.0,0.0,0.0,0.0,0.0,0.0,0.0,0.0,0.0,0.0,0.0,0.0,0.0,0.0,0.0,0.0,0.0,0.0,0.0,0.0,0.0,0.0,0.0,0.0,0.0,0.0,0.0,0.0,0.0,0.0,0.0,0.0,0.0,0.0,0.0,0.0,0.0,0.0,0.0,0.0,0.0,0.0,0.0,0.0,0.0,0.0,0.0,0.0,0.0,0.0,0.0,0.0,0.0,0.0,0.0,0.0,0.0,0.0,0.0,0.0,0.0,0.0,0.0,0.0,0.0,0.0,0.0,0.0,0.0,0.0,0.0,0.0,0.0,0.0,0.0,0.0,0.0,0.0,0.0,0.0,0.0,0.0,0.0,0.0,0.0,0.0,0.0,0.0,0.0,0.0,0.0,0.0,0.0,0.0,0.0,0.0,0.0,0.0,0.0,0.0,0.0,0.0,0.0,0.0,0.0,0.0,0.0,0.0,0.0,0.0,0.0,0.0,0.0,0.0,0.0,0.0,0.0,0.0,0.0,0.0,0.0,0.0,0.0,0.0,0.0,0.0,0.0,0.0,0.0,0.0,0.0,0.0,0.0,0.0,0.0,0.0,0.0,0.0,0.0,0.0,0.0,0.0,0.0,0.0,0.0,0.0,0.0,0.0,0.0,0.0,0.0,0.0,0.0,0.0,0.0,0.0,0.0,0.0,0.0,0.0,0.0,0.0,0.0,0.0,0.0,0.0,0.0,0.0,0.0,0.0,0.0,0.0,0.0,0.0,0.0,0.0,0.0,0.0,0.0,0.0,0.0,0.0,0.0,0.0,0.0,0.0,0.0,0.0,0.0,0.0,0.0,0.0,0.0,0.0,0.0,0.0,0.0,0.0,0.0,0.0,0.0,0.0,0.0,0.0,0.0,0.0,0.0,0.0,0.0,0.0,0.0,0.0,0.0,0.0,0.0,0.0,0.0,0.0,0.0,0.0,0.0,0.0,0.0,0.0,0.0,0.0,0.0,0.0,0.0,0.0,0.0,0.0,0.0,0.0,0.0,0.0,0.0,0.0,0.0,0.0,0.0,0.0,0.0,0.0,0.0,0.0,0.0,0.0,0.0,0.0,0.0,0.0,0.0,0.0,0.0,0.0,0.0,0.0,0.0,0.0,0.0,0.0,0.0,0.0,0.0,0.0,0.0,0.0,0.0,0.0,0.0,0.0,0.0,0.0,0.0,0.0,0.0,0.0,0.0,0.0,0.0,0.0,0.0,0.0,0.0,0.0,0.0,0.0,0.0,0.0,0.0,0.0,0.0,0.0,0.0,0.0,0.0,0.0,0.0,0.0,0.0,0.0,0.0,0.0,0.0,0.0,0.0,0.0,0.0,0.0,0.0,0.0,0.0,0.0,0.0,0.0,0.0,0.0,0.0,0.0,0.0,0.0,0.0,0.0,0.0,0.0,0.0,0.0,0.0,0.0,0.0,0.0,0.0,0.0,0.0,0.0,0.0,0.0,0.0,0.0,0.0,0.0,0.0,0.0,0.0,0.0,0.0,0.0,0.0,0.0,0.0,0.0,0.0,0.0,0.0,0.0,0.0,0.0,0.0,0.0,0.0,0.0,0.0,0.0,0.0,0.0,0.0,0.0,0.0,0.0,0.0,0.0,0.0,0.0,0.0,0.0,0.0,0.0,0.0,0.0,0.0,0.0,0.0,0.0,0.0,0.0,0.0,0.0,0.0,0.0,0.0,0.0,0.0,0.0,0.0,0.0,0.0,0.0,0.0,0.0,0.0,0.0,0.0,0.0,0.0,0.0,0.0,0.0,0.0,0.0,0.0,0.0,0.0,0.0,0.0,0.0,0.0,0.0,0.0,0.0,0.0,0.0,0.0,0.0,0.0,0.0,0.0,0.0,0.0,0.0,0.0,0.0,0.0,0.0,0.0,0.0,0.0,0.0,0.0,0.0,0.0,0.0,0.0,0.0,0.0,0.0,0.0,0.0,0.0,0.0,0.0,0.0,0.0,0.0,0.0,0.0,0.0,0.0,0.0,0.0,0.0,0.0,0.0,0.0,0.0,0.0,0.0,0.0,0.0,0.0,0.0,0.0,0.0,0.0,0.0,0.0,0.0,0.0,0.0,0.0,0.0,0.0,0.0,0.0,0.0,0.0,0.0,0.0,0.0,0.0,0.0,0.0,0.0,0.0,0.0,0.0,0.0,0.0,0.0,0.0,0.0,0.0,0.0,0.0,0.0,0.0,0.0,0.0,0.0,0.0,0.0,0.0,0.0,0.0,0.0,0.0,0.0,0.0,0.0,0.0,0.0,0.0,0.0,0.0,0.0,0.0,0.0,0.0,0.0,0.0,0.0,0.0,0.0,0.0,0.0,0.0,0.0,0.0,0.0,0.0,0.0,0.0,0.0,0.0,0.0,0.0,0.0,0.0,0.0,0.0,0.0,0.0,0.0,0.0,0.0,0.0,0.0,0.0,0.0,0.0,0.0,0.0,0.0,0.0,0.0,0.0,0.0,0.0,0.0,0.0,0.0,0.0,0.0,0.0,0.0,0.0,0.0,0.0,0.0,0.0,0.0,0.0,0.0,0.0,0.0,0.0,0.0,0.0,0.0,0.0,0.0,0.0,0.0,0.0,0.0,0.0,0.0,0.0,0.0,0.0,0.0,0.0,0.0,0.0,0.0,0.0,0.0,0.0,0.0,0.0,0.0,0.0,0.0,0.0,0.0,0.0,0.0,0.0,0.0,0.0,0.0,0.0,0.0,0.0,0.0,0.0,-1.9961,0.0,0.0,0.0,0.0,0.0,0.0,0.0,0.0,0.0,0.0,0.0,0.0,0.0,0.0,0.0,0.0,0.0,0.0,0.0,0.0,0.0,0.0,0.0,0.0,0.0,0.0,0.0,0.0,0.0,0.0,0.0,0.0,0.0,0.0,0.0,0.0,0.0,0.0,0.0,-2.9656,-2.9352,-2.9021,-2.9278,-2.8609,-2.7184,0.0,0.0,0.0,0.0,0.0,0.0,0.0,0.0,0.0,0.0,0.0,0.0,0.0,0.0,0.0,0.0,0.0,0.0,0.0,0.0,0.0,0.0,0.0,0.0,0.0,0.0,0.0,0.0,0.0,0.0,0.0,0.0,0.0,0.0,0.0,0.0,0.0,0.0,0.0,0.0,0.0,0.0,0.0,0.0,0.0,0.0,0.0,0.0,0.0,0.0,0.0,0.0,0.0,0.0,0.0,0.0,0.0,0.0,0.0,0.0,0.0,0.0,0.0,0.0,0.0,0.0,0.0,0.0,0.0,0.0,0.0,-2.1821,0.0,0.0,0.0,0.0,0.0,0.0,0.0,0.0,0.0,0.0,0.0,0.0,0.0,0.0,0.0,0.0,0.0,0.0,0.0,0.0,0.0,0.0,0.0,0.0,0.0,0.0,0.0,0.0,0.0,0.0,0.0,0.0,0.0,0.0,0.0,0.0,0.0,-3.0012,-2.9555,-2.9705,-3.0493,-3.0773,-3.0099,-2.8548,-2.9245,0.0,0.0,0.0,0.0,0.0,0.0,0.0,0.0,0.0,0.0,0.0,0.0,0.0,0.0,0.0,0.0,0.0,0.0,0.0,0.0,0.0,0.0,0.0,0.0,0.0,0.0,0.0,0.0,0.0,0.0,0.0,0.0,0.0,0.0,0.0,0.0,0.0,0.0,0.0,0.0,0.0,0.0,0.0,0.0,0.0,0.0,0.0,0.0,0.0,0.0,0.0,0.0,0.0,0.0,0.0,0.0,0.0,0.0,0.0,0.0,0.0,0.0,0.0,-2.3193,-2.3722,-2.4331,-2.4679,-2.5948,-2.7587,-2.5061,-2.4424,-2.5293,-2.2767,0.0,0.0,0.0,0.0,0.0,0.0,0.0,0.0,0.0,0.0,0.0,0.0,0.0,0.0,0.0,0.0,0.0,0.0,0.0,0.0,0.0,0.0,0.0,0.0,0.0,0.0,0.0,0.0,0.0,0.0,0.0,0.0,0.0,-3.1048,-3.0514,-2.9599,-2.9682,-3.0231,-3.1311,-3.3535,-3.4419,-3.4126,-3.2045,-3.2646,-3.5186,0.0,0.0,0.0,0.0,0.0,0.0,0.0,0.0,0.0,0.0,0.0,0.0,0.0,0.0,0.0,0.0,0.0,0.0,0.0,0.0,0.0,0.0,0.0,0.0,0.0,0.0,0.0,0.0,0.0,0.0,0.0,0.0,0.0,0.0,0.0,0.0,0.0,0.0,0.0,0.0,0.0,-1.2204,-1.168,0.0,0.0,0.0,0.0,0.0,0.0,0.0,0.0,0.0,0.0,0.0,0.0,0.0,-2.1951,-2.3287,-2.4142,-2.4356,-2.3981,-2.5037,-2.5184,-2.4676,-2.631,-2.7232,-2.7725,-2.7167,0.0,-2.8535,-2.4743,0.0,0.0,0.0,0.0,0.0,0.0,0.0,0.0,0.0,0.0,0.0,0.0,0.0,0.0,0.0,0.0,0.0,0.0,0.0,0.0,0.0,0.0,0.0,0.0,0.0,0.0,0.0,0.0,0.0,0.0,0.0,0.0,-3.239,-3.1882,-3.1356,-3.0777,-3.1675,-3.3064,-3.4821,-3.5976,-3.7558,-3.9284,-3.7087,-3.6248,-3.6276,-3.4576,0.0,0.0,0.0,0.0,0.0,0.0,0.0,0.0,0.0,0.0,0.0,0.0,0.0,0.0,0.0,0.0,0.0,0.0,0.0,0.0,0.0,0.0,0.0,0.0,0.0,0.0,0.0,0.0,0.0,0.0,0.0,0.0,0.0,0.0,0.0,0.0,0.0,0.0,0.0,-1.359,-1.4596,-1.3901,-1.4778,-1.4917,0.0,0.0,0.0,0.0,0.0,0.0,0.0,0.0,0.0,-2.1658,-2.2704,-2.3694,-2.4502,-2.5384,-2.5772,-2.5678,-2.6533,-2.6814,-2.66,-2.7327,-2.8232,-2.9472,-2.9279,-3.0485,-3.2077,-2.747,-2.6671,-2.8118,0.0,0.0,0.0,0.0,-2.5162,-2.5882,0.0,0.0,0.0,0.0,0.0,0.0,0.0,0.0,0.0,0.0,0.0,0.0,0.0,0.0,0.0,-3.4474,0.0,0.0,0.0,0.0,0.0,0.0,0.0,-3.3579,-3.3409,-3.2886,-3.2745,-3.301,-3.4477,-3.6393,-3.8639,-3.9203,-4.0896,-4.3286,-4.2058,-4.04,-3.8351,-3.6589,-3.5182,-3.4058,0.0,0.0,0.0,0.0,0.0,0.0,0.0,0.0,0.0,0.0,0.0,0.0,0.0,0.0,0.0,0.0,0.0,0.0,0.0,0.0,0.0,0.0,0.0,0.0,0.0,0.0,0.0,0.0,0.0,0.0,0.0,0.0,0.0,0.0,0.0,0.0,0.0,-1.5873,-1.7129,-1.6014,-1.7467,-1.7576,0.0,0.0,0.0,0.0,0.0,0.0,-2.0039,-2.1344,-2.2701,-2.378,-2.4875,-2.5555,-2.6092,-2.6667,-2.7068,-2.7281,-2.7642,-2.7923,-2.8136,-2.7909,-2.862,-3.0064,-2.9981,-3.1606,-3.4259,-3.0321,-2.9637,-3.0844,-2.9354,-2.8314,-2.7566,-2.7809,-2.8033,-2.8539,0.0,0.0,0.0,0.0,0.0,0.0,0.0,0.0,0.0,0.0,0.0,0.0,0.0,0.0,-3.6232,-3.8391,-3.9835,-4.0281,0.0,0.0,0.0,0.0,-3.5223,-3.4454,-3.3785,-3.3945,-3.4836,-3.647,-3.8145,-3.9861,-4.1633,-4.3925,-4.5096,-4.5306,-4.5752,-4.5221,-4.3558,-3.8855,-3.7034,-3.7142,-3.4186,0.0,0.0,0.0,0.0,0.0,0.0,0.0,0.0,0.0,0.0,0.0,0.0,0.0,0.0,0.0,0.0,0.0,0.0,0.0,0.0,0.0,0.0,0.0,0.0,0.0,0.0,0.0,0.0,0.0,0.0,0.0,0.0,0.0,0.0,0.0,0.0,0.0,0.0,-1.7744,-2.0118,0.0,0.0,0.0,0.0,-1.9973,-2.0823,-2.1848,-2.3492,-2.4311,-2.5321,-2.664,-2.7255,-2.7976,-2.8831,-2.8604,-2.8497,-2.8511,-2.8243,-2.8123,-2.8136,-2.8123,-2.8292,-2.8278,-2.8265,-3.0495,-3.3967,-3.3029,-3.3035,-3.3277,-3.1988,-3.1367,-3.1066,-3.0907,-3.1123,-3.1373,0.0,0.0,0.0,0.0,0.0,0.0,0.0,0.0,0.0,0.0,0.0,0.0,0.0,-3.688,-3.9322,-4.2293,-4.3677,-4.4407,-4.4263,0.0,0.0,0.0,0.0,-3.6166,-3.5913,-3.6522,-3.7479,-3.8811,-4.0586,-4.239,-4.4157,-4.5006,-4.5869,-4.6609,-4.642,-4.6052,-4.5394,-4.1858,-3.9446,-3.7533,-3.4925,-3.3043,0.0,0.0,0.0,0.0,0.0,0.0,0.0,0.0,0.0,0.0,0.0,0.0,0.0,0.0,0.0,0.0,0.0,0.0,0.0,0.0,0.0,0.0,0.0,0.0,0.0,0.0,0.0,0.0,0.0,0.0,0.0,0.0,0.0,0.0,0.0,0.0,0.0,-2.2167,-2.3187,0.0,-2.1358,-2.1584,-2.2001,-2.2512,-2.3533,-2.456,-2.5692,-2.6507,-2.7277,-2.7949,-2.835,-2.8711,-2.9032,-2.9125,-2.8978,-2.8604,-2.8684,-2.8511,-2.8136,-2.8136,-2.8136,-2.8305,-3.1241,-3.2869,-3.3851,-3.6326,-3.6847,-3.5879,-3.4595,-3.363,-3.3126,-3.3097,-3.2941,-3.2805,0.0,0.0,0.0,0.0,0.0,0.0,0.0,0.0,0.0,0.0,0.0,-3.3705,-3.6134,-3.8844,-4.1868,-4.518,-4.6352,-4.6754,-4.6384,0.0,0.0,0.0,-3.8453,-3.7849,-3.7828,-3.9266,-4.0464,-4.1482,-4.3076,-4.4694,-4.6077,-4.6077,-4.6462,-4.7279,-4.686,-4.6651,-4.6531,-4.4526,-4.1585,-3.7959,-3.5853,-3.4242,-3.284,0.0,0.0,0.0,0.0,0.0,0.0,0.0,0.0,0.0,0.0,0.0,0.0,0.0,0.0,0.0,0.0,0.0,0.0,0.0,0.0,0.0,0.0,0.0,0.0,0.0,0.0,0.0,0.0,0.0,0.0,0.0,0.0,0.0,0.0,0.0,-2.5455,-2.5393,-2.5607,-2.5216,-2.3696,-2.4162,-2.4691,-2.5009,-2.5898,-2.6854,-2.7535,-2.8217,-2.8684,-2.8898,-2.9179,-2.9285,-2.9192,-2.9285,-2.9138,-2.8751,-2.8738,-2.8577,-2.8297,-2.819,-2.8136,-2.846,-3.1945,-3.3403,-3.3901,-3.7264,-3.8374,-3.7832,-3.5965,-3.4812,-3.4031,-3.3326,-3.3236,-3.35,0.0,0.0,0.0,0.0,0.0,0.0,0.0,0.0,0.0,0.0,-3.2148,-3.4439,-3.7127,-4.0304,-4.3679,-4.731,-4.7595,-4.7059,-4.5789,-4.4004,0.0,0.0,0.0,0.0,-3.9559,-4.1948,-4.3588,-4.4377,-4.5753,-4.6741,-4.7339,-4.7369,-4.7369,-4.7369,-4.7369,-4.7369,-4.7309,-4.6681,-4.3455,-3.8695,-3.692,-3.5283,-3.3539,0.0,0.0,0.0,0.0,0.0,0.0,0.0,0.0,0.0,0.0,0.0,0.0,0.0,0.0,0.0,0.0,0.0,0.0,0.0,0.0,0.0,0.0,0.0,0.0,0.0,0.0,0.0,0.0,0.0,0.0,0.0,0.0,0.0,-2.7182,-2.7506,-2.7786,-2.7462,-2.7381,-2.6894,-2.5331,-2.648,-2.7428,-2.7722,-2.8297,-2.8764,-2.9045,-2.9339,-2.9499,-2.9513,-2.978,-2.978,-2.9513,-2.9205,-2.9045,-2.9032,-2.8444,-2.831,-2.8577,-2.8283,-2.8305,-2.846,-3.0093,-3.2034,-3.42,-3.5515,-3.7352,-3.8934,-3.6128,-3.4685,-3.3983,-3.1854,-3.213,-3.3671,0.0,0.0,0.0,0.0,0.0,0.0,0.0,0.0,0.0,0.0,-3.3953,-3.6635,-4.0749,-4.3065,-4.5982,-5.0416,-4.8957,-4.7949,-4.829,0.0,0.0,0.0,0.0,0.0,-4.291,-4.4056,-4.5012,-4.5783,-4.7578,-4.8297,-4.8027,-4.8506,-4.8716,-4.8716,-4.8716,-4.8716,-4.8686,-4.8027,-4.561,-4.1999,-3.9005,-3.6469,-3.4307,0.0,0.0,0.0,0.0,0.0,0.0,0.0,0.0,0.0,0.0,0.0,0.0,0.0,0.0,0.0,0.0,0.0,0.0,0.0,0.0,0.0,0.0,0.0,0.0,0.0,0.0,0.0,0.0,0.0,0.0,0.0,0.0,-3.1399,-3.0997,-3.1655,-3.1946,-3.1313,-3.0733,-2.9599,-2.7821,-2.8003,-2.8364,-2.8644,-2.9032,-2.9272,-2.9352,-2.9633,-2.99,-3.0114,-2.9993,-2.998,-3.0114,-2.9619,-2.9259,-2.9032,-2.8657,-2.8404,-2.827,-2.8177,-2.9118,-3.0563,-3.2336,-3.4117,-3.6058,-3.7727,-3.8561,-3.8691,-3.7528,-3.6761,-3.636,-3.536,-3.4765,-3.4394,0.0,0.0,0.0,0.0,0.0,0.0,0.0,0.0,0.0,0.0,-3.4481,-3.7258,-4.0604,-4.3152,-4.5921,-4.9266,-4.7846,-4.65,-4.5998,0.0,0.0,0.0,0.0,-4.2641,-4.5095,-4.6082,-4.689,-4.7549,-4.8716,-4.9075,-4.8716,-4.9075,-4.9254,-4.9254,-4.9254,-4.9254,-4.9254,-4.8265,-4.6368,-4.3737,-4.0932,-3.8452,-3.6277,-3.3983,-3.3507,-3.3896,-3.2968,-3.2867,-3.2893,-3.1687,0.0,0.0,0.0,0.0,0.0,0.0,0.0,0.0,0.0,0.0,0.0,0.0,0.0,0.0,0.0,0.0,0.0,0.0,0.0,0.0,0.0,0.0,0.0,0.0,-3.2441,-3.4622,-3.5317,-3.5092,-3.4416,-3.338,-3.2096,-3.0767,-2.891,-2.8791,-2.8965,-2.9379,-2.9566,-2.9659,-2.9659,-2.982,-2.9993,-3.0167,-3.0007,-2.9887,-2.9806,-2.9472,-2.9152,-2.8858,-2.8551,-2.839,-2.8337,-2.9187,-3.026,-3.1527,-3.3947,-3.5661,-3.6687,-3.8269,-3.8691,0.0,0.0,0.0,0.0,0.0,-3.4293,-3.3293,0.0,0.0,0.0,0.0,0.0,0.0,0.0,0.0,0.0,0.0,0.0,-3.7138,-3.847,-4.1692,-4.432,-4.601,-4.5183,-4.3716,0.0,0.0,0.0,-4.0696,-4.309,-4.5095,-4.6501,-4.7758,-4.8686,-4.9254,-4.9404,-4.9464,-4.9374,-4.9523,-4.9583,-4.9583,-4.9673,-4.9673,-4.9492,-4.8021,-4.6328,-4.4553,-4.261,-4.056,-3.8542,-3.6508,-3.6307,-3.696,-3.5931,-3.4726,-3.352,-3.2817,0.0,0.0,0.0,0.0,0.0,0.0,0.0,0.0,0.0,0.0,0.0,0.0,0.0,0.0,0.0,0.0,0.0,0.0,0.0,0.0,0.0,0.0,0.0,0.0,-3.5433,-3.7539,-3.9199,-3.7727,-3.6118,-3.4568,-3.2833,-3.1175,-2.9485,-2.9206,-2.9299,-2.9927,-2.9967,-2.998,-3.002,0.0,0.0,0.0,0.0,-2.9659,-2.9138,-2.9072,-2.8898,-2.8604,-2.8297,-2.8453,-2.905,-3.0556,-3.1707,-3.2289,-3.5295,-3.6687,-3.6904,-3.8092,-3.8223,-3.7631,-3.5829,-3.5067,-3.4885,-3.3599,-3.2494,-3.1851,0.0,0.0,0.0,0.0,0.0,0.0,0.0,0.0,0.0,-3.3311,-3.4896,-3.7177,-4.043,-4.1137,-4.267,-4.5959,-4.3701,-4.1406,0.0,0.0,-4.0965,-4.2701,-4.4257,-4.5992,-4.7878,-4.8686,-4.9134,-4.9254,-5.0331,-5.0571,-5.0062,-5.1139,-5.1648,-5.1648,-5.2187,-5.2127,-5.1494,-4.963,-4.7729,-4.5796,-4.3712,-4.1025,-3.809,-3.7186,-3.6734,-3.6433,-3.578,-3.6207,-3.6835,-3.5378,-3.5353,-3.5655,-3.4109,-3.2585,0.0,0.0,0.0,0.0,0.0,0.0,0.0,0.0,0.0,0.0,0.0,0.0,0.0,0.0,0.0,0.0,0.0,0.0,0.0,-3.5268,-3.7383,-3.9199,-4.0605,-4.0473,-3.9405,-3.7435,-3.5265,-3.347,-3.1807,-3.0045,-2.9379,-3.0207,-3.0274,-3.0381,-3.0608,-3.0408,-3.0381,-3.0621,-3.0167,-2.986,-2.9753,-2.9272,-2.8898,-2.8604,0.0,0.0,-3.0846,-3.1271,-3.319,-3.6114,-3.6457,-3.7477,-3.8644,-3.8253,-3.7598,-3.6914,-3.6475,-3.6124,-3.5701,-3.4739,-3.4239,-3.3931,0.0,0.0,0.0,0.0,0.0,0.0,0.0,0.0,0.0,0.0,-3.4775,-3.6536,-3.8684,-3.9572,-4.0684,-4.2535,-4.0382,0.0,0.0,-3.9828,-4.1294,-4.324,-4.4915,-4.6591,-4.8237,-4.8925,-4.9434,-4.9763,-5.072,-5.105,-5.075,-5.1738,-5.2187,-5.2217,-5.2875,-5.2815,-5.2061,-4.9666,-4.7752,-4.6082,-4.3677,-4.1511,-3.9622,-3.9069,-3.8693,-3.8366,-3.7814,-3.7977,-3.8376,-3.7526,-3.7129,-3.6676,-3.5915,-3.4361,-3.2549,0.0,0.0,0.0,0.0,0.0,0.0,0.0,0.0,0.0,0.0,0.0,0.0,0.0,0.0,-2.8966,0.0,0.0,-3.5371,-3.7808,-3.9168,-4.0176,-4.1055,-4.1172,-4.0353,-3.8213,-3.6922,-3.5258,-3.2474,-3.1382,-3.0594,-3.0469,-3.0354,-3.0421,-3.0568,-3.0434,-3.0354,-3.0354,-2.9927,-2.9633,-2.9472,-3.0045,-3.0326,-3.0014,-3.0998,-3.2052,-3.3022,-3.4164,-3.5578,-3.7301,-3.8001,-3.8689,-3.9121,-3.8047,-3.7246,-3.6641,-3.6426,-3.5937,-3.5273,-3.4629,-3.4258,-3.4004,0.0,0.0,0.0,0.0,0.0,0.0,0.0,0.0,0.0,0.0,-3.4584,-3.5817,-3.6429,-3.771,-3.8477,0.0,0.0,0.0,0.0,-3.9858,-4.1534,-4.3629,-4.5514,-4.713,-4.8446,-4.8985,-4.9703,-5.0631,-5.1139,-5.1468,-5.1618,-5.2276,-5.2606,-5.2606,-5.3264,-5.3144,-5.2174,-4.9444,-4.7584,-4.6173,-4.3429,-4.1982,-4.143,-4.0877,-4.0601,-4.0425,-4.0056,-3.938,-3.8727,-3.9203,-3.8166,-3.6577,-3.677,-3.559,-3.367,-3.1598,-3.0044,0.0,0.0,0.0,0.0,0.0,0.0,0.0,0.0,0.0,-2.7218,-2.8545,-3.0655,-3.286,-3.4911,-3.6437,-3.7895,-3.9766,-4.0371,-4.0781,-4.1133,-4.1172,-4.0509,-3.8706,-3.8213,-3.6737,-3.3813,-3.3275,-3.2555,-3.1262,-3.1736,-3.1791,-3.1313,-3.1218,-3.104,-3.0794,-3.0438,-3.0082,-2.9713,-3.1616,-3.2434,-3.2052,-3.3839,-3.4975,-3.5298,-3.7082,-3.7801,-3.7814,-3.9069,-3.9336,-3.875,-3.7715,-3.6992,-3.6504,-3.6074,-3.5469,-3.4785,-3.4355,-3.3926,-3.3535,0.0,0.0,0.0,0.0,0.0,0.0,0.0,0.0,0.0,0.0,0.0,0.0,0.0,0.0,0.0,0.0,0.0,0.0,-3.923,-4.0546,-4.2402,-4.4975,-4.6441,-4.7818,-4.9134,-4.9224,-5.0152,-5.1977,-5.2067,-5.2396,-5.2965,-5.3653,-5.3982,-5.4012,-5.467,-5.4251,-5.2957,-5.0096,-4.8221,-4.6806,-4.4023,-4.2559,-4.2007,-4.1455,-4.0953,-4.048,-4.0482,-3.9337,-3.8018,-3.9771,-3.8765,-3.6907,-3.761,-3.6341,-3.413,-3.1574,-2.9572,-2.7561,-2.4913,-2.3979,-2.386,-2.4051,-2.4748,-2.5937,0.0,0.0,-3.1252,-3.2506,-3.4471,-3.6385,-3.7319,-3.8234,-3.9316,-4.0293,-4.082,-4.1113,-4.1172,-4.1172,-4.1172,-4.0841,-3.904,-3.8042,-3.8159,-3.6879,-3.5303,-3.3871,-3.6177,-3.6838,-3.4788,-3.4256,-3.3916,-3.3886,-3.3309,-3.2688,-3.1881,-3.4182,-3.4981,-3.4327,-3.4651,-3.5621,-3.7578,-3.7737,-3.8457,-3.96,-3.8934,-3.8262,-3.75,-3.7363,-3.6816,-3.6055,-3.5625,-3.541,-3.5254,-3.4805,-3.4355,-3.3945,0.0,0.0,0.0,0.0,0.0,0.0,0.0,0.0,0.0,0.0,0.0,0.0,0.0,0.0,0.0,0.0,0.0,0.0,-3.929,-4.0277,-4.2162,-4.5155,-4.6232,-4.7369,-4.8656,-4.9075,-4.9853,-5.105,-5.1828,-5.2336,-5.2636,-5.3713,-5.4221,-5.4221,-5.4491,-5.3852,-5.2325,-4.9643,-4.7695,-4.6169,-4.3951,-4.266,-4.2057,-4.1204,-4.0099,-3.9045,-3.9025,-3.8475,0.0,0.0,-3.7591,-3.6512,-3.7034,-3.5608,-3.3171,-3.1039,-2.9509,-2.8222,-2.6378,-2.5937,-2.6241,-2.7149,-2.8799,-3.0458,-3.1598,-3.3283,-3.4797,-3.5797,-3.7332,-3.873,-3.9336,-3.9941,-4.0469,0.0,-4.1055,-4.1172,-4.1172,-4.0957,-4.0703,-4.0449,-3.9836,-3.916,-3.8653,-3.8265,-3.7437,-3.6114,-3.7403,-3.7925,-3.7194,-3.6749,-3.64,-3.6193,-3.551,-3.4906,-3.4213,-3.6338,-3.7125,-3.6602,-3.7896,-3.8882,-3.9864,-3.9864,-3.9893,-3.9844,-3.8965,-3.8086,-3.7305,-3.7305,-3.6797,-3.5996,-3.582,-3.5449,-3.4961,-3.4766,-3.4434,-3.4043,0.0,0.0,0.0,0.0,0.0,0.0,0.0,0.0,0.0,0.0,0.0,0.0,0.0,0.0,0.0,0.0,0.0,0.0,0.0,-3.9649,-4.1444,-4.4347,-4.5484,-4.6651,-4.7997,-4.8835,-4.9673,-5.0511,-5.1828,-5.2576,-5.2785,-5.3952,-5.4491,-5.4491,-5.4491,-5.352,-5.1592,-4.9378,-4.7349,-4.5437,-4.3602,-4.2333,-4.1555,-4.03,-3.8793,-3.7383,-3.7621,-3.7127,0.0,0.0,-3.5548,-3.4445,-3.4914,-3.3639,-3.1601,-2.9764,-2.8539,-2.766,-2.7042,-2.7422,-2.8379,-2.9902,-3.2148,-3.418,-3.4961,-3.6289,-3.7617,-3.8457,-3.9394,-4.0156,-4.0469,-4.0684,-4.0859,-4.0976,-4.0996,-4.1035,-4.1152,-4.0703,-4.0234,-3.9922,-3.9941,-3.9682,-3.8901,-3.9479,-3.9353,-3.8184,-3.9234,-3.963,-3.9355,-3.9117,-3.8811,-3.8438,-3.7691,-3.7114,-3.6558,-3.8509,-3.9271,-3.8882,-4.0353,-4.1172,-4.1172,-4.0937,-4.041,-3.9648,-3.8769,-3.7988,-3.7285,-3.7168,-3.6699,-3.6016,-3.6016,-3.5566,-3.4883,-3.4883,-3.4473,-3.3887,0.0,0.0,0.0,0.0,0.0,0.0,0.0,0.0,0.0,0.0,0.0,0.0,0.0,0.0,0.0,0.0,0.0,0.0,0.0,-3.8721,-4.0337,-4.2372,-4.4287,-4.5963,-4.7309,-4.8596,-4.9883,-5.1199,-5.2516,-5.3503,-5.4162,-5.485,-5.5149,-5.5149,-5.5149,-5.3668,-5.1062,-4.9659,-4.7485,-4.4807,-4.3016,-4.153,-4.0375,-3.8718,-3.7061,-3.5789,-3.7075,0.0,0.0,0.0,-3.2604,-2.9977,-3.0907,-3.0424,0.0,-2.7634,-2.5965,-2.4839,-2.6055,-2.7617,-2.9394,-3.1562,-3.373,-3.5762,-3.7422,-3.8496,-3.9375,-4.0254,-4.0469,-4.0508,-4.0527,-4.0195,-4.0078,-4.0469,-4.0547,-4.0684,-4.1113,-4.0449,-3.9902,-3.9902,-3.9141,-3.8984,0.0,-4.1289,-4.1599,-4.0205,-4.2952,-4.3785,-4.1485,-4.1467,-4.1287,-4.089,-3.991,-3.9299,-3.8904,-4.0678,-4.1425,-4.1172,-4.1172,-4.1172,-4.1152,-4.0312,-3.9668,-3.918,-3.832,-3.7695,-3.7266,-3.6855,-3.6426,-3.6016,-3.6016,-3.5762,-3.5371,-3.5371,-3.4551,-3.3437,0.0,0.0,0.0,0.0,0.0,0.0,0.0,0.0,0.0,0.0,0.0,0.0,0.0,0.0,0.0,0.0,0.0,0.0,0.0,-3.7823,-3.896,-4.0965,-4.2521,-4.4167,-4.5933,-4.7279,-4.8596,-4.9912,-5.1229,-5.2007,-5.2247,-5.3354,-5.3862,-5.3832,-5.2464,-5.1062,-4.9469,-4.6914,-4.5178,-4.3985,-4.1544,-4.03,-3.9697,-3.7287,-3.5102,-3.333,0.0,0.0,0.0,-3.0559,-2.9343,-2.8052,-2.7971,-2.7364,-2.6585,-2.6319,-2.6215,-2.6543,-2.8418,-3.0371,-3.2441,-3.4609,-3.6543,-3.8223,-3.9375,-4.0098,-4.0508,-4.0527,-4.0059,-3.9551,-3.9277,-3.8652,-3.8496,-3.9492,-3.9648,-4.0,-4.1035,-4.0684,-3.998,-3.9121,-3.9277,0.0,0.0,0.0,0.0,-4.1979,-4.3581,-4.4369,-4.3766,-4.3785,-4.3462,-4.274,-4.2169,-4.1542,-4.0857,-4.1539,-4.1582,-4.1172,-4.0879,-4.0742,-4.0723,-3.9844,-3.9355,-3.916,-3.8301,-3.7676,-3.7266,-3.6836,-3.6406,-3.6016,-3.6016,-3.5566,-3.4941,-3.4941,-3.4297,-3.3457,0.0,0.0,0.0,0.0,0.0,0.0,0.0,0.0,0.0,0.0,0.0,0.0,0.0,0.0,0.0,0.0,0.0,0.0,0.0,0.0,-3.7764,-3.926,-4.0816,-4.2372,-4.3868,-4.5424,-4.6651,-4.7489,-4.8835,-4.9583,-4.9853,-5.093,-5.1339,-5.1136,-4.9795,-4.8409,-4.691,-4.462,-4.3176,-4.2133,-3.9747,-3.8567,-3.7914,-3.5127,-3.3043,0.0,0.0,0.0,0.0,-2.7902,-2.6871,-2.6089,-2.5553,-2.5156,-2.5125,-2.6067,-2.6883,-2.8047,-3.0644,-3.2715,-3.4687,-3.6992,-3.8633,-3.9863,-4.0586,-4.0859,-4.0723,-3.998,-3.9151,-3.8354,-3.7465,-3.6642,-3.6366,-3.7524,-3.7598,-3.8203,-4.0,-3.9746,-3.9297,-3.9082,-3.9141,-3.916,0.0,0.0,0.0,-4.25,-4.3437,-4.4043,-4.4316,-4.4473,-4.4219,-4.3496,-4.293,-4.2363,-4.1816,-4.166,-4.1445,-4.1172,-4.0723,-4.0449,-4.0273,-3.9531,-3.9043,-3.8711,-3.8008,-3.7461,-3.7031,-3.6621,-3.6269,-3.5996,-3.5859,-3.5351,-3.4687,-3.4531,-3.4023,-3.3437,0.0,0.0,0.0,0.0,0.0,0.0,0.0,0.0,0.0,0.0,0.0,0.0,0.0,0.0,0.0,0.0,0.0,0.0,0.0,0.0,0.0,-3.7285,-3.92,-4.0546,-4.1205,-4.312,-4.4137,-4.4167,-4.5484,-4.6441,-4.707,-4.7728,-4.7792,-4.7282,-4.7189,-4.5705,-4.3322,-4.2637,-4.123,-3.9371,-3.7638,-3.6307,-3.5127,-3.2315,0.0,0.0,0.0,0.0,0.0,-2.6456,-2.5443,-2.4113,-2.3799,-2.4054,-2.4906,-2.6923,-2.8022,-2.9297,-3.2676,-3.459,-3.6211,-3.8691,-3.9922,-4.0664,-4.1055,-4.0781,-4.0078,-3.8896,-3.7986,-3.6909,0.0,0.0,-3.3873,-3.4972,-3.5008,-3.5684,-3.8242,-3.7969,-3.8086,0.0,0.0,0.0,0.0,0.0,0.0,-4.1777,0.0,-4.3105,-4.3144,-4.3496,-4.3496,-4.3066,-4.2226,-4.1797,-4.1758,-4.1367,-4.1172,-4.1172,-4.0703,-4.0273,-3.9883,-3.9394,-3.8711,-3.791,-3.748,-3.7051,-3.6641,-3.6191,-3.6016,-3.5937,-3.5547,-3.5098,-3.4609,-3.4219,-3.3789,-3.332,0.0,0.0,0.0,0.0,0.0,0.0,0.0,0.0,0.0,0.0,0.0,0.0,0.0,0.0,0.0,0.0,0.0,0.0,0.0,0.0,0.0,0.0,0.0,0.0,0.0,0.0,0.0,-4.2132,-4.297,-4.3449,-4.3629,-4.4154,-4.4181,-4.3712,-4.2448,-4.1266,-4.0026,-3.8314,-3.7508,-3.6985,0.0,-3.3571,-3.3395,0.0,0.0,0.0,0.0,0.0,0.0,-2.6263,-2.5908,-2.5398,-2.4666,-2.5418,-2.6843,-2.8593,-3.043,-3.2656,-3.5156,-3.7266,-3.9062,-4.0351,-4.084,-4.0957,-4.0742,-4.0098,-3.9357,-3.8827,-3.6902,-3.5346,-3.5386,0.0,0.0,-3.5285,-3.6354,0.0,-3.9208,-3.9857,0.0,-3.9922,-4.0156,-4.0351,-4.0371,-4.123,0.0,0.0,-4.2949,-4.3359,-4.4023,-4.3828,-4.3359,-4.2617,-4.207,-4.166,-4.1348,-4.123,-4.1172,-4.1172,-4.041,-4.0,-3.9863,-3.9082,-3.8437,-3.791,-3.748,-3.7051,-3.6641,-3.6191,-3.584,-3.5547,-3.543,-3.4922,-3.4219,-3.4121,-3.3594,-3.293,0.0,0.0,0.0,0.0,0.0,0.0,0.0,0.0,0.0,0.0,0.0,0.0,0.0,0.0,0.0,0.0,0.0,0.0,0.0,0.0,0.0,0.0,0.0,0.0,0.0,0.0,0.0,0.0,0.0,0.0,-4.0636,-4.0845,-4.0636,-3.9974,-3.8529,-3.7476,-3.6577,-3.4838,0.0,0.0,0.0,0.0,0.0,0.0,0.0,0.0,0.0,0.0,0.0,0.0,0.0,-2.6743,-2.6565,-2.7668,-2.9231,-3.1211,-3.3125,-3.5039,-3.7187,-3.8945,-4.0332,-4.0996,-4.1172,-4.0957,-4.0288,-3.9564,-3.8547,-3.7225,-3.5581,-3.417,-3.3593,-3.2922,-3.3159,0.0,0.0,0.0,-3.9435,-3.9889,-4.0137,0.0,-4.0879,0.0,-4.1094,-4.207,-4.2969,0.0,-4.3476,-4.3574,-4.4062,-4.3672,-4.3125,-4.2441,-4.2012,-4.1601,-4.1172,-4.1172,-4.1074,-4.0879,-4.0215,-3.9785,-3.9551,-3.8691,-3.8047,-3.7617,0.0,-3.668,-3.6094,-3.584,-3.5488,-3.5078,-3.4883,-3.4512,-3.4043,-3.3867,-3.3359,-3.2773,0.0,0.0,0.0,0.0,0.0,0.0,0.0,0.0,0.0,0.0,0.0,0.0,0.0,0.0,0.0,0.0,0.0,0.0,0.0,0.0,0.0,0.0,0.0,0.0,0.0,0.0,0.0,0.0,0.0,0.0,0.0,0.0,0.0,0.0,0.0,0.0,0.0,0.0,0.0,0.0,0.0,0.0,0.0,0.0,0.0,0.0,0.0,0.0,0.0,0.0,-2.7606,-2.8268,-2.9055,-3.0254,-3.1875,-3.4316,-3.5625,-3.6719,-3.8809,-4.0019,-4.0762,-4.1094,-4.1133,-4.0876,-3.9781,-3.8888,-3.7461,-3.5227,-3.4173,-3.3226,-3.155,-3.1728,-3.2628,-3.4464,0.0,-3.6102,-3.9323,-3.9333,-3.9484,-4.0976,-4.1269,-4.1484,-4.1855,-4.2715,-4.3739,-4.4651,-4.419,-4.3828,-4.3867,-4.3418,-4.291,-4.2363,-4.1933,-4.1543,-4.1172,-4.1172,-4.0957,-4.0527,-4.0098,-3.9648,-3.918,-3.832,-3.7695,-3.7266,-3.6797,0.0,-3.5391,-3.5332,-3.5039,-3.459,-3.4219,-3.4043,-3.3945,-3.3555,-3.3125,-3.2676,0.0,0.0,0.0,0.0,0.0,0.0,0.0,0.0,0.0,0.0,-3.5848,0.0,0.0,0.0,0.0,0.0,0.0,0.0,0.0,0.0,0.0,0.0,0.0,0.0,0.0,0.0,0.0,0.0,0.0,0.0,0.0,0.0,0.0,0.0,0.0,0.0,0.0,0.0,0.0,0.0,0.0,0.0,0.0,0.0,0.0,0.0,0.0,-2.676,-2.6693,-2.7989,-2.9352,-3.0554,-3.0971,-3.2441,-3.4414,-3.6289,-3.7207,-3.7988,-3.9805,-4.0918,-4.1504,-4.125,-4.0898,-4.0347,-3.9241,-3.7516,0.0,-3.4931,-3.3205,-3.2002,-3.2644,-3.2317,-3.2581,-3.4544,-3.6206,-3.7724,-3.8946,-4.0085,-4.1033,0.0,-4.1797,-4.2246,-4.2305,-4.3437,0.0,0.0,-4.5277,-4.4433,-4.4785,-4.4043,-4.3086,-4.1953,-4.1504,-4.125,-4.1172,-4.1172,-4.0957,-4.0527,-4.0098,-3.9648,-3.918,-3.832,-3.7695,-3.7246,-3.6465,0.0,-3.5371,-3.498,-3.457,-3.418,-3.4101,-3.3848,-3.3535,-3.3457,-3.293,-3.2324,0.0,0.0,0.0,0.0,0.0,0.0,0.0,0.0,0.0,0.0,-3.7195,-3.6746,0.0,0.0,0.0,0.0,0.0,0.0,0.0,0.0,0.0,0.0,0.0,0.0,0.0,0.0,-3.5519,-3.5519,0.0,0.0,0.0,-3.503,0.0,0.0,0.0,0.0,0.0,0.0,0.0,0.0,0.0,0.0,0.0,0.0,0.0,0.0,0.0,0.0,-2.6101,-2.7455,-2.894,-3.059,-3.2296,-3.4113,-3.6016,-3.7803,-3.8406,-3.8965,-4.0723,-4.1328,-4.1484,-4.1484,-4.0664,-3.9613,-3.8487,0.0,0.0,-3.3758,-3.2268,-3.1371,-3.1723,-3.2089,0.0,-3.4939,-3.6547,-3.8537,-4.1106,-4.1355,-4.1657,-4.2647,-4.2506,-4.2803,-4.3452,-4.5048,-4.6844,-4.8626,0.0,-4.7444,-4.6284,-4.4271,-4.2656,-4.1836,-4.1387,-4.1172,-4.1172,-4.0957,-4.0625,-4.0195,-3.9531,-3.8965,-3.8516,-3.7656,-3.7168,-3.6934,-3.6289,0.0,-3.5019,-3.4785,-3.4316,-3.373,-3.373,-3.3476,-3.3105,-3.3105,-3.2559,-3.1855,0.0,0.0,0.0,0.0,0.0,0.0,0.0,-3.7135,-3.7853,-3.8512,-3.8841,-3.8542,-3.7255,-3.6746,-3.6267,0.0,0.0,0.0,0.0,0.0,0.0,0.0,0.0,0.0,0.0,0.0,0.0,-3.5519,-3.5519,0.0,0.0,0.0,0.0,0.0,-3.1998,0.0,0.0,0.0,0.0,0.0,0.0,0.0,0.0,0.0,0.0,0.0,0.0,0.0,-2.5529,0.0,-2.7863,-2.9707,-3.2333,-3.4764,-3.7054,-3.901,-3.9525,-3.9731,-4.1793,-4.2149,-4.2246,-4.2328,-4.1363,-4.0022,-3.8791,-3.6316,-3.3923,-3.2718,-3.1603,-3.0905,-3.0737,-3.1521,-3.276,0.0,-3.6145,-3.8408,-4.2233,-4.2034,-4.2327,0.0,-4.404,0.0,-4.5396,-4.706,0.0,-5.032,0.0,0.0,-4.7596,-4.4643,-4.2684,-4.1816,-4.1387,-4.1172,-4.1172,-4.0742,-4.0312,-3.9883,-3.9082,-3.8437,-3.791,-3.7148,-3.6758,-3.6641,-3.6113,0.0,0.0,-3.4609,-3.4121,-3.3418,-3.332,-3.3086,-3.2793,-3.2695,-3.2168,-3.1523,0.0,0.0,0.0,0.0,0.0,0.0,0.0,-3.7524,-3.8542,-3.923,-4.0367,-4.0606,-3.929,-3.7554,-3.6477,0.0,0.0,0.0,0.0,0.0,0.0,0.0,0.0,0.0,0.0,0.0,0.0,-3.5519,-3.5519,0.0,0.0,0.0,0.0,0.0,0.0,-3.0735,-2.9766,0.0,0.0,0.0,0.0,0.0,0.0,0.0,0.0,0.0,0.0,0.0,0.0,0.0,0.0,-2.8206,-3.0034,-3.3334,-3.715,-3.999,0.0,0.0,-4.3097,-4.4461,-4.5116,-4.4565,-4.4249,-4.352,-4.1203,0.0,-3.4472,-3.2558,-3.1223,-3.0388,-3.0523,-3.0678,-3.1223,-3.2612,-3.4446,-3.6405,-3.8917,-4.1374,-4.3621,-4.5132,0.0,0.0,-4.8138,-4.9118,0.0,0.0,0.0,0.0,-4.709,-4.5869,-4.4202,-4.1816,-4.1387,-4.1172,-4.1172,-4.0742,-4.0312,-3.9883,-3.9394,-3.8711,-3.791,-3.7461,-3.7031,-3.6621,-3.5801,0.0,0.0,-3.4297,-3.3848,-3.3379,-3.3008,-3.2832,-3.2754,-3.2363,-3.1914,-3.1523,0.0,0.0,0.0,0.0,0.0,0.0,0.0,-3.7554,-3.8631,-3.932,-4.0217,-4.0576,-4.0068,-3.8242,-3.6896,0.0,0.0,0.0,0.0,0.0,0.0,0.0,0.0,0.0,0.0,0.0,0.0,-3.5294,-3.5294,0.0,0.0,0.0,0.0,0.0,0.0,-3.0903,-3.0261,0.0,0.0,0.0,0.0,0.0,0.0,0.0,0.0,0.0,0.0,0.0,-2.4553,0.0,0.0,0.0,-2.8828,-3.1495,0.0,0.0,-3.9778,-4.14,-4.3976,-4.5766,-4.6984,-4.6636,-4.4904,-4.295,-4.092,0.0,-3.3379,-3.2051,-3.0704,-2.9845,-3.0027,-3.0131,-3.0453,-3.1481,-3.3093,0.0,-3.7678,-3.9188,-4.1299,-4.4741,-4.5703,0.0,0.0,0.0,-5.2656,0.0,0.0,0.0,-4.9419,-4.768,-4.6204,-4.4975,-4.4784,-4.4117,-4.2922,-4.3383,-4.2921,-4.1575,-4.141,-4.0591,-3.9146,-3.8432,-3.7481,-3.625,-3.5644,0.0,0.0,-3.4238,-3.3809,-3.3379,-3.2969,-3.2637,-3.2363,-3.1934,-3.1504,-3.1133,0.0,0.0,0.0,0.0,0.0,0.0,-3.6237,-3.7404,-3.8332,-3.902,-3.9858,-4.0337,-4.0127,-3.8661,-3.7434,-3.6806,0.0,0.0,0.0,0.0,0.0,0.0,0.0,0.0,0.0,0.0,0.0,-3.5067,-3.5001,-3.4735,0.0,0.0,-3.3199,-3.2533,0.0,0.0,0.0,0.0,0.0,0.0,0.0,0.0,0.0,0.0,0.0,0.0,0.0,0.0,0.0,0.0,0.0,0.0,0.0,-3.001,-3.2406,0.0,-3.9097,-4.1656,-4.4526,-4.6939,-4.8497,-4.8487,-4.6311,-4.3671,0.0,0.0,-3.317,-3.1896,-3.0505,-2.9599,-2.9779,-2.9804,-3.0002,-3.0767,0.0,-3.4015,-3.6846,-3.8185,-4.0425,0.0,0.0,-4.7024,0.0,-5.301,0.0,0.0,0.0,0.0,-5.1798,-5.0147,-4.8584,-4.7051,-4.7029,-4.6293,-4.4977,-4.5345,-4.486,-4.3542,-4.3029,-4.2125,-4.0758,-3.9815,-3.8333,-3.6769,-3.6699,0.0,0.0,-3.4735,-3.4318,-3.3379,-3.2832,-3.2422,-3.209,-3.1543,-3.1152,-3.0898,0.0,0.0,0.0,0.0,0.0,0.0,0.0,-3.7015,-3.7644,-3.8302,-3.9559,-4.0157,-3.9499,-3.8811,-3.8123,-3.7464,0.0,0.0,0.0,0.0,0.0,0.0,0.0,0.0,0.0,0.0,0.0,0.0,0.0,0.0,-3.352,-3.3171,-3.2461,-3.1516,0.0,0.0,0.0,0.0,0.0,0.0,0.0,0.0,0.0,0.0,0.0,0.0,0.0,0.0,0.0,0.0,0.0,0.0,0.0,-2.8986,-3.0739,-3.5685,-3.8883,-4.153,-4.4854,-4.7851,-5.0104,-5.0459,-4.923,-4.7057,0.0,0.0,-3.481,-3.235,-3.0773,-2.9804,-2.9804,-2.9804,-2.998,-3.0532,-3.1537,0.0,-3.6031,-3.927,-4.2273,0.0,0.0,-4.9238,-5.2603,-5.4913,0.0,0.0,0.0,0.0,-5.3733,-5.3206,-5.1022,-4.7175,-4.7029,-4.7029,-4.7029,-4.6065,-4.5595,-4.5572,-4.4071,-4.3108,-4.2592,-4.1477,-4.0148,0.0,0.0,0.0,0.0,-3.5992,-3.5289,-3.334,-3.25,-3.2168,-3.207,-3.1211,-3.0898,-3.0898,0.0,0.0,0.0,0.0,0.0,0.0,0.0,-3.6357,-3.6836,-3.7045,-3.7823,-3.8272,-3.8063,-3.7464,-3.7015,-3.6806,0.0,0.0,0.0,0.0,0.0,0.0,0.0,0.0,0.0,0.0,0.0,0.0,0.0,0.0,0.0,0.0,-3.1809,-3.1123,-3.0748,0.0,0.0,0.0,0.0,0.0,0.0,0.0,0.0,0.0,0.0,0.0,0.0,0.0,0.0,0.0,0.0,0.0,0.0,0.0,0.0,-3.2386,-3.5941,-3.9855,-4.2512,-4.5379,-4.7499,-4.7671,-4.6066,-4.3915,-4.1422,0.0,-3.3897,-3.1955,-3.0578,-2.9804,-2.9804,-2.9804,-3.0206,-3.1512,-3.2315,0.0,0.0,0.0,0.0,-4.3915,-4.8786,-5.2729,0.0,0.0,0.0,0.0,0.0,0.0,-5.3206,-5.3005,-5.2327,-5.1022,-5.0998,-5.0242,-4.8402,-4.9187,-4.8492,-4.6374,-4.6371,-4.5318,-4.3275,-4.2622,-4.1217,0.0,0.0,0.0,0.0,-3.6746,-3.6097,-3.4452,-3.353,-3.3182,-3.3003,-3.1426,-3.0898,-3.0898,0.0,0.0,0.0,0.0,0.0,0.0,0.0,-3.5848,-3.6118,-3.6118,-3.6656,-3.7075,-3.7075,-3.6716,-3.6477,-3.6477,0.0,0.0,0.0,0.0,0.0,0.0,0.0,0.0,0.0,0.0,0.0,0.0,0.0,0.0,0.0,0.0,0.0,0.0,-3.0701,0.0,0.0,0.0,0.0,0.0,0.0,0.0,-2.9052,0.0,0.0,0.0,0.0,0.0,0.0,0.0,0.0,0.0,0.0,0.0,0.0,0.0,-3.3271,-3.6518,-3.9747,-4.261,-4.4794,-4.4995,-4.3388,0.0,0.0,0.0,-3.3119,-3.1436,-3.0407,-2.9804,-2.9804,-2.9955,-3.0507,-3.1712,-3.239,0.0,0.0,0.0,0.0,-4.4543,0.0,0.0,0.0,0.0,0.0,0.0,0.0,0.0,-5.2955,-5.2929,-5.2929,-5.2929,-5.2729,-5.1855,-5.0198,-5.0563,-4.9743,-4.7797,-4.7706,-4.6637,-4.4596,-4.3869,-4.2352,0.0,0.0,0.0,0.0,-3.7646,-3.7077,-3.551,-3.4855,-3.421,-3.3571,-3.2255,-3.1325,-3.0898,0.0,0.0,0.0,0.0,0.0,0.0,0.0,0.0,0.0,0.0,-3.6028,-3.6417,-3.6417,-3.6417,-3.6417,0.0,0.0,0.0,0.0,0.0,0.0,0.0,0.0,0.0,0.0,0.0,0.0,-3.434,-3.3449,-3.2948,-3.2909,0.0,0.0,0.0,0.0,0.0,0.0,0.0,0.0,0.0,0.0,0.0,0.0,0.0,0.0,0.0,0.0,0.0,0.0,0.0,0.0,0.0,0.0,0.0,0.0,0.0,0.0,0.0,0.0,-3.9521,-4.1781,-4.2359,-4.0902,-3.8919,-3.7312,0.0,0.0,-3.0934,-3.0181,-2.9804,-2.9854,-3.0256,-3.0809,-3.1461,0.0,0.0,0.0,-3.8668,0.0,0.0,-5.0695,0.0,0.0,0.0,0.0,0.0,0.0,0.0,-5.2955,-5.2929,-5.2904,-5.2879,-5.2302,-5.1975,-5.1975,-5.0393,-4.954,-4.9389,-4.7832,-4.6753,-4.615,-4.502,-4.3333,0.0,0.0,0.0,0.0,-3.8606,-3.8059,-3.6655,-3.6162,-3.5172,-3.3874,-3.3338,-3.2207,-3.0995,0.0,0.0,0.0,0.0,0.0,0.0,0.0,0.0,0.0,0.0,0.0,-3.5729,-3.5729,-3.5729,0.0,0.0,0.0,0.0,0.0,0.0,0.0,0.0,0.0,0.0,0.0,0.0,0.0,-3.3789,-3.3333,-3.3172,-3.3109,-3.289,0.0,0.0,0.0,0.0,0.0,0.0,0.0,0.0,0.0,0.0,0.0,0.0,0.0,0.0,-2.8179,-2.8259,0.0,0.0,0.0,0.0,0.0,0.0,0.0,0.0,-3.0382,-3.1009,-3.2064,0.0,-3.6709,-3.7663,-3.6885,-3.568,0.0,-3.3169,-3.1562,-3.0783,-3.0181,-2.993,-3.0357,-3.0532,0.0,0.0,0.0,0.0,-3.7939,0.0,0.0,-4.8736,-5.2076,-5.3959,0.0,0.0,0.0,0.0,0.0,-5.3482,-5.2955,-5.2929,-5.2729,-5.2302,-5.1322,-5.082,-5.082,-4.9992,-4.8962,-4.7707,-4.6903,-4.5999,-4.497,-4.3865,-4.2812,0.0,0.0,0.0,-3.8583,-3.9672,-3.9213,-3.7699,-3.7293,-3.6866,-3.63,-3.4,-3.2851,-3.2416,0.0,0.0,0.0,0.0,0.0,0.0,0.0,0.0,0.0,0.0,0.0,0.0,0.0,0.0,0.0,0.0,0.0,0.0,0.0,0.0,0.0,0.0,0.0,0.0,0.0,0.0,0.0,0.0,0.0,-3.3558,0.0,0.0,0.0,0.0,0.0,0.0,0.0,0.0,0.0,0.0,-2.9804,0.0,0.0,0.0,0.0,0.0,-2.8736,-2.8816,0.0,-2.9184,-2.9365,-2.9599,0.0,0.0,0.0,0.0,-3.0005,-3.0357,-3.0834,-3.224,-3.3721,-3.4299,-3.3997,-3.342,-3.2867,-3.1863,-3.0884,-3.0357,-3.0206,-3.0256,-3.0557,-3.1235,0.0,0.0,-3.4826,0.0,0.0,0.0,-4.7832,-4.9741,-5.2026,0.0,0.0,0.0,0.0,0.0,0.0,-5.3231,-5.2955,-5.2678,-5.2302,-5.1749,-5.0619,-5.0042,-5.0042,-4.8987,-4.7883,-4.6753,-4.62,-4.5221,-4.384,-4.3237,-4.2409,0.0,0.0,0.0,-3.9306,-3.991,-3.9575,-3.8867,-3.8575,-3.8137,-3.724,-3.4958,-3.362,-3.2851,0.0,0.0,0.0,0.0,0.0,0.0,0.0,0.0,0.0,0.0,0.0,0.0,0.0,0.0,0.0,0.0,0.0,0.0,0.0,0.0,0.0,0.0,0.0,0.0,0.0,0.0,0.0,0.0,0.0,0.0,0.0,0.0,-3.5635,0.0,0.0,0.0,0.0,0.0,0.0,0.0,-2.9804,0.0,0.0,0.0,0.0,0.0,0.0,0.0,0.0,-2.9419,-2.9599,-2.9804,-2.9804,0.0,0.0,0.0,0.0,0.0,-3.1009,-3.1662,-3.2139,-3.229,-3.229,-3.2089,-3.1612,-3.111,-3.0608,-3.0131,-3.0407,-3.0783,-3.0959,-3.219,0.0,0.0,0.0,0.0,-4.1907,-4.5522,-4.846,-5.0318,0.0,0.0,0.0,0.0,0.0,0.0,0.0,-5.2879,-5.2804,-5.2277,-5.1674,-5.1046,-4.9841,-4.9188,-4.9088,-4.7707,-4.6677,-4.605,-4.5397,-4.4367,-4.2961,-4.271,-4.1831,-4.0501,0.0,0.0,-3.9697,-3.9697,-3.9697,-3.9697,-3.9697,-3.8921,-3.769,-3.6162,-3.4736,-3.3191,0.0,0.0,0.0,0.0,0.0,0.0,0.0,0.0,0.0,0.0,0.0,0.0,0.0,0.0,0.0,0.0,0.0,0.0,0.0,0.0,0.0,0.0,0.0,0.0,0.0,0.0,0.0,0.0,0.0,0.0,-3.8103,-3.7599,-3.6359,-3.4339,0.0,0.0,-3.0292,-2.9934,-2.9804,-2.9804,-2.9804,0.0,0.0,0.0,0.0,0.0,0.0,0.0,0.0,-2.9702,-2.9779,-2.9804,-2.9804,0.0,0.0,0.0,0.0,0.0,-3.0557,-3.111,-3.1738,-3.2692,-3.2566,-3.219,-3.2114,-3.1662,-3.1235,-3.116,-3.121,-3.1562,0.0,-3.3294,-3.4098,0.0,0.0,-4.266,0.0,0.0,-5.077,-5.1096,0.0,0.0,0.0,0.0,0.0,0.0,0.0,-5.2729,-5.2251,-5.1699,-5.0921,-4.9891,-4.8335,-4.728,-4.6828,-4.6552,-4.5924,-4.4869,-4.384,-4.3237,-4.2936,-4.153,-4.0752,-4.0501,0.0,-3.9772,-3.9697,-3.9697,-3.9697,-3.9697,-3.9697,-3.9569,-3.9129,-3.769,-3.6271,-3.4515,0.0,0.0,0.0,0.0,0.0,0.0,0.0,0.0,0.0,0.0,0.0,0.0,0.0,0.0,0.0,0.0,0.0,0.0,0.0,0.0,0.0,0.0,0.0,0.0,0.0,0.0,0.0,0.0,0.0,-3.7644,-3.9456,-3.8979,-3.7439,-3.4875,0.0,-3.1785,-3.0368,-2.9934,-2.9804,-2.9804,0.0,0.0,0.0,0.0,0.0,0.0,0.0,0.0,0.0,0.0,-2.9804,-2.9804,-2.9804,0.0,0.0,0.0,0.0,0.0,-3.0809,-3.121,-3.1662,-3.2792,-3.2641,-3.229,-3.2616,-3.224,-3.1913,-3.224,-3.2541,0.0,0.0,0.0,-3.696,-3.9572,0.0,-4.5547,-4.7606,-4.9314,-5.0469,0.0,0.0,0.0,0.0,0.0,0.0,0.0,0.0,0.0,-5.1699,-5.0845,-4.9841,-4.8711,-4.738,-4.5999,-4.4518,-4.4518,-4.4242,-4.374,-4.3212,-4.2509,-4.163,-4.0852,-4.035,-4.0049,0.0,-3.9697,-3.9697,-3.9697,-3.9697,-3.9697,-3.9697,-3.9697,-3.9465,-3.8031,-3.5871,-3.3458,0.0,0.0,0.0,0.0,0.0,0.0,0.0,0.0,0.0,0.0,0.0,0.0,0.0,0.0,0.0,0.0,0.0,0.0,0.0,0.0,0.0,0.0,0.0,0.0,0.0,0.0,-3.458,-3.6034,-3.7537,-3.8933,-4.0096,-3.97,-3.797,0.0,0.0,0.0,-3.0292,-2.9934,-2.9804,-2.9804,0.0,0.0,0.0,0.0,0.0,0.0,0.0,0.0,0.0,0.0,0.0,0.0,0.0,0.0,0.0,-2.9804,-2.9804,-3.0005,-3.1014,-3.1367,-3.1719,-3.2811,-3.2827,-3.2767,-3.3345,-3.3319,-3.3345,-3.3922,-3.4474,0.0,0.0,-3.7487,0.0,-4.379,-4.615,-4.7707,-4.8234,-4.949,0.0,0.0,0.0,0.0,0.0,0.0,0.0,0.0,0.0,0.0,-5.0921,-4.969,-4.856,-4.7556,-4.6225,-4.4719,-4.2986,-4.271,-4.2585,-4.2585,-4.2459,-4.1731,-4.0501,-4.0375,-4.0023,-3.9496,-3.9496,-3.9421,-3.9295,-3.9295,-3.9371,-3.9496,-3.9346,-3.9295,-3.9091,-3.779,-3.5527,-3.2964,0.0,0.0,0.0,0.0,0.0,0.0,0.0,0.0,0.0,0.0,0.0,0.0,0.0,0.0,0.0,0.0,0.0,0.0,0.0,0.0,0.0,0.0,0.0,0.0,0.0,-3.5793,-3.6787,-3.8031,-3.948,-4.0114,-3.9963,-3.9184,-3.7259,-3.4366,0.0,-3.1576,-3.0088,-2.9856,-2.9804,-2.9804,-2.9804,0.0,0.0,0.0,0.0,0.0,0.0,0.0,0.0,0.0,0.0,0.0,0.0,0.0,-2.9804,-2.9804,-2.9804,-3.0007,-3.0719,-3.1331,-3.197,-3.2746,-3.33,-3.3922,-3.4474,-3.5353,-3.6232,-3.6784,-3.7337,-3.7889,0.0,-4.0375,-4.2785,-4.5673,-4.7556,0.0,0.0,0.0,0.0,0.0,0.0,0.0,0.0,0.0,0.0,0.0,0.0,0.0,-4.9741,-4.8184,-4.7029,-4.6451,-4.4342,-4.3137,-4.2986,-4.1957,-4.1455,-4.1455,-4.0953,-4.0626,-4.0501,-3.9998,-3.9446,-3.8919,-3.8919,-3.8617,-3.8115,-3.8115,-3.8442,-3.8868,-3.8341,-3.8115,-3.7992,-3.7091,-3.6199,-3.5201,0.0,0.0,0.0,0.0,0.0,0.0,0.0,0.0,0.0,0.0,0.0,0.0,0.0,0.0,0.0,0.0,0.0,0.0,0.0,0.0,0.0,0.0,0.0,-3.4961,-3.5605,-3.5726,-3.6702,-3.8521,-3.9981,-4.053,-4.0083,-3.8901,0.0,0.0,0.0,-3.1419,-3.0088,-2.9856,-2.9804,-2.9804,-2.9804,-2.9804,0.0,0.0,0.0,0.0,0.0,0.0,0.0,0.0,-2.9804,-2.9804,0.0,-2.9804,-2.9779,-2.9934,-3.0011,-3.0214,-3.106,-3.1703,-3.2349,-3.3242,-3.4777,-3.6122,-3.6405,-3.7581,-3.8793,-3.9145,-4.0224,-4.1178,-4.1379,0.0,-4.4468,-4.6903,0.0,0.0,0.0,0.0,0.0,0.0,0.0,0.0,0.0,0.0,0.0,0.0,0.0,0.0,-4.8109,-4.7154,-4.605,-4.4794,-4.3589,-4.2484,-4.1455,-4.1824,-4.1828,-4.1491,-4.0844,-4.0149,-3.9496,-3.927,-3.8868,-3.8341,-3.8341,-3.8216,-3.8015,-3.8015,-3.814,-3.8316,-3.809,-3.7789,-3.7465,-3.7493,-3.6812,-3.5679,0.0,0.0,0.0,0.0,0.0,0.0,0.0,0.0,0.0,0.0,0.0,0.0,0.0,0.0,0.0,0.0,0.0,0.0,0.0,0.0,0.0,0.0,0.0,-3.5028,-3.5536,-3.5053,-3.5967,-3.8295,-3.9365,-3.9541,-3.8983,0.0,0.0,0.0,0.0,0.0,-3.0264,-2.9932,-2.9804,-2.9804,-2.9804,-2.9804,0.0,0.0,0.0,0.0,0.0,0.0,0.0,0.0,-2.9804,0.0,0.0,0.0,-2.9934,-3.0164,-3.0292,-3.0547,-3.1341,-3.2253,-3.3146,-3.4099,0.0,0.0,-3.9764,-4.0989,-4.1931,-4.2332,-4.2891,-4.3237,-4.3237,0.0,0.0,0.0,0.0,0.0,0.0,0.0,0.0,0.0,0.0,0.0,0.0,0.0,0.0,0.0,0.0,0.0,0.0,-4.5748,-4.4719,-4.3589,-4.3077,-4.2251,-4.1103,-4.2176,-4.2476,-4.1887,-4.135,-4.0741,-3.999,-3.999,-3.938,-3.8299,-3.8299,-3.8003,-3.7487,-3.7487,-3.7487,-3.7513,-3.7688,-3.7412,-3.6985,-3.7538,-3.7023,-3.5909,0.0,0.0,0.0,0.0,0.0,0.0,0.0,0.0,0.0,0.0,0.0,0.0,0.0,0.0,0.0,0.0,0.0,0.0,0.0,0.0,0.0,0.0,0.0,-3.4719,-3.4739,-3.398,-3.4799,-3.7232,-3.7455,-3.7219,-3.6532,-3.5693,0.0,0.0,0.0,0.0,-3.0583,-3.003,-2.9804,-2.9804,-2.9804,-2.9804,-2.9804,0.0,0.0,0.0,0.0,0.0,0.0,0.0,-2.9804,-2.9804,0.0,0.0,0.0,-3.0368,-3.0672,-3.1123,-3.1663,-3.282,-3.4181,-3.5223,0.0,0.0,-4.4719,-4.5623,-4.5863,-4.6557,-4.5166,-4.384,-4.3815,-4.384,0.0,-4.6778,0.0,0.0,0.0,0.0,0.0,0.0,0.0,0.0,0.0,0.0,0.0,0.0,0.0,0.0,0.0,-4.3865,-4.2961,-4.2961,-4.2553,-4.2361,-4.2462,-4.3133,-4.32,-4.2499,-4.2499,-4.2499,-4.2499,-4.2499,-4.1191,-3.8859,-3.8859,-3.7919,-3.6452,-3.6358,-3.6358,-3.6408,-3.696,-3.6835,-3.6433,-3.6985,-3.6835,-3.6243,0.0,0.0,0.0,0.0,0.0,0.0,0.0,0.0,0.0,0.0,0.0,0.0,0.0,0.0,0.0,0.0,0.0,0.0,0.0,0.0,0.0,0.0,0.0,0.0,0.0,0.0,-3.3292,-3.4979,-3.511,-3.5063,0.0,0.0,0.0,-3.2631,0.0,0.0,-3.0608,-3.0432,-3.0156,-2.9804,-2.9804,-2.9804,-2.9804,0.0,0.0,0.0,0.0,0.0,0.0,0.0,0.0,0.0,0.0,0.0,0.0,-3.0898,-3.1246,-3.1736,-3.2461,-3.3329,0.0,-3.6684,0.0,0.0,0.0,-4.679,0.0,0.0,-4.6743,-4.6024,-4.5648,-4.5899,0.0,-4.7029,-4.8184,0.0,0.0,0.0,0.0,0.0,0.0,0.0,0.0,0.0,0.0,0.0,0.0,0.0,0.0,-4.266,-4.2442,-4.2554,-4.2446,-4.2651,-4.3203,-4.3826,-4.3981,-4.3811,-4.4269,-4.3342,-4.1204,-4.1204,-4.0611,-3.9605,-3.9081,-3.8167,-3.6962,-3.572,-3.5429,-3.5805,-3.5981,-3.6157,-3.6383,-3.6533,-3.6759,-3.691,0.0,0.0,0.0,0.0,0.0,0.0,0.0,0.0,0.0,0.0,0.0,0.0,0.0,0.0,0.0,0.0,0.0,0.0,0.0,0.0,0.0,0.0,0.0,0.0,0.0,-3.1664,-3.1681,0.0,0.0,0.0,0.0,0.0,0.0,-3.2878,0.0,-3.1984,-3.1309,-3.1001,-3.0595,-3.0164,-3.0088,-3.0011,-3.0088,0.0,0.0,0.0,0.0,0.0,0.0,0.0,0.0,0.0,-3.0394,0.0,0.0,-3.1616,-3.2101,-3.2775,-3.3691,-3.4882,0.0,-3.8917,-4.182,-4.5055,-4.8705,0.0,0.0,0.0,-4.9745,-4.8564,-4.8577,-4.7522,0.0,0.0,0.0,0.0,0.0,0.0,0.0,0.0,0.0,0.0,0.0,0.0,0.0,0.0,0.0,0.0,0.0,-4.2118,-4.2293,-4.2387,-4.3219,-4.3657,-4.3891,-4.4729,-4.485,-4.4325,-4.4466,-4.3372,-4.134,-4.1596,-4.1001,-3.9733,-3.8837,-3.7908,-3.6806,-3.5786,-3.5238,-3.5228,-3.5454,-3.5755,-3.6056,-3.6282,-3.6584,-3.681,0.0,0.0,0.0,0.0,0.0,0.0,0.0,0.0,0.0,0.0,0.0,0.0,0.0,0.0,0.0,0.0,0.0,0.0,0.0,0.0,0.0,0.0,0.0,0.0,0.0,0.0,0.0,0.0,0.0,0.0,0.0,0.0,-3.2609,-3.3395,0.0,-3.2623,0.0,-3.1654,-3.1164,-3.0698,-3.052,-3.0444,-3.052,-3.0698,0.0,0.0,0.0,0.0,0.0,0.0,0.0,0.0,-3.1048,-3.1616,-3.2245,-3.239,-3.3171,-3.4077,-3.5183,-3.7009,-3.909,-4.1381,-4.5014,0.0,-5.0616,-5.3481,-5.5584,-5.5415,0.0,-5.1238,-5.1793,-4.8952,-4.7118,0.0,0.0,0.0,0.0,0.0,0.0,0.0,0.0,0.0,0.0,0.0,0.0,0.0,0.0,0.0,0.0,-4.2034,-4.2504,-4.2605,-4.4303,-4.4957,-4.4469,-4.5602,-4.5484,-4.4227,-4.3569,-4.288,-4.2192,-4.2851,-4.1883,-3.9629,-3.8473,-3.7368,-3.6406,-3.6234,-3.559,-3.4765,-3.5203,-3.5454,-3.5604,-3.6107,-3.6307,-3.6358,0.0,0.0,0.0,0.0,0.0,0.0,0.0,0.0,0.0,0.0,0.0,0.0,0.0,0.0,0.0,0.0,0.0,0.0,0.0,0.0,0.0,0.0,0.0,0.0,0.0,0.0,0.0,0.0,0.0,0.0,0.0,0.0,0.0,-3.3251,0.0,-3.3721,0.0,-3.2856,-3.2196,-3.1097,-3.1022,-3.1022,-3.1022,-3.1097,-3.1172,0.0,0.0,0.0,0.0,0.0,0.0,0.0,-3.1763,-3.22,-3.2676,-3.3101,-3.3756,-3.4477,-3.5527,-3.7039,0.0,0.0,-4.7493,-5.2234,-5.3288,-5.4789,-5.5301,-5.2403,-5.2235,-5.2504,-5.179,0.0,0.0,0.0,0.0,0.0,0.0,0.0,0.0,0.0,0.0,0.0,0.0,0.0,0.0,0.0,0.0,0.0,-4.3047,-4.2644,-4.2885,-4.3934,-4.3853,-4.4269,-4.5065,-4.484,-4.4347,0.0,-4.288,-4.1953,-4.0846,-4.1504,-4.1203,-4.0203,-3.9044,-3.8211,-3.7366,-3.5681,-3.5142,-3.5245,-3.4527,-3.4776,-3.5554,-3.568,-3.5981,-3.6358,0.0,0.0,0.0,0.0,0.0,0.0,0.0,0.0,0.0,0.0,0.0,0.0,0.0,0.0,0.0,0.0,0.0,0.0,0.0,0.0,0.0,0.0,0.0,0.0,0.0,0.0,0.0,0.0,0.0,0.0,0.0,0.0,0.0,-3.3966,0.0,-3.4445,0.0,-3.3593,-3.2942,-3.2173,-3.2028,-3.1882,-3.1955,-3.2101,-3.2245,-3.239,-3.2506,0.0,0.0,0.0,0.0,0.0,0.0,0.0,-3.363,-3.3905,-3.4438,-3.5112,-3.5933,0.0,0.0,-4.5035,0.0,-5.2486,-5.3503,-5.4012,-5.3733,-5.1844,-5.2636,-5.364,0.0,0.0,0.0,0.0,0.0,0.0,0.0,0.0,0.0,0.0,0.0,0.0,0.0,0.0,0.0,0.0,0.0,-4.3298,-4.2995,-4.2942,-4.3267,-4.3889,-4.3889,-4.3956,-4.4347,-4.3718,-4.306,-4.2402,-4.1414,-4.0247,-3.899,-3.9978,-4.0247,-3.9845,-3.9372,-3.8614,-3.7663,-3.6081,-3.5303,-3.5068,-3.4208,-3.4248,-3.4826,-3.5353,-3.573,-3.6006,0.0,0.0,0.0,0.0,0.0,0.0,0.0,0.0,0.0,0.0,0.0,0.0,0.0,0.0,0.0,0.0,0.0,0.0,0.0,0.0,0.0,0.0,0.0,0.0,0.0,0.0,0.0,0.0,0.0,0.0,0.0,0.0,0.0,-3.5077,0.0,0.0,0.0,-3.4416,-3.3844,-3.3409,-3.3058,-3.2988,-3.2988,-3.3339,-3.3479,-3.3548,-3.3796,-3.3865,-3.3865,-3.3865,0.0,0.0,0.0,0.0,-3.4677,-3.4677,-3.5037,-3.5639,-3.6297,0.0,-4.2043,-4.7429,-4.9823,0.0,-5.2396,-5.2247,-5.1828,-5.1708,-5.2755,0.0,0.0,0.0,0.0,0.0,0.0,0.0,0.0,0.0,0.0,0.0,0.0,0.0,0.0,0.0,0.0,0.0,0.0,-4.2978,-4.2978,-4.3195,-4.34,-4.34,-4.3678,-4.3539,-4.3,-4.2462,-4.1803,-4.1025,-3.9709,-3.8482,-3.7434,-3.8571,-3.908,-3.908,-3.908,-3.8516,-3.7647,-3.6487,-3.5518,-3.4735,-3.4015,-3.3822,-3.3997,-3.4926,-3.5378,-3.5604,0.0,0.0,0.0,0.0,0.0,0.0,0.0,0.0,0.0,0.0,0.0,0.0,0.0,0.0,0.0,0.0,0.0,0.0,-3.2004,0.0,0.0,-3.0823,-3.0394,0.0,0.0,0.0,0.0,0.0,0.0,0.0,0.0,0.0,0.0,-3.6003,0.0,0.0,0.0,-3.5913,-3.5193,-3.4002,-3.3934,-3.3934,-3.3934,-3.3934,-3.4099,-3.4264,-3.4264,-3.4332,-3.4332,-3.4332,-3.4332,0.0,0.0,0.0,-3.4905,-3.5067,-3.5294,-3.5639,0.0,0.0,-4.2851,0.0,-4.8147,-4.9733,0.0,0.0,-5.0331,0.0,0.0,0.0,0.0,0.0,0.0,0.0,0.0,0.0,0.0,0.0,0.0,0.0,0.0,0.0,0.0,0.0,0.0,0.0,-4.5035,-4.4892,-4.4892,-4.3901,-4.3328,-4.3328,-4.2324,-4.1713,-4.1654,-4.1564,-4.0905,-3.9679,-3.8332,-3.7584,-3.7434,-3.7584,-3.7674,-3.7674,-3.7674,-3.7605,-3.7356,-3.6005,-3.5311,-3.5053,-3.3766,-3.347,-3.3922,-3.4073,-3.4726,-3.5554,0.0,0.0,0.0,0.0,0.0,0.0,0.0,0.0,0.0,0.0,0.0,0.0,0.0,0.0,0.0,-3.2167,-3.2247,-3.2211,-3.1921,-3.1026,-3.0592,-3.0898,-3.0444,-3.0444,0.0,0.0,0.0,0.0,0.0,0.0,0.0,-3.7593,-3.7866,0.0,0.0,0.0,0.0,0.0,-3.5585,-3.4706,-3.4572,-3.4572,-3.4572,-3.4639,-3.4802,-3.4868,-3.4964,-3.503,-3.503,-3.503,-3.503,-3.503,-3.5096,0.0,0.0,0.0,-3.5424,-3.5729,-3.6716,-3.8542,-4.0876,0.0,-4.5574,-4.686,-4.8267,0.0,0.0,0.0,0.0,0.0,0.0,0.0,0.0,0.0,0.0,0.0,0.0,0.0,0.0,0.0,0.0,0.0,0.0,0.0,0.0,0.0,-4.4616,-4.4197,-4.4197,-4.294,-4.2073,-4.1713,-4.0786,-4.0098,-3.9709,-3.9349,-3.8691,-3.7764,-3.7165,-3.6686,-3.6357,-3.6357,-3.6716,-3.7404,-3.7404,-3.7404,-3.7267,-3.5543,-3.5024,-3.5151,-3.3276,-3.2943,-3.347,-3.3796,-3.4198,-3.4675,0.0,0.0,0.0,0.0,0.0,0.0,0.0,0.0,0.0,0.0,0.0,0.0,0.0,0.0,0.0,0.0,-3.2573,-3.2616,-3.1944,-3.1253,-3.097,-3.1172,-3.0823,-3.0898,-3.1495,0.0,0.0,0.0,0.0,0.0,-3.7944,-3.8631,-3.9313,0.0,-3.9504,-3.8545,0.0,0.0,-3.5874,-3.5294,-3.5067,-3.5067,-3.5067,-3.5228,-3.5294,-3.5294,-3.5424,-3.5519,-3.5519,-3.5519,-3.5519,-3.5519,-3.5519,-3.5519,0.0,0.0,0.0,-3.5699,0.0,0.0,-3.8781,-4.1414,-4.2821,-4.4018,0.0,0.0,0.0,0.0,0.0,0.0,0.0,0.0,0.0,0.0,0.0,0.0,0.0,0.0,0.0,0.0,0.0,0.0,0.0,0.0,0.0,0.0,-4.3389,-4.2761,-4.2581,-4.1504,-4.0576,-3.9918,-3.926,-3.8661,-3.8153,-3.7494,-3.6956,-3.6477,-3.6327,-3.5968,-3.5519,-3.5519,-3.6028,-3.6926,-3.6926,-3.676,-3.6419,-3.4775,-3.4293,-3.4299,-3.2808,-3.2491,-3.2918,-3.3495,-3.3771,-3.3947,0.0,0.0,0.0,0.0,0.0,0.0,0.0,0.0,0.0,0.0,0.0,0.0,-3.1482,-3.2108,-3.2467,-3.2317,-3.2729,-3.278,-3.2326,-3.2105,-3.1955,-3.1763,-3.1394,0.0,-3.2055,0.0,0.0,0.0,0.0,0.0,-3.903,-3.865,-3.9469,-4.1324,-4.1294,-4.0187,-3.8302,0.0,0.0,-3.5489,-3.5424,-3.5424,-3.5424,-3.5489,-3.5489,-3.5519,-3.5519,-3.5519,-3.5519,-3.5519,-3.5519,-3.5519,-3.5519,-3.5519,-3.5519,0.0,0.0,0.0,0.0,-3.6507,0.0,-3.8452,0.0,0.0,0.0,0.0,0.0,0.0,0.0,0.0,0.0,0.0,0.0,0.0,0.0,0.0,0.0,0.0,0.0,0.0,0.0,0.0,0.0,0.0,0.0,0.0,-4.1534,-4.1205,-4.0576,-3.9888,-3.92,-3.8512,-3.7853,-3.7494,-3.7464,-3.6836,-3.6507,-3.6477,-3.5848,-3.5549,-3.5519,-3.5519,-3.5549,-3.5609,-3.5609,-3.509,-3.4157,-3.3673,-3.2996,-3.2172,-3.2199,-3.224,-3.2315,-3.2893,-3.3445,-3.3897,0.0,0.0,0.0,0.0,0.0,0.0,0.0,0.0,0.0,0.0,0.0,0.0,0.0,-3.2736,-3.3244,-3.3476,-3.3651,-3.3657,-3.3482,-3.2989,-3.2632,-3.2561,-3.2345,-3.239,-3.296,0.0,0.0,0.0,0.0,-3.6052,-3.7983,-3.8302,-3.902,-4.0157,-4.0576,-3.9649,-3.7734,-3.7494,0.0,0.0,0.0,-3.5519,-3.5519,-3.5519,-3.5519,-3.5519,-3.5519,-3.5519,-3.5519,-3.5519,-3.5519,-3.5519,-3.5519,-3.5519,-3.5519,-3.5519,-3.5519,-3.5519,0.0,0.0,0.0,-3.7494,-3.8302,-3.911,0.0,0.0,0.0,0.0,0.0,0.0,0.0,0.0,0.0,0.0,0.0,0.0,0.0,0.0,0.0,0.0,0.0,0.0,0.0,0.0,0.0,0.0,0.0,-3.9828,-3.914,-3.8482,-3.7823,-3.7195,-3.6956,-3.6626,-3.6178,-3.5968,-3.5848,-3.5848,-3.5609,-3.5519,-3.5519,-3.5519,-3.5519,-3.5519,-3.5519,-3.5294,-3.4868,-3.348,-3.2855,-3.2847,-3.1983,-3.1913,-3.229,-3.2867,-3.3194,-3.337,0.0,0.0,0.0,0.0,0.0,0.0,0.0,0.0,0.0,0.0,0.0,0.0,0.0,0.0,-3.3781,-3.4614,-3.4538,-3.4467,-3.4399,-3.3825,-3.3479,-3.3479,-3.3269,-3.3381,-3.3865,0.0,0.0,0.0,0.0,0.0,0.0,-3.7554,-3.8093,-3.8751,-3.92,-3.8661,0.0,0.0,0.0,-3.5519,0.0,0.0,-3.5519,-3.5759,-3.5968,0.0,0.0,-3.5968,-3.6088,-3.5639,-3.5519,-3.5519,-3.5519,-3.5519,-3.5519,-3.5519,-3.5519,-3.5519,-3.5519,0.0,0.0,0.0,0.0,0.0,0.0,0.0,0.0,0.0,0.0,0.0,0.0,0.0,0.0,0.0,0.0,0.0,0.0,0.0,0.0,0.0,0.0,0.0,0.0,0.0,0.0,0.0,0.0,0.0,-3.7793,-3.7345,-3.6806,-3.6178,-3.6148,-3.5938,-3.5519,-3.5519,-3.5519,-3.5519,-3.5519,-3.5519,-3.5519,-3.5519,-3.5519,-3.5519,-3.5519,-3.5133,-3.4409,-3.3115,-3.2409,-3.2102,-3.1442,-3.1461,-3.2014,-3.2566,-3.2918,-3.3068,0.0,0.0,0.0,0.0,0.0,0.0,0.0,0.0,0.0,-3.1511,0.0,0.0,0.0,0.0,0.0,-3.54,-3.5294,-3.5133,-3.4935,-3.4601,-3.4399,-3.4399,-3.4235,-3.4303,-3.4698,0.0,0.0,0.0,0.0,0.0,0.0,0.0,-3.6806,-3.7345,-3.7375,-3.7375,-3.7315,0.0,-3.6118,-3.5519,0.0,-3.5519,-3.5609,0.0,0.0,0.0,-3.6716,-3.6896,0.0,-3.5968,0.0,-3.5519,-3.5519,-3.5519,-3.5519,-3.5519,-3.5519,-3.5519,0.0,0.0,0.0,0.0,0.0,0.0,0.0,0.0,0.0,0.0,0.0,0.0,0.0,0.0,0.0,0.0,0.0,0.0,0.0,0.0,0.0,0.0,0.0,0.0,0.0,0.0,0.0,0.0,-3.7734,-3.7105,-3.6477,-3.6447,-3.6178,-3.5519,-3.5489,-3.5489,-3.5519,-3.5459,-3.5459,-3.5519,-3.5489,-3.5489,-3.5519,-3.5519,-3.5519,-3.5519,-3.5519,-3.4409,-3.2593,-3.2593,-3.1489,-2.9932,-3.0407,-3.0934,-3.1461,-3.2014,-3.2566,-3.3068,0.0,0.0,0.0,0.0,0.0,0.0,-3.1541,-3.1482,-3.1631,0.0,0.0,0.0,-3.3814,-3.4532,-3.51,-3.5459,-3.5294,-3.5162,-3.5133,-3.4868,-3.4735,-3.4735,-3.4735,-3.4802,-3.5096,0.0,0.0,0.0,0.0,0.0,0.0,0.0,0.0,0.0,-3.6537,-3.6477,-3.6058,-3.6357,0.0,-3.5519,-3.5519,-3.5789,0.0,0.0,0.0,0.0,0.0,-3.7255,-3.7285,0.0,-3.6207,-3.6118,-3.5639,-3.5519,-3.5519,-3.5519,-3.5519,-3.5519,-3.5519,0.0,0.0,0.0,0.0,0.0,0.0,0.0,0.0,0.0,0.0,0.0,0.0,0.0,0.0,0.0,0.0,0.0,0.0,0.0,0.0,0.0,0.0,0.0,0.0,0.0,0.0,0.0,-3.6836,-3.6447,-3.5818,-3.5789,-3.5699,-3.5519,-3.5011,-3.5011,-3.5519,-3.4532,-3.4532,-3.5489,-3.5011,-3.5011,-3.5519,-3.5519,-3.5519,-3.5519,-3.5519,-3.4409,-3.2593,-3.2593,-3.1901,-3.0823,-3.0696,-3.0934,-3.1461,-3.2014,-3.2566,-3.3068,0.0,0.0,0.0,0.0,0.0,0.0,-3.2407,-3.2347,-3.2497,0.0,0.0,0.0,-3.4352,-3.51,-3.5519,-3.5519,-3.5359,-3.5359,-3.5359,-3.5228,-3.5162,-3.5162,-3.5162,-3.5228,-3.5294,0.0,0.0,0.0,0.0,0.0,0.0,0.0,0.0,0.0,0.0,0.0,0.0,0.0,0.0,0.0,-3.5519,0.0,0.0,-3.6776,-3.7434,0.0,0.0,0.0,-3.8482,-3.7285,-3.6716,0.0,0.0,-3.5519,-3.5519,-3.5519,-3.5519,-3.5519,-3.5519,-3.5519,-3.5519,0.0,0.0,0.0,-3.4622,-3.4771,0.0,0.0,0.0,0.0,0.0,0.0,0.0,0.0,0.0,0.0,0.0,0.0,0.0,0.0,0.0,0.0,0.0,-3.7404,-3.6866,-3.6507,-3.6237,-3.5789,-3.51,-3.507,-3.4951,-3.4681,-3.4292,-3.4262,-3.4651,-3.3873,-3.3873,-3.4651,-3.4532,-3.4681,-3.507,-3.507,-3.525,-3.5489,-3.519,-3.4147,-3.2593,-3.2593,-3.1829,-3.0596,-3.0365,-3.0733,-3.1436,-3.1763,-3.239,-3.3068,0.0,0.0,0.0,-3.3484,-3.3604,-3.3574,-3.3514,-3.3484,-3.3514,0.0,-3.3664,-3.3933,-3.4532,-3.513,-3.5519,-3.5519,-3.5519,-3.5519,-3.5519,-3.5519,-3.5519,-3.5519,-3.5519,-3.5519,-3.5519,-3.5519,0.0,0.0,0.0,0.0,0.0,0.0,0.0,0.0,0.0,0.0,0.0,0.0,0.0,-3.54,-3.5459,-3.5938,0.0,0.0,-3.8242,-3.9349,-3.8721,-3.929,-3.9978,-3.8063,-3.6985,0.0,0.0,0.0,0.0,-3.5519,-3.5519,-3.5519,-3.5519,-3.5519,-3.5519,-3.5519,-3.5519,0.0,-3.4532,-3.4412,-3.4233,0.0,0.0,0.0,0.0,0.0,0.0,0.0,0.0,0.0,0.0,0.0,0.0,0.0,0.0,0.0,-3.7075,-3.6537,-3.6148,-3.6148,-3.5609,-3.5011,-3.4412,-3.4352,-3.4113,-3.3514,-3.3425,-3.3425,-3.3484,-3.3335,-3.3335,-3.3514,-3.4023,-3.4292,-3.4352,-3.4442,-3.4801,-3.537,-3.4831,-3.3856,-3.2593,-3.2593,-3.1489,-2.9804,-2.9804,-3.0407,-3.1311,-3.1361,-3.2064,-3.2993,0.0,0.0,0.0,-3.4173,-3.4292,-3.4113,-3.3574,-3.3484,-3.3694,-3.4203,-3.4771,-3.516,-3.528,-3.5429,-3.5519,-3.5519,-3.5519,-3.5519,-3.5519,-3.5519,-3.5519,-3.5519,-3.5519,-3.5519,-3.5519,-3.5519,-3.5519,0.0,0.0,0.0,0.0,0.0,0.0,0.0,0.0,0.0,0.0,0.0,0.0,-3.4711,-3.528,0.0,-3.7255,-3.7375,-3.8242,-3.9409,-3.926,-3.9379,-3.9379,-3.7913,-3.6985,-3.6357,0.0,0.0,0.0,-3.5519,0.0,0.0,-3.5519,-3.5519,0.0,0.0,0.0,0.0,-3.3963,-3.4083,-3.3993,0.0,0.0,0.0,0.0,0.0,0.0,0.0,0.0,0.0,0.0,0.0,0.0,0.0,0.0,0.0,-3.504,-3.4472,-3.4083,-3.4083,-3.3963,-3.3814,-3.3694,-3.3694,-3.3634,-3.3484,-3.2976,-3.2946,-3.3484,-3.2437,-3.2437,-3.3484,-3.3095,-3.3185,-3.3694,-3.4233,-3.4532,-3.4711,-3.513,-3.4292,-3.2593,-3.2593,-3.1489,-2.9804,-2.9804,-3.0181,-3.0809,-3.1235,-3.1813,-3.2441,0.0,-3.3006,-3.3215,-3.3873,-3.4262,-3.4352,-3.4023,-3.4262,-3.4622,0.0,-3.5579,-3.6118,-3.6417,-3.6447,-3.6327,-3.6028,-3.5998,-3.5848,-3.5519,-3.5519,-3.5519,-3.5519,-3.5519,-3.5519,-3.5519,-3.5519,-3.5519,-3.5519,0.0,0.0,0.0,0.0,0.0,0.0,0.0,0.0,0.0,0.0,-3.531,-3.5011,-3.537,0.0,-3.6507,-3.6836,-3.7554,-3.8422,-3.8422,-3.8422,-3.8302,-3.7644,-3.6985,0.0,-3.5699,-3.5519,-3.5519,0.0,-3.5519,-3.5519,0.0,0.0,0.0,-3.5519,0.0,0.0,0.0,-3.4233,-3.3993,0.0,0.0,0.0,0.0,0.0,0.0,0.0,0.0,0.0,0.0,0.0,0.0,0.0,0.0,0.0,-3.3993,-3.3694,-3.3484,-3.3484,-3.3484,-3.3335,-3.3036,-3.3006,-3.2856,-3.2527,-3.2198,-3.2168,-3.2527,-3.1869,-3.1869,-3.2527,-3.2527,-3.2677,-3.3006,-3.3335,-3.3844,-3.4472,-3.3997,-3.3331,-3.2522,-3.2092,-3.1044,-2.9804,-2.9804,-3.0131,-3.0683,-3.121,-3.1738,-3.229,-3.2347,-3.2527,-3.2706,0.0,0.0,-3.4472,-3.4472,-3.507,0.0,0.0,0.0,0.0,-3.7554,-3.7494,-3.7404,-3.7434,-3.6626,-3.6148,-3.6267,-3.5669,-3.531,-3.531,-3.5429,-3.5459,-3.531,-3.5429,-3.5519,-3.5519,0.0,0.0,0.0,0.0,0.0,0.0,0.0,0.0,0.0,0.0,0.0,-3.531,0.0,-3.5579,-3.5759,-3.6297,-3.6866,-3.7404,-3.7404,-3.7404,-3.7375,-3.7285,-3.6896,-3.6357,-3.5699,-3.5519,0.0,0.0,0.0,0.0,0.0,0.0,0.0,0.0,0.0,-3.531,0.0,0.0,0.0,0.0,0.0,0.0,0.0,0.0,0.0,0.0,0.0,0.0,0.0,0.0,0.0,0.0,0.0,0.0,0.0,-3.3185,-3.3125,-3.3125,-3.3125,-3.2886,-3.2347,-3.2317,-3.2078,-3.1482,-3.1482,-3.1482,-3.1482,-3.1482,-3.1482,-3.1482,-3.2078,-3.2317,-3.2317,-3.2467,-3.3034,-3.3981,-3.2774,-3.2281,-3.2236,-3.1536,-3.062,-2.9804,-2.9804,-3.0055,-3.0507,-3.106,-3.1512,-3.1989,-3.2168,-3.2527,-3.2706,0.0,0.0,0.0,-3.4472,-3.507,0.0,0.0,0.0,0.0,0.0,-3.7764,-3.8332,-4.0636,-3.7075,-3.5908,-3.8781,-3.6237,-3.4592,-3.4592,-3.519,-3.522,-3.4592,-3.519,-3.5519,-3.5519,0.0,0.0,0.0,0.0,0.0,0.0,-3.5519,0.0,0.0,0.0,-3.516,0.0,-3.525,-3.5848,0.0,-3.6447,-3.6866,-3.7404,-3.7404,-3.7404,-3.7315,0.0,-3.6537,-3.6357,0.0,-3.5519,-3.5519,-3.5519,0.0,0.0,0.0,0.0,0.0,0.0,-3.5519,0.0,0.0,0.0,-3.4262,-3.3544,0.0,0.0,0.0,0.0,0.0,0.0,0.0,0.0,0.0,0.0,0.0,0.0,0.0,0.0,0.0,-3.2108,-3.1749,-3.1749,-3.1749,-3.1661,-3.1659,-3.1571,-3.1541,-3.1482,-3.1482,-3.1482,-3.1482,-3.1482,-3.1482,-3.1482,-3.1541,-3.1571,-3.1601,-3.2258,-3.2461,-3.2413,-3.2803,-3.236,-3.1315,-3.1241,-3.062,-2.9804,-2.9804,-2.9829,-2.9955,-3.0507,-3.0733,-3.0859,-3.0582,-3.1091,-3.142,0.0,0.0,0.0,0.0,0.0,0.0,0.0,0.0,0.0,0.0,0.0,-4.0307,-4.1833,-3.9469,-3.8182,0.0,-3.6836,-3.5489,-3.51,-3.534,-3.537,-3.507,-3.537,-3.5519,-3.5519,-3.5519,0.0,0.0,0.0,0.0,0.0,-3.5519,0.0,-3.4951,0.0,-3.51,0.0,0.0,0.0,0.0,-3.5908,-3.6088,-3.6297,-3.6297,-3.6297,-3.6267,0.0,-3.5908,0.0,0.0,0.0,0.0,-3.5519,0.0,0.0,0.0,0.0,0.0,0.0,0.0,0.0,-3.513,0.0,-3.4891,0.0,0.0,0.0,0.0,0.0,0.0,0.0,-3.1482,0.0,0.0,0.0,0.0,0.0,0.0,0.0,0.0,0.0,0.0,0.0,-3.0402,-3.0402,-3.0402,-3.0731,-3.0941,-3.0941,-3.133,-3.1482,-3.1482,-3.1482,-3.1482,-3.1482,-3.1482,-3.1482,-3.1482,-3.1309,-3.1529,-3.2105,-3.1277,-3.1037,-3.1193,-3.062,-3.0139,-2.9804,-2.9804,-2.9804,-2.9854,-3.0407,-3.0608,-3.0683,-2.9205,-2.9953,0.0,0.0,0.0,0.0,0.0,0.0,0.0,0.0,0.0,0.0,-4.1414,-4.1504,0.0,-4.3599,-4.1833,-4.0427,0.0,0.0,-3.6357,-3.5549,-3.5519,-3.54,-3.522,-3.54,-3.5519,-3.5519,-3.5519,0.0,0.0,0.0,0.0,0.0,0.0,-3.513,-3.4502,0.0,-3.4831,-3.4262,-3.4771,-3.507,-3.525,-3.5429,-3.5519,-3.5519,-3.5519,-3.5519,-3.5519,-3.5519,-3.5519,0.0,-3.5519,0.0,0.0,0.0,0.0,0.0,-3.5519,0.0,0.0,0.0,0.0,0.0,0.0,0.0,0.0,0.0,0.0,0.0,0.0,0.0,0.0,0.0,0.0,-3.1482,0.0,0.0,0.0,0.0,0.0,0.0,0.0,0.0,0.0,-2.9624,-2.9594,-2.9594,-2.9594,-3.0163,-3.0492,-3.0492,-3.118,-3.1482,-3.1482,-3.1482,-3.1482,-3.1482,-3.1482,-3.1482,-3.1482,-3.0896,-3.1058,-3.1754,-3.0675,-3.0573,-3.1223,-3.0768,-3.057,-3.057,-3.0292,-3.0216,-3.019,-3.031,-3.0382,-3.0457,-2.8637,-2.9654,0.0,0.0,0.0,0.0,0.0,0.0,0.0,0.0,0.0,0.0,0.0,0.0,0.0,0.0,0.0,-4.1893,-4.315,0.0,-3.6806,-3.5549,-3.5519,-3.519,-3.4532,-3.516,-3.5519,-3.5519,-3.5519,0.0,0.0,0.0,0.0,0.0,-3.5519,-3.513,-3.4472,-3.4502,-3.4143,-3.3514,-3.3544,-3.3933,-3.4592,0.0,-3.5519,-3.5519,-3.5519,0.0,0.0,-3.5519,-3.5519,0.0,0.0,0.0,0.0,0.0,0.0,0.0,0.0,0.0,0.0,-3.5519,0.0,0.0,0.0,0.0,-3.5489,0.0,0.0,0.0,0.0,0.0,0.0,-3.1629,0.0,0.0,0.0,0.0,0.0,0.0,0.0,0.0,0.0,0.0,0.0,-2.9594,-2.9594,-2.9594,-2.9594,-3.0163,-3.0492,-3.0492,-3.118,-3.1482,-3.1482,-3.1482,-3.1482,-3.1482,-3.1482,-3.1482,-3.1482,-3.1482,-3.1337,-3.1151,-3.1754,-3.1829,-3.1626,-3.2301,-3.2522,-3.2379,-3.1536,-3.1193,-3.1044,-3.0164,-2.9829,-2.9829,0.0,0.0,0.0,0.0,0.0,0.0,0.0,-3.5609,0.0,0.0,0.0,0.0,0.0,-4.5424,-4.6202,0.0,0.0,-4.5125,-4.4676,-4.2162,0.0,-3.8182,-3.7674,-3.6896,-3.5818,-3.6028,-3.5938,-3.5519,-3.5519,0.0,0.0,0.0,0.0,0.0,0.0,-3.4891,0.0,0.0,0.0,0.0,0.0,-3.3634,-3.3844,0.0,0.0,-3.4831,-3.4831,-3.4831,0.0,-3.534,-3.5519,-3.5519,-3.5519,-3.5519,-3.5519,-3.5519,-3.5519,0.0,0.0,0.0,-3.5519,-3.5519,0.0,0.0,0.0,0.0,0.0,0.0,0.0,0.0,0.0,0.0,0.0,-3.1571,-3.1482,0.0,0.0,0.0,0.0,0.0,0.0,0.0,0.0,0.0,0.0,-2.8278,-2.8299,-2.8299,-2.8299,-2.9295,-2.9894,-2.9894,-3.0971,-3.1482,-3.1482,-3.1482,-3.1482,-3.1482,-3.1482,-3.1482,-3.1482,-3.0955,-3.0858,-3.1123,-3.1208,-3.136,-3.1668,-3.2345,-3.2593,-3.2593,-3.2236,-3.2092,-3.1974,-3.0368,-3.0216,-3.0846,-3.0283,0.0,0.0,0.0,0.0,0.0,0.0,0.0,0.0,0.0,-4.1773,0.0,-4.692,0.0,-4.7848,0.0,-4.8506,-4.7219,-4.5424,-4.3898,0.0,-3.9858,-3.911,-3.8153,-3.6836,-3.6596,-3.6178,-3.5519,-3.5519,-3.5519,0.0,0.0,0.0,0.0,0.0,-3.4771,-3.3514,0.0,-3.3365,0.0,0.0,-3.2946,0.0,0.0,-3.3544,-3.4173,0.0,-3.4472,-3.4592,-3.528,-3.5519,-3.5519,-3.5519,-3.5519,-3.5519,-3.5519,-3.5519,-3.5519,-3.5519,-3.5519,0.0,-3.5519,-3.5519,0.0,-3.5519,0.0,0.0,0.0,0.0,0.0,0.0,0.0,0.0,-3.1571,-3.1482,-3.1392,0.0,-3.0791,0.0,0.0,0.0,0.0,0.0,0.0,-2.8068,-2.764,-2.761,-2.761,0.0,0.0,-2.9325,-2.9564,-3.0612,-3.127,-3.1482,-3.1482,-3.1482,-3.1482,-3.1482,-3.1482,-3.1482,-3.0955,-3.0922,-3.1238,-3.1639,-3.198,-3.234,-3.326,-3.3602,-3.363,-3.3255,-3.3087,-3.2876,-3.1341,-3.1193,-3.1756,0.0,0.0,0.0,0.0,-3.2287,0.0,0.0,0.0,-3.9948,0.0,-4.2731,-4.4556,-4.716,-4.7459,-4.7938,-4.9164,-4.9254,-4.8177,-4.5603,-4.4825,0.0,0.0,-3.9918,-3.8901,-3.7494,-3.6836,-3.6178,-3.5519,0.0,0.0,0.0,0.0,0.0,0.0,-3.5519,0.0,-3.3544,-3.3514,-3.2736,-3.1482,-3.1482,-3.184,-3.2467,-3.2467,-3.2886,-3.3544,-3.4233,-3.4472,-3.4592,-3.528,-3.5519,-3.5519,-3.5519,-3.5519,-3.5519,-3.5519,-3.5519,-3.5519,-3.5519,-3.5519,-3.5519,-3.5519,0.0,0.0,0.0,0.0,-3.528,0.0,0.0,0.0,0.0,0.0,0.0,-3.1571,-3.1482,-3.13,0.0,0.0,0.0,0.0,0.0,0.0,0.0,-2.7949,-2.761,-2.761,-2.761,-2.761,0.0,0.0,-2.8906,-2.9564,-3.0193,-3.0821,-3.1452,-3.1482,-3.1482,-3.1482,-3.1482,-3.1482,-3.1482,-3.1482,-3.1482,-3.1541,-3.2916,-3.3484,-3.3604,-3.4951,-3.5519,-3.5424,-3.4476,-3.4081,-3.3945,-3.3017,-3.2664,-3.2664,-3.2168,-3.3185,-3.4023,0.0,-3.4233,-3.4502,0.0,0.0,0.0,0.0,-4.5574,-4.7638,-4.9314,-4.9494,-4.9434,-4.9284,-4.9254,0.0,0.0,0.0,0.0,-4.3389,-4.2222,-4.0516,-3.8182,-3.7494,-3.6626,-3.5519,0.0,0.0,-3.5519,0.0,0.0,0.0,0.0,0.0,-3.4203,-3.3694,-3.2736,-3.1482,-3.1482,-3.1571,0.0,0.0,-3.2198,-3.2916,-3.4053,-3.4472,-3.4592,-3.528,-3.5519,-3.5519,-3.5519,-3.5519,-3.5519,-3.5519,-3.5519,-3.5519,-3.5519,-3.5519,-3.5519,-3.5519,-3.513,-3.4891,0.0,0.0,0.0,0.0,0.0,0.0,0.0,0.0,0.0,0.0,-3.1482,0.0,0.0,0.0,0.0,-2.8697,0.0,-2.7829,-2.7829,-2.773,-2.761,-2.761,-2.761,0.0,0.0,0.0,0.0,-2.9564,-3.0193,-3.0821,-3.1452,-3.1482,-3.1482,-3.1482,-3.1482,-3.1482,-3.1482,-3.1482,-3.1482,-3.1541,-3.2916,-3.3484,-3.3604,-3.4951,-3.5519,-3.5489,-3.5228,-3.5133,-3.5001,-3.4041,-3.3671,-3.3739,-3.3305,0.0,0.0,-3.6537,0.0,0.0,-3.7973,0.0,0.0,-4.4018,-4.6142,0.0,-4.8446,-4.9314,-4.9673,-4.9284,-4.9015,0.0,-4.7908,0.0,0.0,-4.4377,-4.306,-4.1265,-3.8901,-3.7644,-3.6507,-3.5519,-3.522,0.0,-3.5519,0.0,0.0,0.0,0.0,-3.513,0.0,-3.3455,-3.2467,-3.1482,-3.1482,0.0,0.0,-3.2168,-3.2617,-3.3125,-3.4442,-3.4741,-3.4592,-3.528,-3.5519,-3.5519,-3.5519,-3.5519,-3.5519,-3.5519,-3.5519,-3.5519,-3.5519,-3.5519,-3.5519,-3.5519,-3.4981,-3.4592,-3.4981,-3.4532,-3.4083,0.0,0.0,0.0,0.0,0.0,0.0,0.0,0.0,0.0,0.0,0.0,0.0,0.0,-2.8248,0.0,-2.764,-2.761,-2.761,-2.761,-2.761,0.0,0.0,0.0,0.0,-2.9535,-2.9924,-3.0552,-3.1452,-3.1482,-3.1482,-3.1482,-3.1482,-3.1482,-3.1482,-3.1482,-3.1482,-3.1541,-3.2916,-3.3484,-3.3604,-3.4951,-3.5519,-3.5519,-3.5519,-3.5519,-3.5424,-3.4839,-3.4677,-3.4773,0.0,0.0,0.0,0.0,0.0,0.0,0.0,-4.2102,0.0,-4.4377,0.0,-4.686,-4.6621,-4.8117,-4.9105,-4.9015,0.0,-4.7878,-4.7219,-4.6651,-4.5693,-4.4257,-4.3,-4.1384,-3.932,-3.7434,-3.6178,-3.5519,-3.4831,-3.4831,-3.5519,0.0,0.0,0.0,0.0,0.0,0.0,-3.3125,-3.2198,-3.1482,-3.1482,-3.1511,-3.1779,-3.2826,-3.3395,-3.3754,-3.4741,-3.4891,-3.4711,-3.531,-3.5519,-3.5519,-3.5519,-3.5519,-3.5519,-3.5519,-3.5519,-3.5519,-3.5519,-3.5519,-3.5519,-3.5519,-3.4921,-3.4352,-3.4442,-3.3903,-3.3215,-3.2736,-3.2587,-3.2347,0.0,0.0,0.0,0.0,0.0,0.0,0.0,0.0,0.0,0.0,0.0,0.0,-2.77,-2.761,-2.761,-2.761,0.0,0.0,0.0,0.0,0.0,-2.9415,-2.9535,-3.0163,-3.139,0.0,-3.1482,-3.1482,-3.1482,-3.1482,-3.1482,-3.1482,-3.1482,-3.1541,-3.2916,-3.3484,-3.3604,-3.4951,-3.5519,-3.5519,-3.5519,-3.5519,-3.5519,-3.5519,-3.5519,-3.5519,0.0,0.0,0.0,0.0,0.0,-4.3269,-4.4436,-4.6022,-4.68,-4.6082,-4.8536,-4.9733,-4.8117,-4.8237,-4.8237,-4.7698,-4.7549,0.0,0.0,0.0,0.0,-4.3599,-4.2761,-4.1175,-3.8631,-3.7195,-3.6178,-3.5519,-3.4831,-3.4831,-3.5519,0.0,0.0,0.0,0.0,0.0,-3.3664,-3.3425,0.0,-3.1482,-3.1482,-3.181,-3.2317,-3.1988,-3.2886,-3.4203,-3.3335,-3.4023,-3.534,-3.5459,-3.5519,-3.5519,-3.5519,-3.5519,-3.5519,-3.5519,-3.5519,-3.5519,-3.5519,-3.5519,-3.5519,-3.5519,-3.4592,-3.3814,-3.4352,-3.3544,-3.2796,-3.3245,-3.2886,-3.2467,-3.2377,0.0,0.0,0.0,0.0,0.0,0.0,0.0,0.0,0.0,0.0,-2.8338,0.0,-2.761,-2.761,0.0,0.0,0.0,0.0,0.0,0.0,0.0,-2.9295,0.0,0.0,0.0,-3.1482,-3.1482,-3.1482,-3.1482,-3.1482,-3.1482,-3.1482,-3.1541,-3.2916,-3.3484,-3.3604,-3.4951,-3.5519,-3.5519,-3.5519,-3.5519,-3.5519,-3.5519,-3.5519,-3.5519,0.0,0.0,0.0,0.0,0.0,0.0,0.0,-4.7728,0.0,-4.6052,-4.686,-4.7279,-4.6322,-4.716,-4.7638,-4.7339,-4.698,-4.6651,-4.6352,-4.5663,-4.4706,-4.3389,-4.2073,-4.0427,-3.8422,-3.6447,-3.5459,-3.5519,-3.4472,-3.4502,-3.5519,0.0,0.0,0.0,0.0,-3.4412,0.0,0.0,0.0,-3.1482,-3.1482,-3.1719,-3.2048,-3.2407,-3.3155,-3.3933,-3.3634,-3.4382,-3.5459,-3.51,-3.522,-3.5459,-3.507,-3.522,-3.5429,-3.507,-3.522,-3.5429,-3.507,-3.525,-3.5429,-3.507,-3.4472,-3.4083,-3.4412,-3.3455,-3.2587,-3.2916,-3.2467,-3.2018,-3.2018,-3.1749,0.0,0.0,0.0,0.0,0.0,0.0,-3.0672,0.0,0.0,0.0,0.0,0.0,0.0,0.0,0.0,0.0,0.0,0.0,0.0,0.0,0.0,0.0,0.0,0.0,0.0,-3.1482,-3.1482,-3.1482,-3.1482,-3.1482,-3.1719,-3.2108,-3.3066,-3.3694,-3.4083,-3.51,-3.5519,-3.5519,-3.5519,-3.5519,-3.5519,-3.5519,-3.5519,-3.5519,0.0,-4.0816,0.0,0.0,-4.4646,0.0,-4.695,-4.8207,-4.8297,-4.6202,-4.5484,-4.5095,-4.4975,-4.6232,-4.71,-4.71,-4.6501,-4.5992,-4.5693,-4.4706,-4.3688,-4.2761,-4.1085,-3.9559,-3.8212,-3.5759,-3.4741,-3.528,-3.4083,-3.4113,-3.528,-3.5429,0.0,0.0,0.0,0.0,0.0,0.0,-3.2138,-3.1482,-3.1482,-3.1571,-3.1869,-3.2886,-3.3365,-3.3574,-3.4083,-3.4711,-3.522,-3.4651,-3.4831,-3.519,-3.4651,-3.4861,-3.519,-3.4622,-3.4861,-3.513,-3.4442,-3.4771,-3.516,-3.4622,-3.4472,-3.4472,-3.4472,-3.3574,-3.2706,-3.2706,-3.2198,-3.1631,-3.1511,-3.1482,0.0,0.0,0.0,0.0,0.0,0.0,0.0,0.0,0.0,0.0,-2.776,0.0,0.0,0.0,0.0,0.0,0.0,0.0,0.0,0.0,0.0,-2.9894,-3.0492,0.0,-3.1482,-3.1482,-3.1482,-3.1482,-3.1482,-3.1631,-3.2018,-3.2557,-3.3365,-3.4083,-3.4741,-3.528,-3.5519,-3.5519,-3.5519,-3.5519,-3.5519,-3.5519,-3.5519,-3.5519,0.0,0.0,0.0,0.0,0.0,0.0,-4.6381,-4.7549,-4.8297,-4.8027,-4.7938,-4.7698,-4.71,-4.6651,-4.6411,-4.6411,-4.5783,-4.4885,-4.3688,-4.3479,-4.2611,-4.0756,-3.9918,-3.8871,-3.7524,-3.5519,-3.4502,0.0,0.0,-3.3873,-3.4592,-3.522,0.0,0.0,0.0,0.0,0.0,-3.2527,-3.2138,-3.1482,-3.1482,-3.1898,-3.2437,-3.2557,-3.2976,-3.3514,-3.3574,-3.3993,-3.4562,-3.4502,-3.4532,-3.4562,-3.4502,-3.4532,-3.4562,-3.4502,-3.4532,-3.4442,-3.3754,-3.4053,-3.4562,-3.4502,-3.4472,-3.4472,-3.4472,-3.3933,-3.3395,-3.3395,-3.2886,-3.2228,-3.1571,-3.1482,-3.1482,0.0,0.0,0.0,0.0,0.0,-3.1061,-2.9744,0.0,0.0,0.0,-2.8128,0.0,0.0,-2.761,0.0,0.0,0.0,0.0,-2.8577,0.0,-2.9894,-3.0492,-3.118,-3.1482,-3.1482,-3.1482,-3.1482,-3.1511,-3.2138,-3.2467,-3.2587,-3.3844,-3.4771,-3.54,-3.5489,-3.5519,-3.5519,-3.5519,-3.5519,-3.5519,-3.5519,-3.5519,-3.5519,0.0,0.0,0.0,0.0,0.0,0.0,0.0,-4.7369,-4.7698,-4.7698,-4.7369,-4.701,-4.6741,-4.6112,-4.5693,-4.5693,-4.5095,-4.4496,-4.3958,-4.318,-4.2222,-4.1025,-3.9589,-3.8362,-3.7434,-3.5489,-3.4472,0.0,0.0,-3.4023,-3.3903,-3.4592,0.0,0.0,0.0,-3.3006,-3.2497,-3.2108,-3.1779,-3.1482,-3.1482,-3.1631,-3.1958,-3.2377,-3.2916,-3.3484,-3.3484,-3.4173,-3.4981,-3.4173,-3.4143,-3.4412,-3.4023,-3.3873,-3.3814,-3.3425,-3.3574,-3.3814,-3.3574,-3.3694,-3.3993,-3.4382,-3.4472,-3.4592,-3.5011,-3.4562,-3.3963,-3.3574,-3.2647,-3.1839,-3.1511,-3.1482,-3.1482,0.0,0.0,0.0,0.0,0.0,0.0,-3.0253,0.0,-2.9475,0.0,0.0,0.0,0.0,0.0,0.0,0.0,0.0,0.0,-2.8577,0.0,-3.0253,-3.0492,-3.118,-3.1482,-3.1482,-3.1928,-3.2108,-3.2138,-3.2796,-3.3335,-3.3754,-3.4681,-3.525,-3.5519,-3.5519,-3.5519,-3.5519,-3.5519,-3.5519,-3.5519,-3.5519,-3.5519,-3.5519,-4.5484,0.0,-4.5813,0.0,-4.6621,-4.677,-4.7249,-4.7309,-4.7249,-4.704,-4.6441,-4.6082,-4.6292,-4.5544,-4.5005,-4.5005,-4.4407,-4.3868,-4.3479,-4.2581,-4.1594,-4.0546,-3.896,0.0,-3.7165,-3.54,-3.4382,-3.4173,-3.4173,-3.3844,-3.3215,0.0,0.0,0.0,-3.2916,-3.2706,-3.2497,-3.2228,-3.2108,-3.2108,-3.1898,-3.175,-3.1869,-3.2347,-3.2677,-3.2976,-3.3365,-3.4113,-3.4801,-3.4053,-3.4083,-3.4352,-3.3694,-3.3484,-3.3365,-3.2706,-3.2856,-3.3155,-3.2976,-3.3066,-3.3365,-3.4023,-3.4322,-3.4651,-3.534,-3.4981,-3.4233,-3.3395,-3.2467,-3.1691,-3.1511,-3.1482,-3.1482,-3.1482,0.0,0.0,0.0,-3.1482,0.0,0.0,-3.0313,-2.9834,-2.8966,-2.8607,0.0,0.0,0.0,0.0,0.0,0.0,0.0,0.0,0.0,0.0,0.0,-3.1243,-3.1571,-3.1839,-3.2287,-3.2617,-3.2826,-3.3484,-3.4143,-3.4801,-3.528,-3.5519,-3.5519,-3.5519,-3.5519,-3.5519,-3.5519,-3.5519,-3.5519,-3.5519,-3.5519,-3.5519,-4.5933,-4.6322,-4.6531,-4.7189,-4.7309,-4.7309,-4.7309,-4.7309,-4.707,-4.6411,-4.5753,-4.5574,-4.6262,-4.5125,-4.4317,-4.4317,-4.3718,-4.2791,-4.1504,-4.1414,-4.0516,0.0,0.0,-3.7135,-3.6507,-3.516,-3.4173,-3.3514,0.0,0.0,-3.2527,0.0,-3.3155,-3.2557,-3.3215,-3.3125,-3.2557,-3.3215,-3.3484,-3.3425,-3.2766,-3.2497,-3.2497,-3.2527,-3.2108,-3.1661,-3.3036,-3.3514,-3.3604,-3.4262,-3.4472,-3.4352,-3.3694,-3.3484,-3.3365,-3.2706,-3.2527,-3.2377,-3.1661,-3.2048,-3.2677,-3.3335,-3.3993,-3.4651,-3.534,-3.4981,-3.4113,-3.2796,-3.2527,-3.2317,-3.1601,-3.1482,-3.1482,-3.1482,0.0,0.0,0.0,0.0,0.0,-3.0582,-3.1091,-3.1001,-2.9684,-3.0103,0.0,0.0,0.0,0.0,0.0,0.0,0.0,-3.0432,-3.0492,0.0,-3.1452,-3.1482,-3.181,-3.2497,-3.2527,-3.2856,-3.3514,-3.4173,-3.4831,-3.5489,-3.5519,-3.5519,-3.5519,-3.5519,-3.5519,-3.5519,-3.5519,-3.5519,-3.5519,-3.5519,-3.5519,-3.5519,-4.677,-4.698,-4.707,-4.7279,-4.692,-4.6621,-4.6621,-4.6232,-4.5873,-4.5663,-4.5035,-4.4706,-4.4915,-4.3778,-4.297,0.0,-4.2372,-4.1833,0.0,-4.0965,-4.0217,-3.914,-3.8003,-3.7135,-3.6507,-3.5639,-3.4831,-3.4173,0.0,0.0,0.0,-3.2467,-3.2048,-3.1869,-3.2527,-3.2706,-3.2557,-3.3215,-3.3484,-3.3484,-3.3275,-3.3185,-3.3185,-3.3185,-3.3335,-3.3604,-3.4023,-3.4472,-3.4891,-3.51,-3.519,-3.4981,-3.3844,-3.3484,-3.3365,-3.2706,-3.2826,-3.3245,-3.3484,-3.3365,-3.3455,-3.4592,-3.4681,-3.4651,-3.534,-3.4622,-3.3574,-3.2706,-3.2168,-3.1779,-3.1511,-3.1482,-3.1482,-3.1482,-3.1482,0.0,0.0,0.0,-3.1392,-3.124,-3.1001,-3.0672,-3.0253,-3.0013,0.0,0.0,0.0,0.0,0.0,0.0,0.0,0.0,-3.139,0.0,-3.2198,-3.2647,-3.2976,-3.3185,-3.3634,-3.4203,-3.4861,-3.507,-3.531,-3.5519,-3.5519,-3.5519,-3.5519,-3.5519,-3.5519,-3.5519,-3.5519,-3.5519,-3.5519,-3.5519,-3.5519,-3.5519,-4.6411,-4.6561,-4.6561,-4.6561,-4.6202,-4.5933,-4.5933,-4.5574,-4.5214,-4.4975,-4.4556,-4.4227,-4.3958,-4.2791,0.0,-4.2419,-4.1773,-4.1265,-4.1025,-4.0636,-3.9888,-3.8721,-3.7853,-3.7015,-3.6148,-3.5699,0.0,-3.4472,-3.4412,-3.3814,-3.2736,-3.1928,-3.1482,-3.1511,-3.2467,-3.2736,-3.2587,-3.3754,-3.3963,-3.3484,-3.3484,-3.3335,-3.3095,-3.2856,-3.3155,-3.3754,-3.3754,-3.4322,-3.513,-3.513,-3.528,-3.528,-3.3933,-3.3844,-3.4023,-3.2856,-3.2617,-3.2946,-3.3873,-3.3634,-3.3455,-3.4771,-3.4801,-3.4592,-3.5011,-3.4292,-3.3305,-3.2647,-3.1988,-3.1482,-3.1482,-3.1482,-3.1482,-3.1482,-3.1482,-3.1482,-3.1482,0.0,-3.1482,0.0,0.0,0.0,0.0,-3.0552,-3.0313,0.0,0.0,0.0,0.0,0.0,0.0,-3.124,-3.2078,0.0,-3.2886,-3.3275,-3.3634,-3.3873,-3.4532,-3.51,-3.5519,-3.5519,-3.5519,-3.5519,-3.5519,-3.5519,-3.5519,-3.5519,-3.5519,-3.5519,-3.5519,-3.5519,-3.5519,-3.5519,-3.5519,-3.5519,-4.5155,-4.5304,0.0,0.0,-4.5244,0.0,-4.5214,-4.5185,-4.4945,-4.4317,-4.4197,-4.3958,-4.3329,-4.2102,-4.1564,-4.2162,0.0,0.0,0.0,-4.0277,-3.9409,-3.7494,-3.7375,-3.6776,-3.5519,-3.5519,-3.519,-3.4532,-3.3275,-3.2317,-3.1601,-3.1571,-3.1511,-3.1541,-3.2856,-3.3095,-3.2647,-3.4562,-3.4651,-3.3484,-3.3484,-3.3125,-3.2527,-3.1898,-3.2048,-3.2587,-3.2587,-3.3365,-3.4412,-3.4412,-3.4831,-3.513,-3.3844,-3.4322,-3.4981,-3.3066,-3.2138,-3.1988,-3.3215,-3.3125,-3.2946,-3.4233,-3.4502,-3.4472,-3.4412,-3.3903,-3.3245,-3.2587,-3.1958,-3.1482,-3.1482,-3.1482,-3.1482,-3.1482,-3.1422,-3.1422,-3.1452,0.0,-3.1422,0.0,0.0,0.0,0.0,-3.1482,-3.1511,0.0,0.0,0.0,0.0,0.0,-3.127,-3.2467,-3.2587,-3.2946,-3.3544,-3.3604,-3.3933,-3.4562,-3.519,-3.5519,-3.5519,-3.5519,-3.5519,-3.5519,-3.5519,-3.5519,-3.5519,-3.5519,-3.5519,-3.5519,-3.5519,-3.5519,-3.5519,-3.5519,-3.5519,-3.5519,0.0,0.0,-4.5304,-4.5304,-4.4885,-4.4556,-4.4556,-4.4107,-4.3748,-4.3599,-4.315,-4.2761,-4.2611,-4.1414,-4.0696,-4.0846,-4.0277,-3.9828,-3.9679,-3.917,-3.8422,-3.7464,-3.6956,-3.6327,-3.5519,-3.5519,-3.5429,-3.525,-3.4412,-3.3664,-3.3036,-3.2527,-3.2018,-3.1511,-3.2377,-3.2647,-3.2587,-3.3544,-3.3784,-3.3484,-3.3484,-3.3395,-3.3245,-3.3095,-3.3125,-3.3275,-3.3275,-3.3455,-3.3724,-3.3724,-3.3844,-3.3814,-3.3006,-3.3305,-3.3784,-3.2796,-3.3125,-3.3844,-3.4173,-3.4143,-3.4203,-3.507,-3.4861,-3.4352,-3.3844,-3.3215,-3.2557,-3.1898,-3.1571,-3.1482,-3.1482,-3.1482,-3.1482,-3.1482,-3.1091,-3.0941,-3.1392,-3.1091,0.0,0.0,-3.1482,-3.1482,-3.1482,-3.1482,-3.1691,0.0,0.0,0.0,0.0,-3.2886,-3.2706,-3.2527,-3.3484,-3.4083,-3.4233,-3.4771,-3.51,-3.528,-3.5429,-3.5519,-3.5519,-3.5519,-3.5519,-3.5519,-3.5519,-3.5519,-3.5519,-3.5519,-3.5519,-3.5519,-3.5519,-3.5519,-3.5519,-3.5519,-3.5519,-3.5519,-4.3928,-4.4197,-4.4317,-4.4018,-4.3898,-4.3868,-4.3868,-4.3299,-4.288,-4.288,-4.2312,-4.1923,-4.1923,-4.0995,-4.0277,-3.9978,-3.9619,-3.929,-3.896,-3.8601,-3.7973,-3.7015,-3.6656,-3.6178,-3.5519,-3.5519,-3.534,-3.504,-3.4651,-3.3993,-3.3036,-3.2677,-3.2168,-3.1511,-3.2228,-3.2347,-3.2138,-3.3095,-3.3155,-3.2617,-3.2916,-3.2856,-3.2587,-3.2587,-3.2796,-3.3036,-3.3036,-3.3245,-3.3484,-3.3484,-3.3484,-3.3395,-3.2706,-3.3185,-3.3694,-3.2437,-3.2796,-3.3784,-3.4711,-3.4502,-3.4262,-3.525,-3.4771,-3.4023,-3.3963,-3.3215,-3.2407,-3.2048,-3.1691,-3.1482,-3.1482,-3.1482,-3.1362,-3.112,-3.0761,-3.0642,-3.1001,-3.0731,0.0,-3.1869,-3.1988,-3.2108,-3.2407,-3.2437,-3.2587,-3.2946,-3.3245,0.0,-3.3484,-3.4083,-3.4113,-3.3425,-3.4113,-3.4622,-3.4951,-3.531,-3.5519,-3.5519,-3.5519,-3.5519,-3.5519,-3.5519,-3.5519,-3.5519,-3.5519,-3.5519,-3.5519,-3.5519,-3.5519,-3.5519,-3.5519,-3.5519,-3.5519,-3.5519,-3.5519,-3.5519,-4.2491,-4.2791,-4.297,-4.2342,-4.2671,-4.303,-4.303,-4.2581,-4.2222,-4.2222,-4.1654,-4.1235,-4.1235,-4.0636,-3.9978,-3.932,-3.926,-3.896,-3.8272,-3.8153,-3.7614,-3.6537,-3.6387,-3.6088,-3.5519,-3.5519,-3.522,-3.4622,-3.4532,-3.3844,-3.2647,-3.2557,-3.2168,-3.1511,-3.2108,-3.2048,-3.1541,-3.2706,-3.2557,-3.1511,-3.2138,-3.2048,-3.1482,-3.1482,-3.1869,-3.2377,-3.2377,-3.2706,-3.3215,-3.3215,-3.3215,-3.3095,-3.2527,-3.3215,-3.3844,-3.2168,-3.2078,-3.2916,-3.4711,-3.4442,-3.3903,-3.507,-3.4352,-3.3484,-3.4053,-3.3245,-3.2377,-3.2377,-3.1928,-3.1482,-3.1482,-3.1482,-3.133,-3.0761,-3.0582,-3.0552,-3.0642,0.0,-3.1001,-3.2347,-3.2527,-3.2766,-3.3425,-3.3484,-3.3544,-3.3634,-3.4173,-3.4292,-3.3814,-3.4891,-3.525,-3.4651,-3.4622,-3.4921,-3.5489,-3.5519,-3.5519,-3.5519,-3.5519,-3.5519,-3.5519,-3.5519,-3.5519,-3.5519,-3.5519,-3.5519,-3.5519,-3.5519,-3.5519,-3.5519,-3.5519,-3.5519,-3.5519,-3.5519,-3.5519,-3.5519,-4.2491,-4.2462,-4.2312,-4.1654,-4.1624,-4.1683,-4.1683,-4.1594,-4.1534,-4.1534,-4.0965,-4.0546,-4.0546,-3.9978,-3.929,-3.8601,-3.8542,-3.8272,-3.7614,-3.7075,-3.6686,-3.6507,-3.5968,-3.5609,-3.5519,-3.5519,-3.5459,-3.534,-3.4771,-3.4083,-3.3335,-3.2766,-3.2168,-3.1482,-3.1571,-3.1571,-3.1482,-3.1691,-3.1719,-3.1482,-3.1571,-3.1571,-3.1482,-3.1482,-3.1541,-3.1689,-3.1689,-3.1691,-3.1839,-3.1839,-3.1839,-3.1809,-3.1719,-3.2198,-3.2766,-3.2467,-3.2437,-3.2706,-3.3574,-3.4053,-3.4382,-3.4592,-3.3634,-3.2706,-3.2796,-3.2228,-3.1689,-3.1689,-3.1541,-3.1482,-3.1482,-3.1482,-3.1452,-3.1332,-3.0881,-3.0702,-3.13,0.0,-3.1001,-3.2347,-3.2527,-3.2766,-3.3425,-3.3484,-3.3724,-3.4292,-3.4412,-3.4681,-3.516,-3.54,-3.5459,-3.534,-3.534,-3.54,-3.5519,-3.5519,-3.5519,-3.5519,-3.5519,-3.5519,-3.5519,-3.5519,-3.5519,-3.5519,-3.5519,-3.5519,-3.5519,-3.5519,-3.5519,-3.5519,-3.5519,-3.5519,-3.5519,-3.5519,-3.5519,-3.5519,-4.1504,-4.1863,-4.2043,-4.1025,-4.1145,-4.1384,-4.1384,-4.1085,-4.0846,-4.0846,-3.9948,-3.932,-3.932,-3.8721,-3.8063,-3.7434,-3.7375,-3.7075,-3.6417,-3.6447,-3.6327,-3.5968,-3.5669,-3.5519,-3.5519,-3.5519,-3.5519,-3.5519,-3.4831,-3.4143,-3.3484,-3.2826,-3.2168,-3.1482,-3.1482,-3.1482,-3.1482,-3.1482,-3.1482,-3.1482,-3.1482,-3.1482,-3.1482,-3.1482,-3.1482,-3.1482,-3.1482,-3.1482,-3.1482,-3.1482,-3.1482,-3.1482,-3.1482,-3.1988,-3.2437,-3.2078,-3.2497,-3.3036,-3.2976,-3.3185,-3.3514,-3.3873,-3.2946,-3.2078,-3.2437,-3.2018,-3.1482,-3.1482,-3.1482,-3.1482,-3.1482,-3.1482,-3.1482,-3.1482,-3.0672,0.0,0.0,-3.0941,-3.112,-3.2856,-3.3365,-3.3844,-3.4502,-3.4592,-3.4711,-3.5011,-3.504,-3.516,-3.5489,-3.5519,-3.5519,-3.5519,-3.5519,-3.5519,-3.5519,-3.5519,-3.5519,-3.5519,-3.5519,-3.5519,-3.5519,-3.5519,-3.5519,-3.5519,-3.5519,-3.5519,-3.5519,-3.5519,-3.5519,-3.5519,-3.5519,-3.5519,-3.5459,-3.51,-3.4951,-3.4951,-4.0636,-4.1205,-4.1534,-4.0367,-4.0576,-4.0935,-4.0935,-4.0367,-3.9948,-3.9948,-3.8901,-3.8153,-3.8153,-3.7704,-3.7165,-3.6537,-3.6477,-3.6207,-3.5549,-3.5968,-3.6028,-3.5519,-3.5519,-3.5519,-3.5519,-3.5519,-3.5519,-3.5519,-3.4651,-3.3993,-3.3484,-3.2647,-3.2018,-3.1482,-3.1482,-3.1482,-3.1482,-3.1482,-3.1482,-3.1482,-3.1482,-3.1482,-3.1482,-3.1482,-3.1482,-3.1482,-3.1482,-3.1482,-3.1482,-3.1482,-3.1482,-3.1482,-3.1482,-3.1869,-3.2198,-3.1631,-3.2258,-3.3006,-3.2796,-3.2617,-3.2647,-3.3155,-3.2407,-3.1601,-3.2168,-3.2018,-3.1691,-3.1691,-3.1898,-3.1988,-3.1988,-3.1988,-3.1928,-3.1721,0.0,0.0,0.0,-3.142,-3.1839,-3.3514,-3.4173,-3.4741,-3.5429,-3.5519,-3.5519,-3.5519,-3.5519,-3.5519,-3.5519,-3.5519,-3.5519,-3.5519,-3.5519,-3.5519,-3.5519,-3.5519,-3.5519,-3.5519,-3.5519,-3.5519,-3.5519,-3.5519,-3.5519,-3.5519,-3.5519,-3.5519,-3.5519,-3.5519,-3.5519,-3.5519,-3.5519,-3.5519,-3.5429,-3.4741,-3.4472,-3.4442,-4.0546,-4.0487,-4.0337,-3.9619,-3.9529,-3.9559,-3.9559,-3.899,-3.8542,-3.8542,-3.7913,-3.7494,-3.7494,-3.7434,-3.7165,-3.6537,-3.6477,-3.6207,-3.5549,-3.5549,-3.5549,-3.5519,-3.5519,-3.5519,-3.5519,-3.5519,-3.5519,-3.5519,-3.4203,-3.3544,-3.3455,-3.2198,-3.1511,-3.1482,-3.1482,-3.1482,-3.1482,-3.1482,-3.1482,-3.1482,-3.1482,-3.1482,-3.1482,-3.1482,-3.1482,-3.1482,-3.1482,-3.1482,-3.1482,-3.1482,-3.1482,-3.1482,-3.1482,-3.1511,-3.1541,-3.1482,-3.1541,-3.1928,-3.3095,-3.2976,-3.2527,-3.2587,-3.2048,-3.1482,-3.1541,-3.2048,-3.2437,-3.2437,-3.2916,-3.3335,-3.3335,-3.3335,-3.3155,-3.2527,0.0,0.0,-3.2527,-3.2916,-3.3544,-3.4322,-3.4442,-3.4741,-3.5429,-3.5519,-3.5519,-3.5519,-3.5519,-3.5519,-3.5519,-3.5519,-3.5519,-3.5519,-3.5519,-3.5519,-3.5519,-3.5519,-3.5519,-3.5519,-3.5519,-3.5519,-3.5519,-3.5519,-3.5519,-3.5519,-3.5519,-3.5519,-3.5519,-3.5519,-3.5519,-3.5519,-3.5519,-3.5519,-3.5429,-3.4741,-3.4472,-3.4382,-3.9918,-4.0127,-4.0187,-3.9529,-3.9409,-3.9409,-3.9409,-3.8841,-3.8392,-3.8392,-3.7494,-3.6836,-3.6836,-3.6477,-3.6148,-3.5908,-3.5878,-3.5759,-3.5519,-3.5519,-3.5519,-3.5519,-3.5519,-3.5519,-3.5519,-3.507,-3.4861,-3.4861,-3.3544,-3.2886,-3.2856,-3.1958,-3.1482,-3.1482,-3.1482,-3.1482,-3.1482,-3.1482,-3.1482,-3.1482,-3.1482,-3.1482,-3.1482,-3.1482,-3.1482,-3.1482,-3.1482,-3.1482,-3.1482,-3.1482,-3.1482,-3.1482,-3.1482,-3.1482,-3.1571,-3.2018,-3.2138,-3.2347,-3.3245,-3.3006,-3.2617,-3.3036,-3.2946,-3.2736,-3.2736,-3.2946,-3.3125,-3.3125,-3.3335,-3.3484,-3.3484,-3.3484,-3.3544,-3.3694,0.0,-3.3095,-3.3664,-3.3604,-3.3754,-3.4412,-3.4861,-3.522,-3.5489,-3.5519,-3.5519,-3.5519,-3.5519,-3.5519,-3.5519,-3.5519,-3.5519,-3.5519,-3.5519,-3.5519,-3.5519,-3.5519,-3.5519,-3.5519,-3.5519,-3.5519,-3.5519,-3.5519,-3.5519,-3.5519,-3.5519,-3.5519,-3.5519,-3.5519,-3.5519,-3.5519,-3.5519,-3.525,-3.4771,-3.4113,-3.3873,-3.3784,-3.9499,-3.9798,-3.9948,-3.9499,-3.9409,-3.9349,-3.914,-3.8512,-3.8003,-3.7823,-3.6836,-3.6178,-3.6178,-3.5789,-3.5519,-3.5519,-3.5519,-3.5519,-3.5519,-3.5519,-3.5519,-3.5519,-3.5519,-3.5519,-3.5519,-3.4831,-3.4472,-3.4472,-3.3155,-3.2527,-3.2497,-3.1839,-3.1482,-3.1482,-3.1482,-3.1482,-3.1482,-3.1482,-3.1482,-3.1482,-3.1482,-3.1482,-3.1482,-3.1482,-3.1482,-3.1482,-3.1482,-3.1482,-3.1482,-3.1482,-3.1482,-3.1511,-3.1779,-3.1988,-3.2198,-3.2437,-3.2647,-3.2976,-3.3634,-3.3484,-3.3185,-3.3425,-3.3484,-3.3484,-3.3484,-3.3664,-3.3814,-3.3814,-3.3963,-3.4113,-3.4113,-3.4113,-3.4203,-3.4442,-3.3903,-3.3694,-3.4382,-3.4292,-3.4292,-3.4741,-3.522,-3.5519,-3.5519,-3.5519,-3.5519,-3.5519,-3.5519,-3.5519,-3.5519,-3.5519,-3.5519,-3.5519,-3.5519,-3.5519,-3.5519,-3.5519,-3.5519,-3.5519,-3.5519,-3.5519,-3.5519,-3.5519,-3.5519,-3.5519,-3.5519,-3.5519,-3.5519,-3.5519,-3.5519,-3.5519,-3.5519,-3.522,-3.4711,-3.4053,-3.3814,-3.3694,-3.9409,-3.9409,-3.9409,-3.9409,-3.9409,-3.917,-3.8482,-3.7823,-3.7195,-3.6567,-3.5908,-3.5519,-3.5519,-3.5519,-3.5519,-3.5519,-3.5519,-3.5519,-3.5519,-3.5519,-3.5519,-3.5519,-3.5519,-3.5519,-3.5519,-3.4831,-3.4472,-3.4472,-3.3155,-3.2497,-3.2497,-3.1839,-3.1482,-3.1482,-3.1482,-3.1482,-3.1482,-3.1482,-3.1482,-3.1482,-3.1482,-3.1482,-3.1482,-3.1482,-3.1482,-3.1482,-3.1482,-3.1482,-3.1482,-3.1482,-3.1482,-3.1601,-3.2317,-3.2976,-3.3365,-3.2706,-3.3006,-3.3634,-3.4292,-3.4472,-3.4322,-3.3664,-3.3514,-3.3514,-3.3514,-3.4023,-3.4472,-3.4472,-3.504,-3.5519,-3.5519,-3.5519,-3.528,-3.4592,-3.507,-3.528,-3.4592,-3.507,-3.5519,-3.5519,-3.5519,-3.5519,-3.5519,-3.5519,-3.5519,-3.5519,-3.5519,-3.5519,-3.5519,-3.5519,-3.5519,-3.5519,-3.5519,-3.5519,-3.5519,-3.5519,-3.5519,-3.5519,-3.5519,-3.5519,-3.5519,-3.5519,-3.5519,-3.5519,-3.5519,-3.5519,-3.5519,-3.5519,-3.5519,-3.5519,-3.5519,-3.5519,-3.54,-3.4741,-3.4472,-3.4382,-3.8601,-3.8691,-3.8691,-3.8691,-3.8691,-3.8631,-3.8422,-3.7464,-3.6866,-3.7105,-3.6178,-3.5519,-3.5519,-3.5519,-3.5519,-3.5519,-3.5519,-3.5519,-3.5519,-3.5519,-3.5519,-3.5519,-3.5519,-3.5519,-3.5519,-3.4382,-3.3784,-3.3784,-3.2467,-3.1839,-3.175,-3.1571,-3.1482,-3.1482,-3.1482,-3.1482,-3.1482,-3.1482,-3.1482,-3.1482,-3.1482,-3.1482,-3.1482,-3.1482,-3.1482,-3.1482,-3.1482,-3.1482,-3.1541,-3.2048,-3.2228,-3.2347,-3.3006,-3.3335,-3.3544,-3.3814,-3.4023,-3.4322,-3.5011,-3.519,-3.516,-3.4951,-3.4891,-3.4891,-3.4891,-3.507,-3.519,-3.519,-3.537,-3.5519,-3.5519,-3.5519,-3.5429,-3.522,-3.537,-3.5429,-3.522,-3.537,-3.5519,-3.5519,-3.5519,-3.5519,-3.5519,-3.5519,-3.5519,-3.5519,-3.5519,-3.5519,-3.5519,-3.5519,-3.5519,-3.5519,-3.5519,-3.5519,-3.5519,-3.5519,-3.5519,-3.5519,-3.5519,-3.5519,-3.5519,-3.5519,-3.5519,-3.5519,-3.5519,-3.5519,-3.5519,-3.5519,-3.5519,-3.5519,-3.5519,-3.522,-3.4771,-3.4562,-3.4472,-3.4382,-3.7393,-3.7168,-3.7025,-3.7382,-3.7452,-3.7534,-3.7605,-3.6985,-3.6537,-3.6656,-3.5998,-3.5519,-3.5519,-3.5519,-3.5519,-3.5519,-3.5519,-3.5519,-3.5519,-3.5519,-3.5519,-3.5519,-3.5519,-3.5519,-3.5519,-3.4173,-3.3484,-3.3484,-3.2168,-3.1482,-3.1482,-3.1482,-3.1482,-3.1482,-3.1482,-3.1482,-3.1482,-3.1482,-3.1482,-3.1482,-3.1482,-3.1482,-3.1482,-3.1482,-3.1482,-3.1482,-3.1482,-3.1631,-3.1988,-3.2377,-3.2856,-3.3305,-3.3455,-3.3873,-3.4322,-3.4442,-3.4681,-3.4981,-3.54,-3.5519,-3.5519,-3.5519,-3.5519,-3.5519,-3.5519,-3.5519,-3.5519,-3.5519,-3.5519,-3.5519,-3.5519,-3.5519,-3.5519,-3.5519,-3.5519,-3.5519,-3.5519,-3.5519,-3.5519,-3.5519,-3.5519,-3.5519,-3.5519,-3.5519,-3.5519,-3.5519,-3.5519,-3.5519,-3.5519,-3.5519,-3.5519,-3.5519,-3.5519,-3.5519,-3.5519,-3.5519,-3.5519,-3.5519,-3.5519,-3.5519,-3.5519,-3.5519,-3.5519,-3.5519,-3.5519,-3.5519,-3.5519,-3.5519,-3.5519,-3.5519,-3.5519,-3.525,-3.4891,-3.4891,-3.4891,-3.4801,-3.5813,-3.5187,-3.4864,-3.5755,-3.5899,-3.6008,-3.6432,-3.6447,-3.6207,-3.5669,-3.5549,-3.5519,-3.5519,-3.5519,-3.5519,-3.5519,-3.5519,-3.5519,-3.5519,-3.5519,-3.5519,-3.5519,-3.5519,-3.5519,-3.5519,-3.4173,-3.3484,-3.3484,-3.2168,-3.1482,-3.1482,-3.1482,-3.1482,-3.1482,-3.1482,-3.1482,-3.1482,-3.1482,-3.1482,-3.1482,-3.1482,-3.1482,-3.1482,-3.1482,-3.1482,-3.1482,-3.1541,-3.2018,-3.2527,-3.2647,-3.3514,-3.4472,-3.3873,-3.4532,-3.537,-3.4741,-3.5011,-3.5519,-3.5519,-3.5519,-3.5519,-3.5519,-3.5519,-3.5519,-3.5519,-3.5519,-3.5519,-3.5519,-3.5519,-3.5519,-3.5519,-3.5519,-3.5519,-3.5519,-3.5519,-3.5519,-3.5519,-3.5519,-3.5519,-3.5519,-3.5519,-3.5519,-3.5519,-3.5519,-3.5519,-3.5519,-3.5519,-3.5519,-3.5519,-3.5519,-3.5519,-3.5519,-3.5519,-3.5519,-3.5519,-3.5519,-3.5519,-3.5519,-3.5519,-3.5519,-3.5519,-3.5519,-3.5519,-3.5519,-3.5519,-3.5519,-3.5519,-3.5519,-3.5519,-3.5519,-3.5519,-3.5519,-3.5519,-3.5519,-3.5519,-3.54,-3.4604,-3.4566,-3.4622,-3.511,-3.5235,-3.5514,-3.6343,-3.6058,-3.5848,-3.6237,-3.5818,-3.5519,-3.5519,-3.5519,-3.5519,-3.5519,-3.5519,-3.5519,-3.5519,-3.5519,-3.5519,-3.5519,-3.5519,-3.5519,-3.5519,-3.4173,-3.3484,-3.3484,-3.2168,-3.1482,-3.1482,-3.1482,-3.1482,-3.1482,-3.1482,-3.1482,-3.1482,-3.1482,-3.1482,-3.1482,-3.1482,-3.1482,-3.1482,-3.1482,-3.1482,-3.1541,-3.2108,-3.2407,-3.2677,-3.3694,-3.4592,-3.525,-3.51,-3.528,-3.5459,-3.534,-3.54,-3.5519,-3.5519,-3.5519,-3.5519,-3.5519,-3.5519,-3.5519,-3.5519,-3.5519,-3.5519,-3.5519,-3.5519,-3.5519,-3.5519,-3.5519,-3.5519,-3.5519,-3.5519,-3.5519,-3.5519,-3.5519,-3.5519,-3.5519,-3.5519,-3.5519,-3.5519,-3.5519,-3.5519,-3.5519,-3.5519,-3.5519,-3.5519,-3.5519,-3.5519,-3.5519,-3.5519,-3.5519,-3.5519,-3.5519,-3.5519,-3.5519,-3.5519,-3.5519,-3.5519,-3.5519,-3.5519,-3.5519,-3.5519,-3.5519,-3.5519,-3.5519,-3.5519,-3.5519,-3.5519,-3.5519,-3.5519,-3.5519,-3.5519,-3.534,-3.3171,-3.2871,-3.2791,-3.3487,-3.3329,-3.3521,-3.4462,-3.4709,-3.489,-3.528,-3.5406,-3.5519,-3.5519,-3.5519,-3.5519,-3.5519,-3.5519,-3.5519,-3.5519,-3.5519,-3.5519,-3.5519,-3.5519,-3.5519,-3.5519,-3.4502,-3.3814,-3.3484,-3.2497,-3.1839,-3.1482,-3.1482,-3.1631,-3.1988,-3.1988,-3.2168,-3.2467,-3.2467,-3.2467,-3.2467,-3.2467,-3.2287,-3.1988,-3.1988,-3.1988,-3.2048,-3.2377,-3.2916,-3.3604,-3.4622,-3.522,-3.5519,-3.5519,-3.5519,-3.5519,-3.5519,-3.5519,-3.5519,-3.5519,-3.5519,-3.5519,-3.5519,-3.5519,-3.5519,-3.5519,-3.5519,-3.5519,-3.5519,-3.5519,-3.5519,-3.5519,-3.5519,-3.5519,-3.5519,-3.5519,-3.5519,-3.5519,-3.5519,-3.5519,-3.5519,-3.5519,-3.5519,-3.5519,-3.5519,-3.5519,-3.5519,-3.5519,-3.5519,-3.5519,-3.5519,-3.5519,-3.5519,-3.5519,-3.5519,-3.5519,-3.5519,-3.5519,-3.5519,-3.5519,-3.5519,-3.5519,-3.5519,-3.5519,-3.5519,-3.5519,-3.5519,-3.5519,-3.5519,-3.5519,-3.5519,-3.5519,-3.5519,-3.5459,-3.513,-3.4622,-3.3963,-3.1757,-3.111,-3.0874,-3.1703,-3.151,-3.1536,-3.2451,-3.3227,-3.3739,-3.3739,-3.461,-3.5198,-3.5198,-3.5424,-3.5519,-3.5519,-3.5519,-3.5519,-3.5519,-3.5519,-3.5519,-3.5519,-3.5519,-3.5519,-3.5519,-3.4951,-3.4322,-3.3664,-3.2886,-3.2287,-3.1869,-3.1691,-3.2048,-3.2677,-3.2677,-3.2976,-3.3484,-3.3484,-3.3484,-3.3484,-3.3484,-3.3155,-3.2677,-3.2677,-3.2677,-3.2706,-3.2796,-3.3634,-3.4741,-3.531,-3.5519,-3.5519,-3.5519,-3.5519,-3.5519,-3.5519,-3.5519,-3.5519,-3.5519,-3.5519,-3.5519,-3.5519,-3.5519,-3.5519,-3.5519,-3.5519,-3.5519,-3.5519,-3.5519,-3.5519,-3.5519,-3.5519,-3.5519,-3.5519,-3.5519,-3.5519,-3.5519,-3.5519,-3.5519,-3.5519,-3.5519,-3.5519,-3.5519,-3.5519,-3.5519,-3.5519,-3.5519,-3.5519,-3.5519,-3.5519,-3.5519,-3.5519,-3.5519,-3.5519,-3.5519,-3.5519,-3.5519,-3.5519,-3.5519,-3.5519,-3.5519,-3.5519,-3.5519,-3.5519,-3.5519,-3.5519,-3.5519,-3.5519,-3.5519,-3.5519,-3.5519,-3.5519,-3.5429,-3.4741,-3.3724,-3.2647,-3.0767,-3.0687,-3.0747,-3.1254,-3.122,-3.1536,-3.2451,-3.2735,-3.2806,-3.2806,-3.3602,-3.4177,-3.4177,-3.5001,-3.5519,-3.5519,-3.5519,-3.5519,-3.5519,-3.5519,-3.5519,-3.5519,-3.5519,-3.5519,-3.5519,-3.54,-3.504,-3.4352,-3.3125,-3.2766,-3.3215,-3.2647,-3.2736,-3.3365,-3.3365,-3.3425,-3.3484,-3.3484,-3.3484,-3.3484,-3.3484,-3.3455,-3.3365,-3.3365,-3.3365,-3.3425,-3.3993,-3.4711,-3.537,-3.5459,-3.5519,-3.5519,-3.5519,-3.5519,-3.5519,-3.5519,-3.5519,-3.5519,-3.5519,-3.5519,-3.5519,-3.5519,-3.5519,-3.5519,-3.5519,-3.5519,-3.5519,-3.5519,-3.5519,-3.5519,-3.5519,-3.5519,-3.5519,-3.5519,-3.5519,-3.5519,-3.5519,-3.5519,-3.5519,-3.5519,-3.5519,-3.5519,-3.5519,-3.5519,-3.5519,-3.5519,-3.5519,-3.5519,-3.5519,-3.5519,-3.5519,-3.5519,-3.5519,-3.5519,-3.5519,-3.5519,-3.5519,-3.5519,-3.5519,-3.5519,-3.5519,-3.5519,-3.5519,-3.5519,-3.5519,-3.5519,-3.5519,-3.5519,-3.5519,-3.5519,-3.5519,-3.5519,-3.5429,-3.4741,-3.3993,-3.3275,-3.0608,-3.0608,-3.0691,-3.0855,-3.0624,-3.057,-3.0996,-3.1462,-3.1829,-3.1829,-3.2664,-3.3227,-3.3227,-3.4109,-3.4677,-3.4677,-3.5198,-3.5519,-3.5519,-3.5519,-3.5519,-3.5519,-3.5519,-3.5519,-3.5519,-3.5519,-3.537,-3.504,-3.4083,-3.3574,-3.3484,-3.3215,-3.3425,-3.4053,-3.4053,-3.4262,-3.4622,-3.4622,-3.4622,-3.4622,-3.4622,-3.4382,-3.4053,-3.4053,-3.4053,-3.4143,-3.4801,-3.525,-3.5519,-3.5519,-3.5519,-3.5519,-3.5519,-3.5519,-3.5519,-3.5519,-3.5519,-3.5519,-3.5519,-3.5519,-3.5519,-3.5519,-3.5519,-3.5519,-3.5519,-3.5519,-3.5519,-3.5519,-3.5519,-3.5519,-3.5519,-3.5519,-3.5519,-3.5519,-3.5519,-3.5519,-3.5519,-3.5519,-3.5519,-3.5519,-3.5519,-3.5519,-3.5519,-3.5519,-3.5519,-3.5519,-3.5519,-3.5519,-3.5519,-3.5519,-3.5519,-3.5519,-3.5519,-3.5519,-3.5519,-3.5519,-3.5519,-3.5519,-3.5519,-3.5519,-3.5519,-3.5519,-3.5519,-3.5519,-3.5519,-3.5519,-3.5519,-3.5519,-3.5519,-3.5519,-3.5519,-3.504,-3.4352,-3.4053,-3.3275,-3.2347]}]]